[[{"header":{"parameterUnit":"m.s-1","parameterCategory":1,"la1":31.0,"la2":29.5877,"lo1":-88.7671,"lo2":-86.6584,"dy":0.0162,"dx":0.0185,"nx":115,"ny":88,"refTime":"2024-09-16T18:00:00:Z","depth":0,"parameterNumber":2,"parameterNumberName":"U-component_of_WINDS"},"data":[0.0,0.0,0.0,0.0,0.0,0.0,0.0,0.0,0.0,0.0,0.0,0.0,0.0,0.0,0.0,0.0,0.0,0.0,0.0,0.0,0.0,0.0,0.0,0.0,0.0,0.0,0.0,0.0,0.0,0.0,0.0,0.0,0.0,0.0,0.0,0.0,0.0,0.0,0.0,0.0,0.0,0.0,0.0,0.0,0.0,0.0,0.0,0.0,0.0,0.0,0.0,0.0,0.0,0.0,0.0,0.0,0.0,0.0,0.0,0.0,0.0,0.0,0.0,0.0,0.0,0.0,0.0,0.0,0.0,0.0,0.0,0.0,0.0,0.0,0.0,0.0,0.0,0.0,0.0,0.0,0.0,0.0,0.0,0.0,0.0,0.0,0.0,0.0,0.0,0.0,0.0,0.0,0.0,0.0,0.0,0.0,0.0,0.0,0.0,0.0,0.0,0.0,0.0,0.0,0.0,0.0,0.0,0.0,0.0,0.0,0.0,0.0,0.0,0.0,0.0,0.0,0.0,0.0,0.0,0.0,0.0,0.0,0.0,0.0,0.0,0.0,0.0,0.0,0.0,0.0,0.0,0.0,0.0,0.0,0.0,0.0,0.0,0.0,0.0,0.0,0.0,0.0,0.0,0.0,0.0,0.0,0.0,0.0,0.0,0.0,0.0,0.0,0.0,0.0,0.0,0.0,0.0,0.0,0.0,0.0,0.0,0.0,0.0,0.0,0.0,0.0,0.0,0.0,0.0,0.0,0.0,0.0,0.0,0.0,0.0,0.0,0.0,0.0,0.0,0.0,0.0,0.0,0.0,0.0,0.0,0.0,0.0,0.0,0.0,0.0,0.0,0.0,0.0,0.0,0.0,0.0,0.0,0.0,0.0,0.0,0.0,0.0,0.0,0.0,0.0,0.0,0.0,0.0,0.0,0.0,0.0,0.0,0.0,0.0,0.0,0.0,0.0,0.0,0.0,0.0,0.0,0.0,0.0,0.0,0.0,0.0,0.0,0.0,0.0,0.0,0.0,0.0,0.0,0.0,0.0,0.0,0.0,0.0,0.0,0.0,0.0,0.0,0.0,0.0,0.0,0.0,0.0,0.0,0.0,0.0,0.0,0.0,0.0,0.0,0.0,0.0,0.0,0.0,0.0,0.0,0.0,0.0,0.0,0.0,0.0,0.0,0.0,0.0,0.0,0.0,0.0,0.0,0.0,0.0,0.0,0.0,0.0,0.0,0.0,0.0,0.0,0.0,0.0,0.0,0.0,0.0,0.0,0.0,0.0,0.0,0.0,0.0,0.0,0.0,0.0,0.0,0.0,0.0,0.0,0.0,0.0,0.0,0.0,0.0,0.0,0.0,0.0,0.0,0.0,0.0,0.0,0.0,0.0,0.0,0.0,0.0,0.0,0.0,0.0,0.0,0.0,0.0,0.0,0.0,0.0,0.0,0.0,0.0,0.0,0.0,0.0,0.0,0.0,0.0,0.0,0.0,0.0,0.0,0.0,0.0,0.0,0.0,0.0,0.0,0.0,0.0,0.0,0.0,0.0,0.0,0.0,0.0,0.0,0.0,0.0,0.0,0.0,0.0,0.0,0.0,0.0,0.0,0.0,0.0,0.0,0.0,0.0,0.0,0.0,0.0,0.0,0.0,0.0,0.0,0.0,0.0,0.0,0.0,0.0,0.0,0.0,0.0,0.0,0.0,0.0,0.0,0.0,0.0,0.0,0.0,0.0,0.0,0.0,0.0,0.0,0.0,0.0,0.0,0.0,0.0,0.0,0.0,0.0,0.0,0.0,0.0,0.0,0.0,0.0,0.0,0.0,0.0,0.0,0.0,0.0,0.0,0.0,0.0,0.0,0.0,0.0,0.0,0.0,0.0,0.0,0.0,0.0,0.0,0.0,0.0,0.0,0.0,0.0,0.0,0.0,0.0,0.0,0.0,0.0,0.0,0.0,0.0,0.0,0.0,0.0,0.0,0.0,0.0,0.0,0.0,0.0,0.0,0.0,0.0,0.0,0.0,0.0,0.0,0.0,0.0,0.0,0.0,0.0,0.0,0.0,0.0,0.0,0.0,0.0,0.0,0.0,0.0,0.0,0.0,0.0,0.0,0.0,0.0,0.0,0.0,0.0,0.0,0.0,0.0,0.0,0.0,0.0,0.0,0.0,0.0,0.0,0.0,0.0,0.0,0.0,0.0,0.0,0.0,0.0,0.0,0.0,0.0,0.0,0.0,0.0,0.0,0.0,0.0,0.0,0.0,0.0,0.0,0.0,0.0,0.0,0.0,0.0,0.0,0.0,0.0,0.0,0.0,0.0,0.0,0.0,0.0,0.0,0.0,0.0,0.0,0.0,0.0,0.0,0.0,0.0,0.0,0.0,0.0,0.0,0.0,0.0,0.0,0.0,0.0,0.0,0.0,0.0,0.0,0.0,0.0,0.0,0.0,0.0,0.0,0.0,0.0,0.0,0.0,0.0,0.0,0.0,0.0,0.0,0.0,0.0,0.0,0.0,0.0,0.0,0.0,0.0,0.0,0.0,0.0,0.0,0.0,0.0,0.0,0.0,0.0,0.0,0.0,0.0,0.0,0.0,0.0,0.0,0.0,0.0,0.0,0.0,0.0,0.0,0.0,0.0,0.0,0.0,0.0,0.0,0.0,0.0,0.0,0.0,0.0,0.0,0.0,0.0,0.0,0.0,0.0,0.0,0.0,0.0,0.0,0.0,0.0,0.0,0.0,0.0,0.0,0.0,0.0,0.0,0.0,0.0,0.0,0.0,0.0,0.0,0.0,0.0,0.0,0.0,0.0,0.0,0.0,0.0,0.0,0.0,0.0,0.0,0.0,0.0,0.0,0.0,0.0,0.0,0.0,0.0,0.0,0.0,0.0,0.0,0.0,0.0,0.0,0.0,0.0,0.0,0.0,0.0,0.0,0.0,0.0,0.0,0.0,0.0,0.0,0.0,0.0,0.0,0.0,0.0,0.0,0.0,0.0,0.0,0.0,0.0,0.0,0.0,0.0,0.0,0.0,0.0,0.0,0.0,0.0,0.0,0.0,0.0,0.0,0.0,0.0,0.0,0.0,0.0,0.0,0.0,0.0,0.0,0.0,0.0,0.0,0.0,0.0,0.0,0.0,0.0,0.0,0.0,0.0,0.0,0.0,0.0,0.0,0.0,0.0,0.0,0.0,0.0,0.0,0.0,0.0,0.0,0.0,0.0,0.0,0.0,0.0,0.0,0.0,0.0,0.0,0.0,0.0,0.0,0.0,0.0,0.0,0.0,0.0,0.0,0.0,0.0,0.0,0.0,0.0,0.0,0.0,0.0,0.0,0.0,0.0,0.0,0.0,0.0,0.0,0.0,0.0,0.0,0.0,0.0,0.0,0.0,0.0,0.0,0.0,0.0,0.0,0.0,0.0,0.0,0.0,0.0,0.0,0.0,0.0,0.0,0.0,0.0,0.0,0.0,0.0,0.0,0.0,0.0,0.0,0.0,0.0,0.0,0.0,0.0,0.0,0.0,0.0,0.0,0.0,0.0,0.0,0.0,0.0,0.0,0.0,0.0,0.0,0.0,0.0,0.0,0.0,0.0,0.0,0.0,0.0,0.0,0.0,0.0,0.0,0.0,0.0,0.0,0.0,0.0,0.0,0.0,0.0,0.0,0.0,0.0,0.0,0.0,0.0,0.0,0.0,0.0,0.0,0.0,0.0,0.0,0.0,0.0,0.0,0.0,0.0,0.0,0.0,0.0,0.0,0.0,0.0,0.0,0.0,0.0,0.0,0.0,0.0,0.0,0.0,0.0,0.0,0.0,0.0,0.0,0.0,0.0,0.0,0.0,0.0,0.0,0.0,0.0,0.0,0.0,0.0,0.0,0.0,0.0,0.0,0.0,0.0,0.0,0.0,0.0,0.0,0.0,0.0,0.0,0.0,0.0,0.0,0.0,0.0,0.0,0.0,0.0,0.0,0.0,0.0,0.0,0.0,0.0,0.0,0.0,0.0,0.0,0.0,0.0,0.0,0.0,0.0,0.0,0.0,0.0,0.0,0.0,0.0,0.0,0.0,0.0,0.0,0.0,0.0,0.0,0.0,0.0,0.0,0.0,0.0,0.0,0.0,0.0,0.0,0.0,0.0,0.0,0.0,0.0,0.0,0.0,0.0,0.0,0.0,0.0,0.0,0.0,0.0,0.0,0.0,0.0,0.0,0.0,0.0,0.0,0.0,0.0,0.0,0.0,0.0,0.0,0.0,0.0,0.0,0.0,0.0,0.0,0.0,2.6813,0.0,0.0,0.0,0.0,0.0,0.0,0.0,0.0,0.0,0.0,0.0,0.0,0.0,0.0,0.0,0.0,0.0,0.0,0.0,0.0,0.0,0.0,0.0,0.0,0.0,0.0,0.0,0.0,0.0,0.0,0.0,0.0,0.0,0.0,0.0,0.0,0.0,0.0,0.0,0.0,0.0,0.0,0.0,0.0,0.0,0.0,0.0,0.0,0.0,0.0,0.0,0.0,0.0,0.0,0.0,0.0,0.0,0.0,0.0,0.0,0.0,0.0,0.0,0.0,0.0,0.0,0.0,0.0,0.0,0.0,0.0,0.0,0.0,0.0,0.0,0.0,0.0,0.0,0.0,0.0,0.0,0.0,0.0,0.0,0.0,0.0,0.0,0.0,0.0,0.0,0.0,0.0,0.0,0.0,0.0,0.0,0.0,0.0,0.0,0.0,0.0,0.0,0.0,0.0,0.0,0.0,0.0,0.0,0.0,0.0,2.7794,2.789,2.7448,2.7005,2.6601,0.0,0.0,0.0,0.0,0.0,0.0,0.0,0.0,0.0,0.0,0.0,0.0,0.0,0.0,0.0,0.0,0.0,0.0,0.0,0.0,0.0,0.0,0.0,0.0,0.0,0.0,0.0,0.0,0.0,0.0,0.0,0.0,0.0,0.0,0.0,0.0,0.0,0.0,0.0,0.0,0.0,0.0,0.0,0.0,0.0,0.0,0.0,0.0,0.0,0.0,0.0,0.0,0.0,0.0,0.0,0.0,0.0,0.0,0.0,0.0,0.0,0.0,0.0,0.0,0.0,0.0,0.0,0.0,0.0,0.0,0.0,0.0,0.0,0.0,0.0,0.0,0.0,0.0,0.0,0.0,0.0,0.0,0.0,0.0,0.0,0.0,0.0,0.0,0.0,0.0,0.0,0.0,0.0,0.0,0.0,0.0,0.0,0.0,0.0,0.0,0.0,0.0,0.0,0.0,0.0,0.0,0.0,0.0,0.0,0.0,0.0,0.0,2.683,2.6465,2.6273,0.0,0.0,0.0,0.0,0.0,0.0,0.0,0.0,0.0,0.0,0.0,0.0,0.0,0.0,0.0,0.0,0.0,0.0,0.0,0.0,0.0,0.0,0.0,0.0,0.0,0.0,0.0,0.0,0.0,0.0,0.0,0.0,0.0,0.0,0.0,0.0,0.0,0.0,0.0,0.0,0.0,0.0,0.0,0.0,0.0,0.0,0.0,0.0,0.0,0.0,0.0,0.0,0.0,0.0,0.0,0.0,0.0,0.0,0.0,0.0,0.0,0.0,0.0,0.0,0.0,0.0,0.0,0.0,0.0,0.0,0.0,0.0,0.0,0.0,0.0,0.0,0.0,0.0,0.0,0.0,0.0,0.0,0.0,0.0,0.0,0.0,0.0,0.0,0.0,0.0,0.0,0.0,0.0,0.0,0.0,0.0,0.0,0.0,0.0,0.0,0.0,0.0,0.0,0.0,0.0,0.0,0.0,0.0,0.0,0.0,2.6162,2.5491,2.6124,0.0,2.5395,0.0,0.0,0.0,0.0,0.0,0.0,0.0,0.0,0.0,0.0,0.0,0.0,0.0,0.0,0.0,0.0,0.0,0.0,0.0,0.0,0.0,0.0,0.0,0.0,0.0,0.0,0.0,0.0,0.0,0.0,0.0,0.0,0.0,0.0,0.0,0.0,0.0,0.0,0.0,0.0,0.0,0.0,0.0,0.0,0.0,0.0,0.0,0.0,0.0,0.0,0.0,0.0,0.0,0.0,0.0,0.0,0.0,0.0,0.0,0.0,0.0,0.0,0.0,0.0,0.0,0.0,0.0,0.0,0.0,0.0,0.0,0.0,0.0,0.0,0.0,0.0,0.0,0.0,0.0,0.0,0.0,0.0,0.0,0.0,0.0,0.0,0.0,0.0,0.0,0.0,0.0,0.0,0.0,0.0,0.0,0.0,0.0,0.0,0.0,0.0,0.0,0.0,0.0,0.0,0.0,0.0,0.0,0.0,0.0,0.0,2.5557,2.5212,2.5538,2.5557,0.0,0.0,0.0,0.0,0.0,0.0,0.0,0.0,0.0,0.0,0.0,0.0,0.0,0.0,0.0,0.0,0.0,0.0,0.0,0.0,0.0,0.0,0.0,0.0,0.0,0.0,0.0,0.0,0.0,0.0,0.0,0.0,0.0,0.0,0.0,0.0,0.0,0.0,0.0,0.0,0.0,0.0,0.0,0.0,0.0,0.0,0.0,0.0,0.0,0.0,0.0,0.0,0.0,0.0,0.0,0.0,0.0,0.0,0.0,0.0,0.0,0.0,0.0,0.0,0.0,0.0,0.0,0.0,0.0,0.0,0.0,0.0,0.0,0.0,0.0,0.0,0.0,0.0,0.0,0.0,0.0,0.0,0.0,0.0,0.0,0.0,0.0,0.0,0.0,0.0,0.0,0.0,0.0,0.0,0.0,0.0,0.0,0.0,0.0,0.0,0.0,0.0,0.0,0.0,0.0,0.0,0.0,0.0,0.0,0.0,2.5179,2.5168,2.5176,2.5157,2.5061,2.4843,0.0,0.0,0.0,0.0,0.0,0.0,0.0,0.0,0.0,0.0,0.0,0.0,0.0,0.0,0.0,0.0,0.0,0.0,0.0,0.0,0.0,0.0,0.0,0.0,0.0,0.0,0.0,0.0,0.0,0.0,0.0,0.0,0.0,0.0,0.0,0.0,0.0,0.0,0.0,0.0,0.0,0.0,0.0,0.0,0.0,0.0,0.0,0.0,0.0,0.0,0.0,0.0,0.0,0.0,0.0,0.0,0.0,0.0,0.0,0.0,0.0,0.0,0.0,0.0,0.0,0.0,0.0,0.0,0.0,0.0,0.0,0.0,0.0,0.0,0.0,0.0,0.0,0.0,0.0,0.0,0.0,0.0,0.0,0.0,0.0,0.0,0.0,0.0,0.0,0.0,0.0,0.0,0.0,0.0,0.0,0.0,0.0,0.0,0.0,0.0,0.0,0.0,0.0,0.0,0.0,0.0,0.0,0.0,0.0,2.5156,2.5101,2.5114,2.5101,2.4702,0.0,0.0,0.0,0.0,0.0,0.0,0.0,0.0,0.0,0.0,0.0,0.0,0.0,0.0,0.0,0.0,0.0,0.0,0.0,0.0,0.0,0.0,0.0,0.0,0.0,0.0,0.0,0.0,0.0,0.0,0.0,0.0,0.0,0.0,0.0,0.0,0.0,0.0,0.0,0.0,0.0,0.0,0.0,0.0,0.0,0.0,0.0,0.0,0.0,0.0,0.0,0.0,0.0,0.0,0.0,0.0,0.0,0.0,0.0,0.0,0.0,0.0,0.0,0.0,0.0,0.0,0.0,0.0,0.0,0.0,0.0,0.0,0.0,0.0,0.0,0.0,0.0,0.0,0.0,0.0,0.0,0.0,0.0,0.0,0.0,0.0,0.0,0.0,0.0,0.0,0.0,0.0,0.0,0.0,0.0,0.0,0.0,0.0,0.0,0.0,0.0,0.0,0.0,0.0,0.0,0.0,0.0,0.0,0.0,2.5139,2.5082,2.5006,2.4961,2.4467,2.405,0.0,0.0,0.0,0.0,0.0,0.0,0.0,0.0,0.0,0.0,0.0,0.0,0.0,0.0,0.0,0.0,0.0,0.0,0.0,0.0,0.0,0.0,0.0,0.0,0.0,0.0,0.0,0.0,0.0,0.0,0.0,0.0,0.0,0.0,0.0,0.0,0.0,0.0,0.0,0.0,0.0,0.0,0.0,0.0,0.0,0.0,0.0,0.0,0.0,0.0,0.0,0.0,0.0,0.0,0.0,0.0,0.0,0.0,0.0,0.0,0.0,0.0,0.0,0.0,0.0,0.0,0.0,0.0,0.0,0.0,0.0,0.0,0.0,0.0,0.0,0.0,0.0,0.0,0.0,0.0,0.0,0.0,0.0,0.0,0.0,0.0,0.0,0.0,0.0,0.0,0.0,0.0,0.0,0.0,0.0,0.0,0.0,0.0,0.0,0.0,0.0,0.0,0.0,0.0,0.0,0.0,0.0,0.0,0.0,2.5004,0.0,2.4898,0.0,2.4058,2.3491,0.0,0.0,0.0,0.0,0.0,0.0,0.0,0.0,0.0,0.0,0.0,0.0,0.0,0.0,0.0,0.0,0.0,0.0,0.0,0.0,0.0,0.0,0.0,0.0,0.0,0.0,0.0,0.0,0.0,0.0,0.0,0.0,0.0,0.0,0.0,0.0,0.0,0.0,0.0,0.0,0.0,0.0,0.0,0.0,0.0,0.0,0.0,0.0,0.0,0.0,0.0,0.0,0.0,0.0,0.0,0.0,0.0,0.0,0.0,0.0,0.0,0.0,0.0,0.0,0.0,0.0,0.0,0.0,0.0,0.0,0.0,0.0,0.0,0.0,0.0,0.0,0.0,0.0,0.0,0.0,0.0,0.0,0.0,0.0,0.0,0.0,0.0,0.0,0.0,0.0,0.0,0.0,0.0,0.0,0.0,0.0,0.0,0.0,0.0,0.0,0.0,0.0,0.0,0.0,0.0,0.0,0.0,0.0,2.4879,2.4794,2.4802,2.4757,2.4689,2.3881,2.3074,0.0,0.0,0.0,0.0,0.0,0.0,0.0,0.0,0.0,0.0,0.0,0.0,0.0,0.0,0.0,0.0,0.0,0.0,0.0,0.0,0.0,0.0,0.0,0.0,0.0,0.0,0.0,0.0,0.0,0.0,0.0,0.0,0.0,0.0,0.0,0.0,0.0,0.0,0.0,0.0,0.0,0.0,0.0,0.0,0.0,0.0,0.0,0.0,0.0,0.0,0.0,0.0,0.0,0.0,0.0,0.0,0.0,0.0,0.0,0.0,0.0,0.0,0.0,0.0,0.0,0.0,0.0,0.0,0.0,0.0,0.0,0.0,0.0,0.0,0.0,0.0,0.0,0.0,0.0,0.0,0.0,0.0,0.0,0.0,0.0,0.0,0.0,0.0,0.0,0.0,0.0,0.0,0.0,0.0,0.0,0.0,0.0,0.0,0.0,0.0,0.0,0.0,0.0,0.0,0.0,0.0,0.0,0.0,0.0,2.466,2.4663,2.4613,2.4472,2.3185,2.2327,0.0,0.0,0.0,0.0,0.0,0.0,0.0,0.0,0.0,0.0,0.0,0.0,0.0,0.0,0.0,0.0,0.0,0.0,0.0,0.0,0.0,0.0,0.0,0.0,0.0,0.0,0.0,0.0,0.0,0.0,0.0,0.0,0.0,0.0,0.0,0.0,0.0,0.0,0.0,0.0,0.0,0.0,0.0,0.0,0.0,0.0,0.0,0.0,0.0,0.0,0.0,0.0,0.0,0.0,0.0,0.0,0.0,0.0,0.0,0.0,0.0,0.0,0.0,0.0,0.0,0.0,0.0,0.0,0.0,0.0,0.0,0.0,0.0,0.0,0.0,0.0,0.0,0.0,0.0,0.0,0.0,0.0,0.0,0.0,0.0,0.0,0.0,0.0,0.0,0.0,0.0,0.0,0.0,0.0,0.0,0.0,0.0,0.0,0.0,0.0,0.0,0.0,0.0,0.0,0.0,0.0,0.0,0.0,0.0,2.4375,2.4428,2.4428,2.4321,2.3026,2.2194,2.1861,0.0,0.0,0.0,0.0,0.0,0.0,0.0,0.0,0.0,0.0,0.0,0.0,0.0,0.0,0.0,0.0,0.0,0.0,0.0,0.0,0.0,0.0,0.0,0.0,0.0,0.0,0.0,0.0,0.0,0.0,0.0,0.0,0.0,0.0,0.0,0.0,0.0,0.0,0.0,0.0,0.0,0.0,0.0,0.0,0.0,0.0,0.0,0.0,0.0,0.0,0.0,0.0,0.0,0.0,0.0,0.0,0.0,0.0,0.0,0.0,0.0,0.0,0.0,0.0,0.0,0.0,0.0,0.0,0.0,0.0,0.0,0.0,0.0,0.0,0.0,0.0,0.0,0.0,0.0,0.0,0.0,0.0,0.0,0.0,0.0,0.0,0.0,0.0,0.0,0.0,0.0,0.0,0.0,0.0,0.0,0.0,0.0,0.0,0.0,0.0,0.0,0.0,0.0,0.0,0.0,0.0,0.0,0.0,2.3996,2.4096,2.4154,2.4114,2.3308,2.2502,0.0,0.0,0.0,0.0,0.0,0.0,0.0,0.0,0.0,0.0,0.0,0.0,0.0,0.0,0.0,0.0,0.0,0.0,0.0,0.0,0.0,0.0,0.0,0.0,0.0,0.0,0.0,0.0,0.0,0.0,0.0,0.0,0.0,0.0,0.0,0.0,0.0,0.0,0.0,0.0,0.0,0.0,0.0,0.0,0.0,0.0,0.0,0.0,0.0,0.0,0.0,0.0,0.0,0.0,0.0,0.0,0.0,0.0,0.0,0.0,0.0,0.0,0.0,0.0,0.0,0.0,0.0,0.0,0.0,0.0,0.0,0.0,0.0,0.0,0.0,0.0,0.0,0.0,0.0,0.0,0.0,0.0,0.0,0.0,0.0,0.0,0.0,0.0,0.0,0.0,0.0,0.0,0.0,0.0,0.0,0.0,0.0,0.0,0.0,0.0,0.0,0.0,0.0,0.0,0.0,0.0,0.0,0.0,0.0,2.385,2.385,2.3771,2.361,2.2996,2.22,0.0,0.0,0.0,0.0,0.0,0.0,0.0,0.0,0.0,0.0,0.0,0.0,0.0,0.0,0.0,0.0,0.0,0.0,0.0,0.0,0.0,0.0,0.0,0.0,0.0,0.0,0.0,0.0,0.0,0.0,0.0,0.0,0.0,0.0,0.0,0.0,0.0,0.0,0.0,0.0,0.0,0.0,0.0,0.0,0.0,0.0,0.0,0.0,0.0,0.0,0.0,0.0,0.0,0.0,0.0,0.0,0.0,0.0,0.0,0.0,0.0,0.0,0.0,0.0,0.0,0.0,0.0,0.0,0.0,0.0,0.0,0.0,0.0,0.0,0.0,0.0,0.0,0.0,0.0,0.0,0.0,0.0,0.0,0.0,0.0,0.0,0.0,0.0,0.0,0.0,0.0,0.0,0.0,0.0,0.0,0.0,0.0,0.0,0.0,0.0,0.0,0.0,0.0,0.0,0.0,0.0,0.0,0.0,2.352,2.3145,2.3084,2.2891,2.2474,2.2799,2.2314,0.0,0.0,0.0,0.0,0.0,0.0,0.0,0.0,0.0,0.0,0.0,0.0,0.0,0.0,0.0,0.0,0.0,0.0,0.0,0.0,0.0,0.0,0.0,0.0,0.0,0.0,0.0,0.0,0.0,0.0,0.0,0.0,0.0,0.0,0.0,0.0,0.0,0.0,0.0,0.0,0.0,0.0,0.0,0.0,0.0,0.0,0.0,0.0,0.0,0.0,0.0,0.0,0.0,0.0,0.0,0.0,0.0,0.0,0.0,0.0,0.0,0.0,0.0,0.0,0.0,0.0,0.0,0.0,0.0,0.0,0.0,0.0,0.0,0.0,0.0,0.0,0.0,0.0,0.0,0.0,0.0,0.0,0.0,0.0,0.0,0.0,0.0,0.0,0.0,0.0,0.0,0.0,0.0,0.0,0.0,0.0,0.0,0.0,0.0,0.0,0.0,0.0,0.0,0.0,0.0,0.0,0.0,0.0,2.3035,2.218,2.2091,2.175,2.1148,2.2463,2.2392,0.0,0.0,0.0,0.0,0.0,0.0,0.0,0.0,0.0,0.0,0.0,0.0,0.0,0.0,0.0,0.0,0.0,0.0,0.0,0.0,0.0,0.0,0.0,0.0,0.0,0.0,0.0,0.0,0.0,0.0,0.0,0.0,0.0,0.0,0.0,0.0,0.0,0.0,0.0,0.0,0.0,0.0,0.0,0.0,0.0,0.0,0.0,0.0,0.0,0.0,0.0,0.0,0.0,0.0,0.0,0.0,0.0,0.0,0.0,0.0,0.0,0.0,0.0,0.0,0.0,0.0,0.0,0.0,0.0,0.0,0.0,0.0,0.0,0.0,0.0,0.0,0.0,0.0,0.0,0.0,0.0,0.0,0.0,0.0,0.0,0.0,0.0,0.0,0.0,0.0,0.0,0.0,0.0,0.0,0.0,0.0,0.0,0.0,0.0,0.0,0.0,0.0,0.0,0.0,0.0,0.0,0.0,0.0,2.2362,2.2025,2.1427,2.0854,2.0347,2.0958,2.0912,0.0,0.0,0.0,0.0,0.0,0.0,0.0,0.0,0.0,0.0,0.0,0.0,0.0,0.0,0.0,0.0,0.0,0.0,0.0,0.0,0.0,0.0,0.0,0.0,0.0,0.0,0.0,0.0,0.0,0.0,0.0,0.0,0.0,0.0,0.0,0.0,0.0,0.0,0.0,0.0,0.0,0.0,0.0,0.0,0.0,0.0,0.0,0.0,2.307,0.0,0.0,0.0,0.0,0.0,0.0,0.0,0.0,0.0,0.0,0.0,0.0,0.0,0.0,0.0,0.0,0.0,0.0,0.0,0.0,0.0,0.0,0.0,0.0,0.0,0.0,0.0,0.0,0.0,0.0,0.0,0.0,0.0,0.0,0.0,0.0,0.0,0.0,0.0,0.0,0.0,0.0,0.0,0.0,0.0,0.0,0.0,0.0,0.0,0.0,0.0,0.0,0.0,0.0,0.0,0.0,0.0,0.0,0.0,2.1713,2.0778,2.007,1.9589,1.9435,1.9013,1.8938,0.0,0.0,0.0,0.0,0.0,0.0,0.0,0.0,0.0,0.0,0.0,0.0,0.0,0.0,0.0,0.0,0.0,0.0,0.0,0.0,0.0,0.0,0.0,0.0,0.0,0.0,0.0,0.0,0.0,0.0,0.0,0.0,0.0,0.0,0.0,0.0,0.0,0.0,0.0,0.0,0.0,0.0,0.0,0.0,0.0,0.0,0.0,0.0,0.0,0.0,0.0,0.0,0.0,0.0,0.0,0.0,0.0,0.0,0.0,0.0,0.0,0.0,0.0,0.0,0.0,0.0,0.0,0.0,0.0,0.0,0.0,0.0,0.0,0.0,0.0,0.0,0.0,0.0,0.0,0.0,0.0,0.0,0.0,0.0,0.0,0.0,0.0,0.0,0.0,0.0,0.0,0.0,0.0,0.0,0.0,0.0,0.0,0.0,0.0,0.0,0.0,0.0,0.0,0.0,0.0,0.0,0.0,2.1049,2.092,1.9282,1.8527,1.8199,1.8181,1.7155,1.7093,1.8177,0.0,0.0,0.0,0.0,0.0,0.0,0.0,0.0,0.0,0.0,0.0,0.0,0.0,0.0,0.0,0.0,0.0,0.0,0.0,0.0,0.0,0.0,0.0,0.0,0.0,0.0,0.0,0.0,0.0,0.0,0.0,0.0,0.0,0.0,0.0,0.0,0.0,0.0,2.3707,2.3526,0.0,0.0,0.0,0.0,0.0,0.0,0.0,0.0,2.2285,0.0,0.0,0.0,0.0,0.0,0.0,0.0,0.0,0.0,0.0,0.0,0.0,0.0,0.0,0.0,0.0,0.0,0.0,0.0,0.0,0.0,0.0,0.0,0.0,0.0,0.0,0.0,0.0,0.0,0.0,0.0,0.0,0.0,0.0,0.0,0.0,0.0,0.0,0.0,0.0,0.0,0.0,0.0,0.0,0.0,0.0,0.0,0.0,0.0,0.0,0.0,0.0,0.0,0.0,0.0,0.0,1.9805,1.9928,1.9482,1.8439,1.7624,1.6829,1.6005,1.6382,1.6597,1.6621,0.0,0.0,0.0,0.0,0.0,0.0,0.0,0.0,0.0,0.0,0.0,0.0,0.0,0.0,0.0,0.0,0.0,0.0,0.0,0.0,0.0,0.0,0.0,0.0,0.0,0.0,0.0,0.0,0.0,0.0,0.0,0.0,0.0,0.0,0.0,0.0,0.0,0.0,0.0,2.3271,2.3095,0.0,0.0,0.0,0.0,0.0,0.0,0.0,0.0,2.1609,0.0,0.0,0.0,0.0,0.0,0.0,0.0,0.0,0.0,0.0,0.0,0.0,0.0,0.0,0.0,0.0,0.0,0.0,0.0,0.0,0.0,0.0,0.0,0.0,0.0,0.0,0.0,0.0,0.0,0.0,0.0,0.0,0.0,0.0,0.0,0.0,0.0,0.0,0.0,0.0,0.0,0.0,0.0,0.0,0.0,0.0,0.0,0.0,0.0,0.0,0.0,0.0,0.0,0.0,0.0,1.9165,1.9716,1.9213,1.7583,1.6772,1.607,1.5436,1.5419,1.5483,0.0,0.0,0.0,0.0,0.0,0.0,0.0,0.0,0.0,0.0,0.0,0.0,0.0,0.0,0.0,0.0,0.0,0.0,0.0,0.0,0.0,0.0,0.0,0.0,0.0,0.0,0.0,0.0,0.0,0.0,0.0,0.0,0.0,0.0,0.0,0.0,0.0,0.0,0.0,0.0,2.2884,2.259,2.2419,0.0,0.0,0.0,0.0,0.0,0.0,2.1225,2.1183,0.0,0.0,0.0,0.0,0.0,0.0,0.0,0.0,0.0,0.0,0.0,0.0,0.0,0.0,0.0,0.0,0.0,0.0,0.0,0.0,0.0,0.0,0.0,0.0,0.0,0.0,0.0,0.0,0.0,0.0,0.0,0.0,0.0,0.0,0.0,0.0,0.0,0.0,0.0,0.0,0.0,0.0,0.0,0.0,0.0,0.0,0.0,0.0,0.0,0.0,0.0,0.0,0.0,0.0,0.0,1.8565,1.9608,1.9029,1.6778,1.6079,1.5503,1.4964,1.4491,1.444,0.0,0.0,0.0,0.0,0.0,0.0,0.0,0.0,0.0,0.0,0.0,0.0,0.0,0.0,0.0,0.0,0.0,0.0,0.0,0.0,0.0,0.0,0.0,0.0,0.0,0.0,0.0,0.0,0.0,0.0,0.0,0.0,0.0,0.0,0.0,0.0,0.0,0.0,0.0,0.0,0.0,2.2181,2.1924,2.1702,0.0,0.0,0.0,0.0,2.091,2.0798,0.0,0.0,0.0,0.0,0.0,0.0,0.0,0.0,0.0,0.0,0.0,0.0,0.0,0.0,0.0,0.0,0.0,0.0,0.0,0.0,0.0,0.0,0.0,0.0,0.0,0.0,0.0,0.0,0.0,0.0,0.0,0.0,0.0,0.0,0.0,0.0,0.0,0.0,0.0,0.0,0.0,0.0,0.0,0.0,0.0,0.0,0.0,0.0,0.0,0.0,0.0,0.0,0.0,0.0,0.0,0.0,1.8516,1.9125,1.8275,1.5984,1.5761,1.4956,1.3421,1.3901,1.4189,0.0,0.0,0.0,0.0,0.0,0.0,0.0,0.0,0.0,0.0,0.0,0.0,0.0,0.0,0.0,0.0,0.0,0.0,0.0,0.0,0.0,0.0,0.0,0.0,0.0,0.0,0.0,0.0,0.0,0.0,0.0,0.0,0.0,0.0,0.0,0.0,0.0,0.0,0.0,0.0,0.0,2.1924,2.1615,2.1291,2.1007,0.0,0.0,2.0501,2.0412,2.0286,0.0,0.0,0.0,0.0,0.0,0.0,0.0,0.0,0.0,0.0,0.0,0.0,0.0,0.0,0.0,0.0,0.0,0.0,0.0,0.0,0.0,0.0,0.0,0.0,0.0,0.0,0.0,0.0,0.0,0.0,0.0,0.0,0.0,0.0,0.0,0.0,0.0,0.0,0.0,0.0,0.0,0.0,0.0,0.0,0.0,0.0,0.0,0.0,0.0,0.0,0.0,0.0,0.0,0.0,0.0,1.8136,1.845,1.9275,1.8393,1.5818,1.5576,1.4737,1.31,1.3291,1.3339,0.0,0.0,0.0,0.0,0.0,0.0,0.0,0.0,0.0,0.0,0.0,0.0,0.0,0.0,0.0,0.0,0.0,0.0,0.0,0.0,0.0,0.0,0.0,0.0,0.0,0.0,0.0,0.0,0.0,0.0,0.0,0.0,0.0,0.0,0.0,0.0,0.0,0.0,0.0,0.0,0.0,0.0,2.1197,2.078,0.0,0.0,0.0,1.9834,1.9714,0.0,0.0,0.0,0.0,0.0,0.0,0.0,0.0,0.0,0.0,0.0,0.0,0.0,0.0,0.0,0.0,0.0,0.0,0.0,0.0,0.0,0.0,0.0,0.0,0.0,0.0,0.0,0.0,0.0,0.0,0.0,0.0,0.0,0.0,0.0,0.0,0.0,0.0,0.0,0.0,0.0,0.0,0.0,0.0,0.0,0.0,0.0,0.0,0.0,0.0,0.0,0.0,0.0,0.0,0.0,0.0,0.0,1.8364,1.9168,1.8293,1.5697,1.5399,1.4519,1.2955,1.2759,0.0,0.0,0.0,0.0,0.0,0.0,0.0,0.0,0.0,0.0,0.0,0.0,0.0,0.0,0.0,0.0,0.0,0.0,0.0,0.0,0.0,0.0,0.0,0.0,0.0,0.0,0.0,1.7871,0.0,0.0,0.0,0.0,0.0,0.0,0.0,0.0,0.0,0.0,0.0,0.0,0.0,0.0,2.1039,2.0795,2.0326,1.994,0.0,0.0,1.931,1.9199,1.8844,1.8652,0.0,0.0,0.0,0.0,0.0,0.0,0.0,0.0,0.0,0.0,0.0,0.0,0.0,0.0,0.0,0.0,0.0,0.0,0.0,0.0,0.0,0.0,0.0,0.0,0.0,0.0,0.0,0.0,0.0,0.0,0.0,0.0,0.0,0.0,0.0,0.0,0.0,0.0,0.0,0.0,0.0,0.0,0.0,0.0,0.0,0.0,0.0,0.0,0.0,0.0,0.0,0.0,0.0,0.0,0.0,1.8229,1.8402,1.7482,1.5419,1.5063,1.42,1.2678,1.2494,1.2412,0.0,0.0,0.0,0.0,0.0,0.0,0.0,0.0,0.0,0.0,0.0,0.0,0.0,0.0,0.0,0.0,0.0,0.0,0.0,0.0,0.0,0.0,0.0,0.0,0.0,0.0,0.0,0.0,0.0,0.0,0.0,0.0,0.0,0.0,0.0,0.0,0.0,0.0,0.0,0.0,0.0,2.0795,2.0478,2.003,1.9726,0.0,1.9281,1.8965,1.9089,1.8652,1.8351,1.8357,0.0,0.0,0.0,0.0,0.0,0.0,0.0,0.0,0.0,0.0,0.0,0.0,0.0,0.0,0.0,0.0,0.0,0.0,0.0,0.0,0.0,0.0,0.0,0.0,0.0,0.0,0.0,0.0,0.0,0.0,0.0,0.0,0.0,0.0,0.0,0.0,0.0,0.0,0.0,0.0,0.0,0.0,0.0,0.0,0.0,0.0,0.0,0.0,0.0,0.0,0.0,0.0,0.0,1.8218,1.8134,1.7866,1.6891,1.5234,1.4443,1.3479,1.2327,1.2205,1.2102,0.0,0.0,0.0,0.0,0.0,0.0,0.0,0.0,0.0,0.0,0.0,0.0,0.0,0.0,0.0,0.0,0.0,0.0,0.0,0.0,0.0,0.0,0.0,0.0,0.0,0.0,0.0,0.0,1.7093,1.7674,1.9048,0.0,0.0,0.0,0.0,0.0,0.0,0.0,0.0,0.0,0.0,2.0398,2.007,1.9515,0.0,0.0,1.8461,1.8027,1.7997,1.7693,1.7472,1.7615,1.7942,0.0,0.0,0.0,0.0,0.0,0.0,0.0,0.0,0.0,0.0,0.0,0.0,0.0,0.0,0.0,0.0,0.0,0.0,0.0,0.0,0.0,0.0,0.0,0.0,0.0,0.0,0.0,0.0,0.0,0.0,0.0,0.0,0.0,0.0,0.0,0.0,0.0,0.0,0.0,0.0,0.0,0.0,0.0,0.0,0.0,0.0,0.0,0.0,0.0,0.0,0.0,0.0,1.8349,1.8065,1.7446,1.6464,1.506,1.3945,1.2951,1.2054,1.1918,1.1805,0.0,0.0,0.0,0.0,0.0,0.0,0.0,0.0,0.0,0.0,0.0,0.0,0.0,0.0,0.0,0.0,0.0,0.0,0.0,0.0,0.0,0.0,0.0,0.0,0.0,0.0,0.0,0.0,1.6633,1.7359,1.9037,0.0,0.0,0.0,0.0,0.0,0.0,0.0,0.0,0.0,0.0,2.0019,1.9681,1.9147,1.8731,1.8592,1.7962,1.7464,1.7383,1.7042,1.6905,1.7275,0.0,0.0,0.0,0.0,0.0,0.0,0.0,0.0,0.0,0.0,0.0,0.0,0.0,0.0,0.0,0.0,0.0,0.0,0.0,0.0,0.0,0.0,0.0,0.0,0.0,0.0,0.0,1.3941,0.0,0.0,1.3693,0.0,0.0,0.0,0.0,0.0,0.0,0.0,0.0,0.0,0.0,0.0,0.0,0.0,0.0,0.0,0.0,0.0,0.0,0.0,0.0,0.0,0.0,1.8778,1.8017,1.7224,1.6152,1.4834,1.3695,1.2681,1.1856,1.1681,1.1579,1.1505,0.0,0.0,0.0,0.0,0.0,0.0,0.0,0.0,0.0,0.0,0.0,0.0,0.0,0.0,0.0,0.0,0.0,0.0,0.0,0.0,0.0,0.0,0.0,0.0,0.0,0.0,1.5996,1.6328,1.7105,0.0,0.0,0.0,0.0,0.0,0.0,0.0,0.0,0.0,0.0,2.007,1.9681,1.9281,1.8959,1.8707,1.85,1.7908,1.7477,1.745,1.6918,1.6804,0.0,0.0,0.0,0.0,0.0,0.0,0.0,0.0,0.0,0.0,0.0,0.0,0.0,0.0,0.0,0.0,0.0,0.0,0.0,0.0,0.0,0.0,0.0,0.0,0.0,0.0,0.0,1.3618,1.3621,0.0,0.0,0.0,0.0,0.0,0.0,0.0,0.0,0.0,0.0,0.0,1.8872,1.9231,0.0,0.0,0.0,0.0,0.0,0.0,0.0,0.0,0.0,0.0,0.0,0.0,1.9457,1.8568,1.6905,1.5623,1.4658,1.3118,1.2088,1.1601,1.1549,1.1626,1.1808,0.0,0.0,0.0,0.0,0.0,0.0,0.0,0.0,0.0,0.0,0.0,0.0,0.0,0.0,0.0,0.0,0.0,0.0,0.0,0.0,0.0,0.0,0.0,0.0,0.0,1.5209,0.0,0.0,0.0,0.0,0.0,0.0,0.0,0.0,0.0,0.0,0.0,2.0491,1.9889,1.9515,1.9199,1.8784,1.8266,1.7868,0.0,0.0,0.0,0.0,0.0,0.0,0.0,0.0,0.0,0.0,0.0,0.0,0.0,0.0,1.8422,1.8324,1.8151,1.8222,1.8694,0.0,0.0,0.0,0.0,0.0,0.0,0.0,0.0,0.0,0.0,0.0,0.0,0.0,0.0,1.2541,0.0,1.3197,0.0,0.0,0.0,0.0,0.0,0.0,0.0,0.0,1.7306,1.7969,1.8767,1.9084,1.97,0.0,2.0879,2.0817,0.0,0.0,0.0,0.0,0.0,0.0,0.0,0.0,1.9723,1.8651,1.703,1.5616,1.4452,1.2917,1.1896,1.1458,1.1324,1.1561,1.2111,1.1979,1.2251,0.0,0.0,0.0,0.0,0.0,0.0,0.0,0.0,0.0,0.0,0.0,0.0,0.0,0.0,0.0,0.0,0.0,0.0,0.0,0.0,0.0,0.0,0.0,1.515,0.0,0.0,0.0,0.0,0.0,0.0,0.0,0.0,0.0,2.0819,2.0477,2.0065,1.9745,1.9142,1.8616,1.8293,0.0,0.0,0.0,0.0,0.0,0.0,0.0,1.655,1.6775,1.7208,1.762,1.788,1.7982,1.7984,1.7831,0.0,0.0,1.7659,1.7615,1.7652,1.8061,1.8135,1.816,1.8289,1.7889,1.744,0.0,0.0,0.0,0.0,0.0,0.0,0.0,0.0,1.065,1.0985,0.0,1.1909,0.0,0.0,0.0,0.0,0.0,1.5737,0.0,0.0,1.7408,1.8145,1.8394,1.8688,1.9051,1.9471,1.9834,2.0215,2.0715,2.0649,0.0,0.0,0.0,0.0,0.0,0.0,1.9621,1.8274,1.7427,1.6102,1.4245,1.3062,1.2071,1.1336,1.1038,1.1349,1.2345,1.237,1.2787,1.3637,1.3187,0.0,0.0,0.0,0.0,0.0,0.0,0.0,0.0,0.0,0.0,0.0,0.0,0.0,0.0,0.0,0.0,0.0,0.0,0.0,0.0,1.5108,0.0,0.0,0.0,0.0,0.0,0.0,0.0,0.0,0.0,0.0,2.0902,2.0088,1.9556,1.9864,0.0,0.0,0.0,0.0,1.7115,1.6918,1.6761,1.662,1.6441,1.5957,1.5963,1.6917,0.0,0.0,1.765,1.76,1.7379,1.719,1.6853,1.6797,1.7468,1.7654,1.7677,1.7578,1.7465,1.7402,1.7155,1.6783,1.6454,0.6076,0.0,0.0,0.0,0.0,0.9191,0.9241,0.9283,0.9283,0.955,0.9998,0.9886,0.0,0.0,0.0,0.0,0.0,0.0,1.5235,1.5247,1.5893,1.6341,1.6751,1.722,1.7853,1.8521,1.9037,1.9492,1.9874,2.0211,2.0575,2.0947,0.0,0.0,0.0,0.0,1.9854,1.8854,1.6826,1.5247,1.4199,1.2558,1.152,1.1155,1.1005,1.1362,1.2343,1.2168,1.2498,1.3517,1.3146,0.0,0.0,0.0,0.0,0.0,0.0,0.0,0.0,0.0,0.0,0.0,0.0,0.0,0.0,0.0,0.0,0.0,0.0,0.0,1.331,1.4158,1.4723,0.0,0.0,0.0,0.0,0.0,0.0,0.0,0.0,0.0,2.0005,1.965,1.9154,0.0,0.0,1.7774,1.7393,1.706,1.6808,1.665,1.6522,0.0,1.6411,1.6191,1.6045,1.6135,1.5829,1.5741,1.6342,1.6362,1.6314,1.6574,1.641,1.6343,1.6492,1.6131,1.5786,1.5658,1.5182,1.4665,1.4402,1.4176,1.3894,0.4047,0.5282,0.6478,0.7351,0.7988,0.7982,0.7988,0.81,0.8047,0.832,0.8616,0.8366,0.8587,0.9232,0.9778,0.0,0.0,0.0,1.3465,1.3928,1.4334,1.4982,1.5736,1.6127,1.6735,1.7612,1.8157,1.865,1.908,1.9767,2.0342,2.0844,0.0,0.0,2.1509,2.0411,1.9509,1.8818,1.6521,1.4879,1.4004,1.2232,1.1141,1.0873,1.0839,1.1236,1.21,1.1978,1.2296,1.3123,1.2965,1.299,0.0,0.0,0.0,0.0,0.0,0.0,0.0,0.0,0.0,0.0,0.0,1.3154,1.2902,0.0,0.0,0.0,1.2427,1.2564,1.3058,1.3815,0.0,0.0,0.0,0.0,0.0,0.0,0.0,1.8055,1.7979,1.8218,1.9154,1.8893,1.8589,1.8507,1.78,1.7227,1.6934,0.0,1.6423,1.6436,1.6436,1.6312,1.6114,1.5903,1.5648,1.527,1.5164,1.5206,1.5489,1.5465,1.5515,1.5632,1.5593,1.5472,1.5351,1.4705,1.4324,1.4533,1.4015,1.3411,1.2989,1.2805,1.2622,0.2832,0.3003,0.4634,0.5896,0.674,0.6745,0.6804,0.6918,0.6918,0.7128,0.7385,0.7138,0.7499,0.8338,0.8989,0.0,1.0038,1.058,1.1338,1.2299,1.2916,1.385,1.5093,1.5159,1.57,1.6667,1.7175,1.776,1.8419,1.9339,1.9839,1.9955,2.0423,2.0777,2.1039,1.9715,1.8792,1.8361,1.6413,1.4814,1.3572,1.1966,1.0952,1.0523,1.0686,1.1057,1.1661,1.1882,1.2191,1.2672,1.2768,1.3018,1.3476,0.0,0.0,0.0,0.0,0.0,0.0,0.0,0.0,0.0,0.0,0.0,0.0,0.0,0.0,0.0,1.2265,0.0,1.3189,1.3774,0.0,0.0,0.0,1.5858,1.5513,1.6312,1.703,1.7321,0.0,0.0,1.8293,1.7923,1.7862,1.8545,1.7372,1.6479,1.6479,1.6207,1.6088,1.6349,1.6392,1.6232,1.5844,1.5443,1.4967,1.4395,1.4614,1.4852,1.4925,1.4935,1.4831,1.4722,1.4619,1.4533,1.4204,1.3747,1.3367,1.3876,1.3596,1.3141,1.2389,1.2159,1.2015,0.2151,0.2737,0.354,0.4456,0.5386,0.5386,0.5445,0.5563,0.5563,0.5937,0.6475,0.5991,0.6095,0.6784,0.7026,0.7606,0.8515,0.9452,1.0069,1.0375,1.1679,1.2311,1.2388,1.3171,1.415,1.5272,1.5807,1.6844,1.8291,1.9169,1.9566,1.956,1.9854,2.0189,2.0514,1.9023,1.8173,1.8004,1.5787,1.3919,1.2368,1.179,1.1166,1.0536,1.1077,1.1495,1.1712,1.2285,1.2634,1.2696,1.2709,1.2804,1.29,1.2686,0.0,0.0,0.0,0.0,0.0,0.0,0.0,0.0,0.0,1.2798,1.2257,0.0,1.2405,0.0,1.1535,1.1547,1.1724,1.2236,0.0,0.0,1.3979,1.4236,1.4398,1.4902,1.5461,1.5852,1.6283,1.6731,1.7146,1.6957,1.6857,1.7004,1.6769,1.6436,1.6275,1.6132,1.6044,1.6231,1.6275,1.625,1.6201,1.5588,1.4763,1.3893,1.389,1.4055,1.4407,1.4368,1.442,1.4633,1.4576,1.4427,1.4291,1.3812,1.3168,1.2565,1.1997,1.137,1.0787,1.0501,1.0294,0.1785,0.2278,0.2749,0.3302,0.3893,0.4402,0.4625,0.468,0.4849,0.5234,0.5782,0.5458,0.5403,0.5559,0.5819,0.6519,0.754,0.79,0.8639,0.9636,1.0124,1.0734,1.1425,1.1889,1.2775,1.3994,1.4794,1.5837,1.7183,1.8331,1.8945,1.9049,1.942,1.9711,1.9758,1.8395,1.7702,1.7719,1.5418,1.3613,1.2343,1.2088,1.1697,1.1216,1.1629,1.1913,1.205,1.248,1.2741,1.2743,1.2745,1.2888,1.3307,1.2938,1.2852,0.0,0.0,0.0,0.0,0.0,0.0,0.0,0.0,0.0,0.0,0.0,1.1741,1.0908,1.0657,1.0753,1.1301,1.1595,1.2081,1.2861,1.336,1.3644,1.3467,1.4279,1.498,1.5264,1.584,1.6386,1.6795,1.6655,1.6384,1.6195,1.5947,1.5905,1.6008,1.5969,1.5957,1.61,1.6144,1.61,1.5944,1.5257,1.4504,1.3805,1.361,1.3714,1.3952,1.3895,1.3879,1.4013,1.3942,1.3799,1.3748,1.3494,1.2856,1.1929,1.1507,1.1069,1.0083,0.9746,0.9614,0.1594,0.1748,0.2249,0.2503,0.2624,0.3604,0.4078,0.4123,0.446,0.4805,0.521,0.523,0.5077,0.4798,0.5077,0.5841,0.6815,0.6485,0.7368,0.9165,0.8733,0.9432,1.1028,1.0967,1.1624,1.2885,1.3882,1.4845,1.5843,1.7289,1.8207,1.8539,1.9064,1.9228,1.8968,1.7859,1.725,1.7287,1.5179,1.3685,1.2955,1.2619,1.2335,1.202,1.2219,1.2376,1.2507,1.2691,1.2864,1.2911,1.2913,1.3273,1.4047,1.3514,1.3391,0.0,1.3202,0.0,0.0,0.0,0.0,0.0,0.0,0.0,0.0,1.1431,1.0657,0.9978,0.9798,1.0194,1.1276,1.1368,1.1619,1.2234,1.3043,1.3352,1.2929,1.4077,1.4931,1.5107,1.5621,1.6232,1.6663,1.6516,1.6108,1.5666,1.5232,1.5133,1.55,1.5572,1.5615,1.5867,1.6051,1.5952,1.5285,1.4786,1.4333,1.3842,1.3658,1.361,1.3631,1.3536,1.3382,1.3248,1.3212,1.3066,1.2939,1.291,1.2539,1.1595,1.1775,1.1489,1.0074,0.9732,0.9666,0.1867,0.178,0.2594,0.2786,0.2469,0.2958,0.3329,0.3637,0.3948,0.4275,0.4661,0.4743,0.4967,0.5132,0.4912,0.5128,0.5681,0.6544,0.7025,0.7195,0.8792,0.9416,0.9363,1.0074,1.1113,1.2309,1.28,1.4065,1.6204,1.7104,1.7803,1.8293,1.876,1.8889,1.8563,0.0,0.0,0.0,1.498,1.4226,1.3566,1.3125,1.2584,1.2033,1.2658,0.0,1.2558,1.345,1.3808,1.3484,1.379,0.0,0.0,0.0,0.0,0.0,0.0,0.0,0.0,0.0,0.0,0.0,1.226,1.2104,1.2064,1.1299,1.0442,0.9585,0.9375,0.968,1.0482,1.0626,1.1032,1.2026,1.2289,1.2487,1.2774,1.3443,1.4026,1.4523,1.5074,1.5517,1.5756,1.5435,1.5204,1.5137,1.4752,1.4494,1.4566,1.4614,1.48,1.5259,1.5782,1.5807,1.501,1.4801,1.4653,1.4302,1.3873,1.3658,1.3621,1.3515,1.3362,1.3208,1.3152,1.3036,1.2939,1.2891,1.2686,1.2026,1.2009,1.1591,0.9991,0.9925,1.0138,0.169,0.1617,0.2305,0.2472,0.0,0.2753,0.3034,0.3278,0.3755,0.4253,0.4819,0.4854,0.5213,0.5723,0.5504,0.5774,0.6428,0.6949,0.7337,0.7634,0.8471,0.9048,0.9427,0.9795,1.0625,1.1866,1.24,1.3471,1.5069,1.6344,1.7172,1.7603,1.8349,1.8659,1.8553,1.7534,1.6426,1.5327,1.4825,1.4408,1.4087,1.356,1.3173,1.2925,1.3545,0.0,0.0,0.0,0.0,0.0,0.0,0.0,0.0,0.0,0.0,1.381,1.3566,1.3257,1.2812,1.2492,1.2397,1.251,1.2274,1.1868,1.1301,1.082,1.0162,0.9218,0.9295,0.9688,1.0312,1.0677,1.12,1.1977,1.2076,1.2314,1.2774,1.3266,1.38,1.4337,1.4925,1.5335,1.539,1.5127,1.4805,1.4569,1.4347,1.4049,1.3852,1.4079,1.445,1.476,1.5057,1.5176,1.4857,1.4786,1.4812,1.4534,1.4428,1.4208,1.3931,1.3794,1.36,1.3266,1.3094,1.2978,1.2939,1.2891,1.2725,1.2283,1.232,1.204,1.0744,1.06,1.0744,0.1484,0.1489,0.1966,0.2151,0.2253,0.2695,0.3014,0.3185,0.0,0.0,0.0,0.5019,0.5423,0.6042,0.6095,0.6524,0.7366,0.7398,0.7749,0.8475,0.8268,0.8802,0.9906,0.9784,1.0321,1.1415,1.2219,1.3038,1.3914,1.549,1.6527,1.7101,1.7943,1.8331,1.8328,1.7519,1.6474,1.5355,1.478,1.4501,1.4501,1.4,1.3762,1.3775,1.431,1.4505,1.4341,1.4765,1.4937,1.47,1.4599,1.472,1.5004,1.4869,1.4677,1.4398,1.4082,1.3668,1.3123,1.2832,1.2578,1.2431,1.2224,1.1669,1.0626,1.0533,1.0131,0.9166,0.9496,0.9987,1.0517,1.0998,1.1578,1.2166,1.2215,1.2452,1.3016,1.3457,1.3952,1.4466,1.496,1.5244,1.5227,1.4917,1.4597,1.4211,1.3976,1.3722,1.3398,1.3816,1.4165,1.4079,1.4293,1.4477,1.4497,1.4654,1.4716,1.472,1.4857,1.4891,1.443,1.4197,1.3884,1.3505,1.319,1.2968,1.2929,1.2929,1.2783,1.2323,1.2588,1.2627,1.176,1.151,1.146,0.1748,0.1678,0.2153,0.2407,0.2539,0.2623,0.3107,0.3803,0.4168,0.4266,0.4201,0.4632,0.5101,0.562,0.562,0.609,0.6929,0.741,0.7776,0.8032,0.8838,0.9182,0.9174,0.9872,1.0457,1.1029,1.1892,1.2938,1.4047,1.4959,1.6014,1.7129,1.7576,1.7537,1.7177,1.6978,1.6393,1.5312,1.5043,1.4783,1.4501,1.4305,1.4072,1.3834,1.431,1.4646,1.4721,1.5274,1.5621,1.5701,1.5611,1.562,1.5644,1.5252,1.4823,1.4351,1.3884,1.343,1.2978,1.2676,1.2421,1.2175,1.2126,1.1819,1.1267,1.1175,1.0869,1.0226,1.0246,1.0509,1.1108,1.1267,1.171,1.253,1.2667,1.3064,1.3988,1.4186,1.4466,1.4926,1.5062,1.5115,1.5022,1.4452,1.4108,1.4113,1.3783,1.3261,1.3389,1.3686,1.3667,1.3253,1.3741,1.4083,1.3951,1.4198,1.4502,1.4664,1.4845,1.4959,1.4796,1.4563,1.4305,1.4082,1.36,1.3238,1.3113,1.2978,1.2929,1.2832,1.292,1.2774,1.252,1.2559,1.2295,0.2319,0.2415,0.2802,0.319,0.3468,0.3752,0.4228,0.4879,0.5065,0.4943,0.4684,0.5189,0.5768,0.6353,0.6594,0.699,0.7564,0.828,0.8715,0.8832,0.9266,0.9627,0.994,1.0175,1.0484,1.0956,1.2015,1.2789,1.3416,1.4708,1.571,1.6332,1.6916,1.6951,1.6455,1.6465,1.6117,1.5297,1.5041,1.4766,1.4501,1.4259,1.4159,1.4219,1.4768,1.5201,1.5464,1.5909,1.6103,1.6061,1.5879,1.5792,1.5792,1.5582,1.5256,1.4751,1.4255,1.3752,1.3296,1.2764,1.2421,1.2332,1.2184,1.2026,1.1778,1.1451,1.104,1.0466,1.0687,1.0998,1.1309,1.1801,1.2286,1.2774,1.3064,1.3552,1.4233,1.443,1.4651,1.5232,1.5119,1.5,1.5133,1.4367,1.3865,1.3972,1.3709,1.3648,1.3782,1.3978,1.3822,1.2994,1.3287,1.3617,1.3582,1.3797,1.4215,1.4759,1.5085,1.5207,1.5171,1.4946,1.4812,1.4525,1.4143,1.3956,1.3931,1.3618,1.3484,1.344,1.3113,1.2978,1.2968,1.2763,1.2416,0.3033,0.312,0.3483,0.3908,0.4294,0.4804,0.5303,0.5813,0.6033,0.5968,0.5816,0.5967,0.6441,0.7226,0.7544,0.7968,0.8476,0.9139,0.9559,0.9714,0.9655,0.9919,1.0366,1.0332,1.0519,1.0912,1.1983,1.2623,1.2983,1.4346,1.5291,1.5702,1.6531,1.6666,1.6114,1.6213,1.597,1.5342,1.5072,1.4913,1.4822,1.4637,1.4681,1.4924,1.5419,1.5853,1.6178,1.6376,1.6479,1.6405,1.6013,1.5792,1.5792,1.5691,1.5471,1.5085,1.4581,1.4071,1.3563,1.2997,1.2618,1.248,1.2224,1.2076,1.2067,1.1823,1.139,1.0965,1.1306,1.1644,1.1783,1.2433,1.3016,1.315,1.3402,1.3761,1.429,1.4304,1.444,1.506,1.4838,1.4693,1.4817,1.4319,1.3809,1.3791,1.3963,1.4157,1.4208,1.4319,1.398,1.331,1.3138,1.3355,1.3426,1.363,1.398,1.4624,1.4982,1.5089,1.5049,1.5081,1.497,1.4528,1.4272,1.4216,1.4406,1.4165,1.3958,1.4014,1.3657,1.316,1.3042,1.2736,1.2387,0.3896,0.37,0.4034,0.4266,0.4623,0.5218,0.5739,0.6216,0.6939,0.7377,0.7349,0.6647,0.68,0.7553,0.7701,0.8346,0.9372,0.9563,0.9781,1.0019,1.0047,0.9873,0.9651,1.0188,1.0484,1.065,1.1597,1.243,1.3044,1.3605,1.4612,1.6137,1.6851,1.6892,1.6494,1.6437,1.6111,1.5418,1.5359,1.5514,1.5855,1.6123,1.6178,1.5969,1.6201,1.6507,1.6804,1.6638,1.668,1.6989,1.625,1.5792,1.5792,1.5435,1.5141,1.5115,1.4607,1.4025,1.3505,1.3266,1.289,1.2372,1.2206,1.2098,1.2107,1.2438,1.2457,1.208,1.2358,1.2541,1.2696,1.312,1.3564,1.3886,1.3779,1.3784,1.4179,1.3975,1.3813,1.4099,1.4222,1.4149,1.4262,1.3948,1.3715,1.3702,1.4047,1.4278,1.4195,1.4433,1.4479,1.3835,1.3669,1.3544,1.3386,1.3652,1.3803,1.3791,1.4146,1.4474,1.4542,1.4418,1.4122,1.4352,1.3822,1.3772,1.4057,1.4015,1.4074,1.4383,1.4138,1.364,1.32,1.287,1.2552,0.4979,0.4726,0.5048,0.5551,0.6139,0.6664,0.7048,0.7453,0.7799,0.8185,0.8431,0.8047,0.7964,0.8095,0.8578,0.9133,0.96,0.9801,1.0189,1.0543,1.0014,0.9881,1.0128,1.0221,1.0368,1.0516,1.1414,1.2048,1.2512,1.3445,1.4645,1.5816,1.6078,1.6079,1.5965,1.5875,1.5698,1.5403,1.586,1.6214,1.6264,1.5891,1.574,1.5806,1.5815,1.6055,1.6454,1.6573,1.6636,1.6783,1.6418,1.6237,1.6203,1.5751,1.5534,1.5463,1.5062,1.4547,1.3978,1.3779,1.3429,1.2856,1.2639,1.2422,1.2139,1.2261,1.2299,1.2219,1.2549,1.2699,1.2489,1.2837,1.3236,1.3434,1.3539,1.3682,1.3861,1.3883,1.3945,1.4225,1.4177,1.4162,1.4254,1.4029,1.3819,1.3815,1.4084,1.4181,1.4278,1.4483,1.4515,1.4401,1.4337,1.4019,1.3459,1.3358,1.3496,1.3576,1.3705,1.3961,1.425,1.4305,1.4289,1.4304,1.4034,1.4042,1.453,1.4232,1.4127,1.4488,1.4367,1.3746,1.2847,1.2622,1.2345,0.5926,0.5609,0.5909,0.6566,0.7402,0.7843,0.8189,0.8537,0.8716,0.9039,0.9328,0.9487,0.9257,0.8923,0.9376,0.9686,0.9896,1.0036,1.0304,1.064,0.9992,0.9915,1.0364,1.0328,1.0335,1.055,1.1289,1.1928,1.2451,1.3866,1.5035,1.5694,1.5682,1.5609,1.5623,1.5566,1.5507,1.5492,1.6054,1.6337,1.6277,1.5698,1.554,1.5981,1.5763,1.5848,1.631,1.6507,1.6598,1.6664,1.6667,1.6609,1.649,1.6154,1.5925,1.5792,1.5468,1.5062,1.4525,1.4294,1.3914,1.3271,1.3045,1.2756,1.2303,1.2361,1.2361,1.2162,1.2548,1.2663,1.2425,1.2753,1.2993,1.3023,1.3356,1.3506,1.3535,1.3639,1.3795,1.4112,1.3939,1.4044,1.4245,1.4023,1.3841,1.3914,1.3967,1.4098,1.4388,1.4483,1.4564,1.4763,1.4777,1.4428,1.3651,1.3583,1.3557,1.3483,1.3641,1.3772,1.4063,1.4161,1.4174,1.3964,1.4175,1.4348,1.4398,1.4205,1.4064,1.447,1.4352,1.379,1.2919,1.2666,1.2505,0.6658,0.594,0.6357,0.7107,0.7839,0.8366,0.8751,0.9044,0.9767,1.0176,1.0176,1.0512,1.047,0.9902,0.9646,0.9918,1.0516,1.0222,1.0094,1.0214,1.012,1.002,0.9943,1.0235,1.0496,1.0748,1.1263,1.2269,1.3684,1.4949,1.5781,1.6052,1.6067,1.5955,1.5754,1.5812,1.5741,1.5566,1.5699,1.5742,1.5845,1.5872,1.6218,1.6822,1.6445,1.6243,1.6564,1.662,1.6663,1.6856,1.7062,1.6982,1.6585,1.6492,1.6231,1.5881,1.5792,1.557,1.5096,1.4812,1.4293,1.3438,1.3468,1.3129,1.2292,1.2839,1.2938,1.217,1.257,1.2793,1.2762,1.3033,1.3374,1.3403,1.3334,1.3314,1.3305,1.318,1.3124,1.3393,1.3534,1.3659,1.3833,1.3801,1.3808,1.3828,1.3914,1.4111,1.4287,1.4433,1.4624,1.4732,1.4777,1.4658,1.4332,1.4082,1.3967,1.3788,1.3655,1.3726,1.3654,1.3646,1.3655,1.3625,1.3661,1.3803,1.4031,1.4086,1.4063,1.4175,1.4212,1.3717,1.3107,1.3078,1.2945,0.7623,0.7754,0.8253,0.8822,0.9372,0.952,0.9606,0.9713,0.9705,0.9727,0.9727,0.9868,0.995,1.001,0.9669,0.9842,1.0399,1.0398,1.0483,1.0641,1.0411,1.0379,1.0561,1.0667,1.1118,1.1706,1.1971,1.2937,1.448,1.5114,1.5637,1.62,1.6289,1.6191,1.6037,1.5968,1.5926,1.5826,1.5755,1.577,1.5856,1.59,1.6112,1.6428,1.5968,1.5762,1.5857,1.6369,1.6711,1.6784,1.7273,1.753,1.7286,1.6824,1.643,1.6231,1.5957,1.5691,1.557,1.5424,1.4873,1.3891,1.3981,1.3543,1.2529,1.272,1.2849,1.2336,1.2425,1.2613,1.2591,1.2655,1.2704,1.2857,1.2839,1.2914,1.301,1.3146,1.3288,1.3391,1.3539,1.3687,1.3741,1.3808,1.3775,1.3821,1.4078,1.4259,1.4351,1.456,1.4794,1.4794,1.4822,1.4896,1.5222,1.4598,1.417,1.3868,1.3723,1.3807,1.3813,1.3861,1.3881,1.3974,1.3782,1.3713,1.4089,1.4098,1.4062,1.3801,1.3829,1.39,1.3298,1.3361,1.3267,0.8638,0.9391,0.9633,0.9915,1.0195,1.0144,1.0016,0.9887,0.968,0.9611,0.9611,0.9754,0.9896,0.9964,0.9942,0.9997,1.0202,1.0346,1.0499,1.0701,1.0494,1.0594,1.0914,1.1104,1.1615,1.2414,1.3035,1.4001,1.516,1.5531,1.5941,1.6448,1.6463,1.6382,1.6246,1.608,1.5996,1.5996,1.5885,1.5842,1.5885,1.5913,1.5998,1.6039,1.5755,1.5551,1.5566,1.6369,1.6817,1.6902,1.7602,1.7947,1.7745,1.7107,1.6748,1.668,1.6436,1.6262,1.6194,1.5842,1.5242,1.4341,1.4223,1.3675,1.2468,1.2753,1.271,1.2446,1.2461,1.2613,1.252,1.2413,1.2437,1.2615,1.272,1.2861,1.3047,1.3357,1.3506,1.3573,1.3674,1.3775,1.3808,1.3908,1.3941,1.3987,1.4305,1.4483,1.4592,1.4868,1.525,1.5324,1.5581,1.5823,1.5978,1.5598,1.5354,1.5053,1.4196,1.4151,1.42,1.4192,1.4181,1.4259,1.4208,1.4059,1.4026,1.4072,1.3925,1.3612,1.3817,1.4036,1.3739,1.3607,1.3594,0.9717,1.0545,1.0334,1.0214,1.022,1.0102,0.9836,0.9599,0.9766,0.9873,0.9936,1.0387,1.0251,1.0085,1.0399,1.0462,1.0134,1.0134,1.0238,1.0352,1.0422,1.0632,1.1007,1.1515,1.2077,1.2721,1.4252,1.5216,1.5666,1.6289,1.6638,1.6607,1.6623,1.6543,1.6328,1.6176,1.608,1.608,1.5955,1.5856,1.59,1.5955,1.6039,1.6067,1.6015,1.5975,1.5975,1.6629,1.6996,1.7104,1.7955,1.824,1.7894,1.7424,1.7223,1.7175,1.7157,1.7157,1.7021,1.6182,1.5496,1.4881,1.4281,1.3738,1.3048,1.3071,1.3058,1.2637,1.2721,1.2838,1.265,1.2779,1.2908,1.2918,1.3138,1.3323,1.3425,1.3641,1.3775,1.3775,1.3808,1.3821,1.3888,1.4105,1.43,1.4351,1.4606,1.4873,1.498,1.5307,1.5845,1.6303,1.6437,1.6492,1.6605,1.6671,1.6627,1.6417,1.5324,1.4738,1.4859,1.4882,1.4669,1.4669,1.4465,1.4351,1.4324,1.4332,1.4232,1.4071,1.4243,1.4245,1.4126,1.3993,1.4092,1.0408,1.104,1.0654,1.0654,1.082,1.0189,0.9821,0.9716,0.9573,0.9586,0.9812,0.9925,0.9994,1.009,1.038,1.0443,1.0349,1.0869,1.1048,1.0773,1.0839,1.1169,1.1629,1.1852,1.2682,1.4087,1.5448,1.6239,1.6409,1.6677,1.6779,1.6712,1.6898,1.6873,1.6659,1.6633,1.6575,1.6369,1.6215,1.6095,1.6,1.6011,1.6095,1.6212,1.6539,1.6799,1.6815,1.7092,1.719,1.7058,1.8127,1.862,1.8291,1.7873,1.761,1.7598,1.7352,1.7212,1.7186,1.6892,1.634,1.5823,1.5284,1.4563,1.3751,1.3513,1.3235,1.2901,1.305,1.3216,1.3198,1.3357,1.3391,1.3242,1.3323,1.3493,1.3641,1.3754,1.3775,1.3821,1.402,1.4151,1.4203,1.4429,1.4637,1.4669,1.5025,1.5313,1.5237,1.5709,1.5977,1.6437,1.6684,1.7184,1.7433,1.7339,1.7058,1.6817,1.6007,1.537,1.5504,1.5355,1.5145,1.4963,1.4763,1.4655,1.4627,1.4582,1.4505,1.4397,1.4369,1.4365,1.4332,1.4365,1.4461,1.0908,1.1108,1.0915,1.0865,1.0967,1.0285,1.0006,0.9889,0.9605,0.9619,0.984,0.9892,0.9982,1.0212,1.0634,1.0841,1.0959,1.1837,1.2064,1.1755,1.1777,1.2026,1.2444,1.2891,1.3786,1.5247,1.6244,1.6712,1.6789,1.6882,1.6924,1.6924,1.7133,1.7108,1.6866,1.6876,1.6777,1.6554,1.647,1.6464,1.6455,1.633,1.6342,1.6578,1.6978,1.7039,1.6887,1.7378,1.7622,1.7664,1.8344,1.863,1.8478,1.8221,1.8037,1.8014,1.7855,1.7693,1.7639,1.7303,1.6983,1.6468,1.5865,1.5338,1.4782,1.4437,1.4136,1.3937,1.3941,1.3917,1.3766,1.3731,1.3734,1.356,1.356,1.3641,1.3788,1.3921,1.3974,1.4086,1.43,1.4461,1.4556,1.4763,1.498,1.5056,1.5578,1.6025,1.5994,1.6547,1.6936,1.7296,1.7608,1.8059,1.8395,1.8057,1.7517,1.7061,1.6502,1.6203,1.6113,1.5684,1.5389,1.5208,1.5025,1.498,1.4966,1.4873,1.4811,1.4704,1.4613,1.4735,1.4808,1.4763,1.4839,1.1219,1.0962,1.1069,1.087,1.055,1.0432,1.022,0.9942,0.9905,0.997,1.011,1.0314,1.0365,1.0532,1.1332,1.1693,1.1869,1.2607,1.3105,1.3104,1.3173,1.3259,1.3324,1.4261,1.5251,1.6126,1.6644,1.6815,1.6882,1.7041,1.7215,1.7183,1.7248,1.7199,1.7018,1.6952,1.6901,1.6716,1.6706,1.695,1.7379,1.6952,1.6912,1.7376,1.7516,1.7331,1.7024,1.7807,1.8359,1.839,1.8507,1.8584,1.8492,1.8478,1.8464,1.8425,1.8478,1.84,1.8274,1.771,1.7227,1.7106,1.6264,1.561,1.5872,1.5644,1.5359,1.5221,1.5091,1.4799,1.4404,1.4068,1.3931,1.3907,1.3894,1.3888,1.3874,1.417,1.4314,1.4378,1.4602,1.4808,1.4868,1.516,1.5414,1.5608,1.6233,1.6668,1.7,1.7468,1.8455,1.8546,1.818,1.821,1.8318,1.8326,1.7807,1.7402,1.6949,1.673,1.6401,1.5916,1.558,1.5433,1.5298,1.5268,1.5238,1.5117,1.5086,1.5072,1.5102,1.5268,1.5238,1.5117,1.5056,1.1219,1.1081,1.0814,1.0632,1.0535,1.0214,1.0108,1.0122,1.0122,1.0351,1.0603,1.1039,1.1317,1.1603,1.2288,1.2661,1.2869,1.3417,1.3926,1.4249,1.4673,1.4667,1.4719,1.5507,1.6164,1.6485,1.6821,1.7016,1.7041,1.7149,1.7224,1.7273,1.7346,1.7371,1.7338,1.7321,1.7206,1.7011,1.7085,1.7535,1.812,1.8136,1.8296,1.8701,1.9194,1.9071,1.8577,1.904,1.9011,1.8464,1.8674,1.8694,1.8545,1.8517,1.8517,1.8478,1.8478,1.8478,1.845,1.8232,1.8096,1.8015,1.7142,1.6702,1.6889,1.6275,1.5952,1.5854,1.5738,1.5575,1.5333,1.48,1.4602,1.4782,1.4587,1.4395,1.4543,1.4606,1.4679,1.4703,1.5046,1.5246,1.541,1.5797,1.6216,1.6352,1.6653,1.7106,1.7379,1.7304,1.7792,1.8067,1.7945,1.8021,1.8099,1.8207,1.8075,1.7717,1.7364,1.7082,1.658,1.5966,1.5752,1.5624,1.5433,1.5344,1.5298,1.5238,1.5268,1.5298,1.5298,1.5298,1.5298,1.5208,1.5208,1.0912,1.0791,1.0575,1.0557,1.0599,1.0353,1.0493,1.0829,1.0895,1.117,1.166,1.2029,1.2274,1.249,1.3094,1.3459,1.3614,1.414,1.4631,1.5175,1.5656,1.579,1.5825,1.6307,1.6623,1.6821,1.7016,1.7149,1.7183,1.7248,1.7298,1.7346,1.7419,1.7568,1.7782,1.7574,1.7565,1.7625,1.7855,1.8362,1.9308,1.9302,1.972,2.0124,2.0441,1.998,1.9441,1.9541,1.9429,1.9105,1.9089,1.8984,1.8733,1.8659,1.863,1.8517,1.8478,1.8478,1.8478,1.8478,1.8478,1.8436,1.7879,1.7768,1.7699,1.7235,1.7019,1.7006,1.6773,1.6596,1.6349,1.5838,1.5723,1.5977,1.5764,1.5553,1.5618,1.5531,1.5581,1.5776,1.6101,1.632,1.626,1.6577,1.6683,1.6773,1.6819,1.7182,1.741,1.7119,1.707,1.7577,1.7639,1.7609,1.7562,1.7619,1.7679,1.7426,1.7448,1.721,1.6795,1.6142,1.5963,1.5811,1.5595,1.5433,1.5403,1.5358,1.5298,1.5298,1.5298,1.5298,1.5328,1.5358,1.5328,1.057,1.0248,1.0436,1.0648,1.0816,1.0838,1.1255,1.1822,1.1931,1.2287,1.2813,1.305,1.3107,1.3149,1.377,1.4155,1.4371,1.4788,1.5316,1.5877,1.6351,1.657,1.6554,1.657,1.6847,1.7124,1.7199,1.7248,1.7281,1.7346,1.7371,1.7469,1.755,1.7873,1.8112,1.7913,1.7988,1.8435,1.8575,1.9477,2.0488,2.0689,2.1055,2.1845,2.098,2.0373,1.9847,1.971,1.969,1.9914,1.9641,1.9345,1.9056,1.9003,1.8893,1.8721,1.8711,1.8673,1.8634,1.8673,1.8634,1.8644,1.8606,1.8581,1.8535,1.8412,1.8345,1.8226,1.8067,1.7709,1.7292,1.6958,1.6943,1.7146,1.7204,1.7074,1.7015,1.6684,1.6647,1.7158,1.7462,1.7574,1.7486,1.7167,1.6787,1.6894,1.7,1.7228,1.7349,1.7164,1.73,1.77,1.7532,1.7134,1.7038,1.6952,1.7018,1.6991,1.7164,1.7085,1.6939,1.6485,1.6243,1.6065,1.5896,1.574,1.5595,1.5492,1.5448,1.5492,1.5639,1.5536,1.5448,1.5463,1.5463,1.0494,1.046,1.0605,1.0998,1.1509,1.1564,1.2026,1.273,1.2784,1.295,1.319,1.3628,1.387,1.3913,1.4484,1.4948,1.5241,1.5462,1.5838,1.6496,1.6949,1.7117,1.7117,1.7041,1.7108,1.7273,1.7281,1.7281,1.7306,1.7371,1.7419,1.7517,1.807,1.8485,1.861,1.8634,1.89,1.9421,1.9192,2.0193,2.1923,2.2113,2.2524,2.3449,2.2181,2.1307,2.0973,2.0522,2.0387,2.0465,2.0326,1.9955,1.9634,1.9522,1.9411,1.9229,1.9176,1.9191,1.9191,1.9153,1.9191,1.9168,1.9116,1.9191,1.9205,1.9168,1.9168,1.9101,1.8941,1.852,1.7999,1.7748,1.7876,1.8082,1.7903,1.7996,1.8758,1.8157,1.7602,1.7605,1.7421,1.7122,1.7203,1.7118,1.6985,1.7,1.7106,1.7303,1.7227,1.7102,1.7224,1.7393,1.7145,1.6776,1.6846,1.6827,1.6918,1.6901,1.7025,1.7083,1.694,1.6795,1.6543,1.6367,1.6258,1.6065,1.5839,1.59,1.5872,1.5958,1.5957,1.5883,1.5811,1.5696,1.5653,1.0971,1.1077,1.1495,1.1966,1.2367,1.2409,1.2826,1.3444,1.3557,1.3728,1.407,1.4559,1.4747,1.4776,1.5228,1.5593,1.5922,1.6145,1.6389,1.6789,1.7117,1.7322,1.7346,1.7322,1.7298,1.7346,1.7346,1.7354,1.7403,1.7476,1.7664,1.8019,1.8517,1.9169,1.9622,1.9521,1.9824,2.0382,2.0297,2.1109,2.2841,2.3285,2.3588,2.4183,2.3186,2.229,2.1845,2.1159,2.0907,2.0893,2.0845,2.055,2.0154,2.0024,1.9878,1.9682,1.9558,1.953,1.9508,1.945,1.9391,1.9413,1.9428,1.9428,1.9428,1.9428,1.942,1.942,1.9384,1.925,1.8954,1.8903,1.9045,1.9071,1.8871,1.911,1.9556,1.8978,1.8326,1.8356,1.8175,1.7819,1.7629,1.7166,1.7,1.6983,1.6527,1.6692,1.6719,1.6594,1.6578,1.6653,1.6524,1.644,1.6589,1.6732,1.6985,1.7,1.7066,1.7083,1.7016,1.6914,1.6795,1.6623,1.6474,1.6313,1.6148,1.6225,1.624,1.6151,1.6117,1.6184,1.6172,1.6037,1.5981,1.166,1.1948,1.2617,1.3047,1.3273,1.33,1.3642,1.4199,1.4299,1.4602,1.5064,1.5463,1.5549,1.5652,1.5823,1.6105,1.6421,1.6738,1.6942,1.7,1.724,1.7378,1.7403,1.7427,1.7427,1.7419,1.7641,1.7673,1.7588,1.7786,1.8276,1.87,1.9077,1.9799,2.0675,2.061,2.0628,2.1317,2.1224,2.2,2.3505,2.4014,2.4381,2.4755,2.4102,2.3296,2.2697,2.1905,2.1311,2.1295,2.1327,2.1023,2.0685,2.0503,2.0356,2.0061,2.0001,1.998,1.994,1.9747,1.9588,1.9471,1.9545,1.9471,1.9411,1.9522,1.9626,1.9603,1.9621,1.9712,2.0054,1.9721,1.9717,1.9782,1.9828,1.9828,1.9645,1.922,1.8842,1.887,1.8308,1.7762,1.7486,1.7159,1.7038,1.6886,1.6427,1.6123,1.6194,1.6265,1.6327,1.6397,1.6402,1.6506,1.6638,1.6818,1.7023,1.7083,1.7108,1.7108,1.7108,1.7057,1.694,1.6821,1.6649,1.6528,1.6501,1.6591,1.6506,1.6331,1.6412,1.6575,1.6485,1.6328,1.6328,1.2478,1.3171,1.32,1.357,1.4138,1.4182,1.4457,1.4874,1.5198,1.5374,1.5535,1.5909,1.612,1.6176,1.6219,1.6421,1.6779,1.7084,1.7281,1.7306,1.741,1.7482,1.7465,1.7629,1.7642,1.7743,1.8152,1.8309,1.8083,1.8784,1.9127,1.9177,1.9992,2.0921,2.1145,2.1181,2.1419,2.1993,2.1883,2.2661,2.4081,2.4703,2.5059,2.5677,2.4921,2.4388,2.3856,2.2778,2.2001,2.2118,2.1601,2.1294,2.1103,2.1007,2.0863,2.0671,2.0571,2.0527,2.0494,2.0376,1.9999,1.9734,1.9817,1.9764,1.9611,1.9779,1.9873,1.9867,1.966,1.961,2.0193,1.9682,1.9421,1.9405,1.9375,1.9188,1.8711,1.8466,1.8497,1.8696,1.8074,1.7449,1.7164,1.689,1.6697,1.6563,1.6363,1.6179,1.6234,1.6289,1.6402,1.6441,1.649,1.6623,1.6769,1.6946,1.7099,1.7108,1.7133,1.7108,1.7108,1.7174,1.7083,1.6991,1.6965,1.6924,1.6914,1.6905,1.6889,1.6805,1.6908,1.6984,1.6857,1.6701,1.6743,1.3692,1.421,1.4495,1.4864,1.5246,1.5317,1.5454,1.568,1.5894,1.6006,1.6117,1.6351,1.6528,1.6581,1.6753,1.6933,1.7134,1.7329,1.7482,1.7489,1.7536,1.7559,1.7659,1.7964,1.8172,1.8581,1.9311,1.9311,1.843,1.932,1.9934,2.0297,2.0933,2.1426,2.182,2.1932,2.2139,2.2439,2.262,2.3292,2.493,2.5432,2.6279,2.6268,2.5799,2.5246,2.4794,2.3833,2.2817,2.2443,2.207,2.1697,2.1423,2.1294,2.1198,2.1086,2.1007,2.0958,2.0941,2.0745,2.0315,1.975,1.9889,1.9791,1.9603,1.9661,1.9924,1.9721,1.9572,1.9247,1.9194,1.8931,1.8777,1.8731,1.8731,1.853,1.8207,1.7884,1.7976,1.8146,1.7698,1.7167,1.6688,1.6462,1.6283,1.6194,1.6222,1.6262,1.6301,1.6436,1.6543,1.6639,1.6753,1.6924,1.7009,1.71,1.7183,1.7191,1.7158,1.7133,1.7174,1.7224,1.7248,1.7183,1.7207,1.7207,1.7174,1.7115,1.719,1.7224,1.7166,1.715,1.7125,1.7117,1.7066,1.4901,1.5202,1.5749,1.6053,1.6176,1.6231,1.627,1.634,1.6432,1.6443,1.6512,1.6763,1.6892,1.6993,1.7183,1.7394,1.7448,1.7502,1.7526,1.7639,1.7846,1.788,1.8094,1.8555,1.9082,1.935,2.0331,2.0475,1.9562,2.0187,2.0823,2.1079,2.1369,2.1795,2.2344,2.2378,2.2552,2.2829,2.3399,2.4229,2.538,2.6554,2.7299,2.7282,2.6458,2.5912,2.5747,2.4697,2.3852,2.3276,2.2818,2.2443,2.1922,2.1761,2.1681,2.1535,2.1295,2.1167,2.1103,2.0958,2.0559,1.9862,1.9862,1.9814,1.9718,1.9746,1.9758,1.94,1.9124,1.8905,1.8501,1.8115,1.8023,1.8007,1.8007,1.7915,1.7622,1.7374,1.7197,1.725,1.7136,1.6922,1.6509,1.6327,1.6237,1.6344,1.6355,1.649,1.6554,1.6712,1.6841,1.6924,1.7066,1.7257,1.7314,1.7264,1.7305,1.7305,1.724,1.7174,1.7224,1.7273,1.7298,1.7322,1.7346,1.7346,1.7338,1.7322,1.7306,1.7273,1.7306,1.7289,1.724,1.7216,1.7207,1.5682,1.6391,1.6278,1.6324,1.6448,1.6485,1.6432,1.6459,1.6686,1.6763,1.6773,1.7068,1.7256,1.7353,1.7472,1.7566,1.7589,1.7696,1.7752,1.7876,1.837,1.8745,1.8927,1.9665,1.9989,2.0235,2.102,2.0815,2.0585,2.1472,2.1788,2.166,2.2019,2.2439,2.2571,2.2605,2.2605,2.285,2.3605,2.4753,2.6057,2.6909,2.7276,2.7215,2.695,2.6702,2.6582,2.568,2.4896,2.4729,2.4017,2.3587,2.3354,2.3325,2.2899,2.2327,2.1711,2.1277,2.1214,2.0926,2.0575,2.0017,2.0194,2.0242,1.9941,2.0045,2.0055,1.9498,1.8944,1.8437,1.802,1.7622,1.7408,1.7345,1.7389,1.7096,1.68,1.722,1.7018,1.6979,1.7105,1.6825,1.6464,1.6351,1.625,1.6382,1.6528,1.667,1.6825,1.6977,1.7175,1.7281,1.7354,1.7555,1.7664,1.7568,1.7499,1.7452,1.737,1.7273,1.7298,1.7346,1.7371,1.7395,1.7443,1.7427,1.7371,1.7363,1.7338,1.7346,1.7362,1.7338,1.7289,1.7306,1.733,1.6625,1.6924,1.6847,1.6847,1.6949,1.7016,1.7,1.7,1.7125,1.7199,1.7208,1.7345,1.7448,1.7542,1.7618,1.7658,1.7765,1.8131,1.838,1.8572,1.9195,1.9651,1.9904,2.0465,2.0925,2.1214,2.1746,2.2211,2.2031,2.2081,2.2275,2.2219,2.239,2.2598,2.2738,2.2764,2.2842,2.325,2.4174,2.5355,2.6394,2.7133,2.7509,2.7526,2.7352,2.7272,2.706,2.6779,2.5913,2.5511,2.4778,2.4099,2.3358,2.2981,2.2703,2.1872,2.1536,2.1356,2.1197,2.0536,2.007,1.9763,1.9787,1.9615,1.951,1.9782,1.9701,1.8573,1.8247,1.7841,1.7462,1.7049,1.694,1.6905,1.6995,1.6921,1.6733,1.6879,1.7048,1.7046,1.7068,1.6943,1.6827,1.6821,1.6763,1.6789,1.6901,1.7027,1.7175,1.7313,1.7502,1.7704,1.7731,1.7805,1.7898,1.7902,1.7757,1.7703,1.7595,1.7489,1.7395,1.7395,1.7467,1.7491,1.7491,1.7451,1.7427,1.7403,1.7419,1.7427,1.7434,1.7386,1.7378,1.7403,1.7427,1.7306,1.7281,1.7232,1.7257,1.7338,1.7403,1.7427,1.7451,1.7505,1.7536,1.7609,1.7773,1.7853,1.7782,1.7952,1.8149,1.8132,1.875,1.9114,1.9536,2.0113,2.0597,2.0897,2.1378,2.1867,2.1975,2.2467,2.2753,2.2815,2.2816,2.2712,2.2712,2.273,2.2816,2.2919,2.3005,2.316,2.404,2.4822,2.5752,2.6553,2.6841,2.7128,2.7286,2.7408,2.7449,2.747,2.7317,2.6656,2.627,2.5882,2.528,2.4378,2.428,2.3618,2.2768,2.2225,2.1738,2.1303,2.058,1.9819,1.9706,1.9657,1.9925,1.9514,1.9609,1.9233,1.8054,1.7872,1.7396,1.6828,1.6659,1.6718,1.677,1.6853,1.6892,1.6986,1.7199,1.7296,1.7338,1.7411,1.7515,1.7441,1.7448,1.7384,1.7264,1.7313,1.7408,1.7526,1.7681,1.78,1.7992,1.8,1.8056,1.8149,1.8168,1.8072,1.7931,1.7837,1.771,1.7589,1.7559,1.7646,1.7622,1.7576,1.7582,1.7589,1.7536,1.7498,1.7474,1.7458,1.7474,1.7474,1.7498,1.7498,1.7377,1.7479,1.7353,1.7345,1.7425,1.7479,1.7526,1.7589,1.7658,1.7715,1.7906,1.8477,1.858,1.8353,1.8751,1.903,1.9007,1.9081,1.9658,2.0374,2.1042,2.151,2.1829,2.2295,2.278,2.2877,2.3049,2.3049,2.3102,2.3119,2.307,2.3052,2.3072,2.3087,2.3095,2.3161,2.3756,2.4562,2.5217,2.5694,2.6117,2.6249,2.6149,2.6676,2.6817,2.7056,2.7858,2.7601,2.7404,2.7183,2.6852,2.6437,2.5648,2.5606,2.4829,2.3545,2.2869,2.2298,2.1595,2.0994,2.1034,2.1066,2.092,2.0467,1.9857,2.0058,1.9446,1.8139,1.7931,1.763,1.7051,1.6639,1.6913,1.7036,1.7189,1.7134,1.7296,1.7532,1.7641,1.7658,1.7721,1.7828,1.7883,1.7827,1.7732,1.7618,1.767,1.776,1.7927,1.8053,1.8121,1.8222,1.8253,1.8295,1.8408,1.836,1.8255,1.8133,1.8013,1.7902,1.7788,1.7805,1.7816,1.7839,1.7816,1.78,1.7755,1.7606,1.7522,1.7498,1.7498,1.7498,1.7498,1.7498,1.7498,1.7635,1.7681,1.7658,1.7635,1.7595,1.7641,1.7704,1.7743,1.7766,1.8082,1.8574,1.9452,1.978,1.9688,1.9848,2.0096,2.0166,2.0639,2.0958,2.1433,2.2056,2.2471,2.274,2.2818,2.3095,2.3241,2.3253,2.333,2.3476,2.3567,2.388,2.3892,2.3625,2.3276,2.3265,2.3531,2.3999,2.4319,2.4828,2.5255,2.5394,2.5806,2.6056,2.6819,2.6854,2.7307,2.7885,2.7465,2.7494,2.7461,2.7105,2.6573,2.6029,2.5895,2.5022,2.3646,2.3083,2.2638,2.1881,2.1002,2.0267,2.0645,2.0629,2.0481,1.9955,1.9703,1.917,1.8383,1.8082,1.7915,1.8308,1.784,1.7619,1.7671,1.77,1.7647,1.7719,1.8036,1.7966,1.7983,1.8027,1.8087,1.8121,1.817,1.8061,1.7971,1.8018,1.8086,1.8222,1.8322,1.8365,1.8388,1.8383,1.8458,1.8544,1.8497,1.8428,1.8292,1.82,1.8101,1.8035,1.7967,1.7984,1.8023,1.8018,1.7927,1.7811,1.7622,1.7545,1.7498,1.7498,1.7498,1.7498,1.7581,1.7723,1.829,1.8346,1.8623,1.8324,1.7828,1.7878,1.7939,1.7973,1.8261,1.879,1.9596,2.0512,2.0767,2.0726,2.0987,2.1103,2.1208,2.1581,2.1972,2.24,2.281,2.3157,2.3223,2.3271,2.3383,2.3489,2.3761,2.392,2.4123,2.4244,2.4692,2.4843,2.4522,2.4314,2.4355,2.4497,2.4454,2.4234,2.4658,2.4891,2.5015,2.4986,2.5707,2.6383,2.6369,2.7048,2.762,2.7585,2.7264,2.7262,2.6954,2.6201,2.561,2.4985,2.4378,2.3566,2.3006,2.2911,2.2129,2.1356,2.0477,2.1135,2.1139,2.0709,2.0042,1.9635,1.9367,1.9022,1.8702,1.8707,1.9416,1.9048,1.8926,1.9058,1.8995,1.8932,1.8692,1.878,1.8502,1.835,1.8329,1.8322,1.8304,1.8351,1.829,1.8225,1.8246,1.827,1.8328,1.8443,1.8465,1.8487,1.8506,1.8563,1.8639,1.8642,1.8643,1.8445,1.8364,1.8344,1.8266,1.8241,1.8278,1.8395,1.833,1.8074,1.7907,1.7815,1.7642,1.7515,1.7631,1.7846,1.8054,1.8203,1.8369,1.9395,1.9543,2.0258,1.9564,1.8193,1.8143,1.8297,1.856,1.9282,2.0014,2.0775,2.1592,2.1592,2.1281,2.1864,2.2059,2.2076,2.2182,2.2505,2.3041,2.3431,2.3519,2.3659,2.3781,2.4113,2.3965,2.4397,2.4869,2.4933,2.5342,2.5811,2.6123,2.6027,2.5859,2.6075,2.668,2.6231,2.5111,2.5596,2.5398,2.5044,2.4631,2.5236,2.5955,2.5949,2.6666,2.7743,2.7564,2.7271,2.7379,2.7209,2.6615,2.5993,2.5851,2.5267,2.4259,2.4244,2.3711,2.2659,2.2398,2.2197,2.2027,2.1849,2.16,2.1162,2.0656,2.019,1.9917,1.9612,1.9662,2.0001,2.0257,2.0264,2.0233,2.0142,1.9923,1.9652,1.9524,1.9297,1.8912,1.8659,1.851,1.8493,1.8467,1.8505,1.8465,1.8485,1.8485,1.8502,1.8544,1.86,1.8601,1.8657,1.8891,1.8983,1.8912,1.8823,1.8625,1.8606,1.8694,1.8605,1.8497,1.8607,1.8771,1.8563,1.8253,1.8102,1.8002,1.8121,1.8326,1.8253,1.841,1.8617,1.8816,1.8958,2.0488,2.0506,2.0795,2.0537,1.9973,1.9926,1.9905,2.0084,2.0837,2.1419,2.1816,2.2592,2.2904,2.2785,2.2816,2.3075,2.3093,2.3151,2.3437,2.3562,2.4109,2.4347,2.4536,2.491,2.5226,2.5434,2.5746,2.5864,2.5914,2.6317,2.6662,2.6934,2.7308,2.7103,2.6417,2.6393,2.6033,2.5757,2.5919,2.5919,2.5713,2.5456,2.5721,2.6754,2.6399,2.695,2.819,2.7597,2.7417,2.7625,2.7453,2.6961,2.6611,2.6548,2.6009,2.518,2.4992,2.4988,2.4078,2.3503,2.2875,2.2669,2.2424,2.2159,2.1387,2.1116,2.095,2.0934,2.0717,2.0899,2.1507,2.1148,2.1044,2.1036,2.0882,2.0575,2.035,2.0359,2.0205,1.9685,1.931,1.8858,1.8691,1.862,1.862,1.8728,1.8746,1.8707,1.8706,1.8712,1.875,1.8732,1.8823,1.9146,1.9362,1.9523,1.961,1.9553,1.9394,1.9307,1.9164,1.9075,1.904,1.9273,1.8852,1.8426,1.868,1.8897,1.9108,1.9219,1.9135,1.8968,1.9018,1.9277,1.9527,2.1646,2.1684,2.189,2.1956,2.1864,2.1253,2.11,2.1423,2.1998,2.238,2.2763,2.333,2.3531,2.3598,2.37,2.3743,2.3761,2.405,2.4198,2.4306,2.4969,2.5285,2.5638,2.5968,2.6014,2.6363,2.664,2.6795,2.6836,2.7068,2.7487,2.7991,2.847,2.8021,2.7387,2.7224,2.6801,2.6548,2.638,2.653,2.6281,2.6204,2.6483,2.6953,2.7109,2.7313,2.7926,2.79,2.7493,2.7763,2.759,2.7115,2.6988,2.67,2.6309,2.5769,2.5625,2.5667,2.5141,2.442,2.385,2.348,2.3023,2.2581,2.2069,2.1865,2.1942,2.1934,2.1774,2.2094,2.2442,2.1992,2.2031,2.2019,2.192,2.1648,2.13,2.1308,2.1043,2.0519,1.9779,1.9321,1.8967,1.8806,1.8752,1.8895,1.902,1.9036,1.9087,1.9161,1.9343,1.9432,1.9576,2.001,2.028,2.0405,2.0455,2.043,2.0308,2.017,2.0209,2.0191,1.9975,1.9813,1.9822,1.9787,1.9717,1.9843,1.9883,1.9891,1.9898,1.9721,1.9529,1.9872,2.0341,2.296,2.3033,2.3573,2.3744,2.3485,2.2096,2.1857,2.2512,2.2548,2.298,2.3664,2.3721,2.3923,2.3912,2.3958,2.4103,2.4227,2.4809,2.5012,2.5361,2.5941,2.6204,2.6453,2.664,2.6936,2.6991,2.725,2.773,2.7739,2.8091,2.8505,2.8688,2.8785,2.8596,2.8487,2.8304,2.7747,2.7263,2.724,2.7258,2.7004,2.6731,2.7149,2.7416,2.7356,2.7616,2.8015,2.8033,2.7682,2.7585,2.7452,2.6976,2.6567,2.6243,2.62,2.6204,2.6278,2.6015,2.5997,2.5308,2.4967,2.4587,2.3993,2.3672,2.3229,2.2712,2.2706,2.277,2.2721,2.298,2.3152,2.3188,2.3229,2.3216,2.3239,2.2888,2.2446,2.2178,2.1875,2.1274,2.0365,1.9811,1.947,1.9273,1.9111,1.9541,1.9792,2.0059,2.0112,2.0076,2.0277,2.0617,2.0782,2.1057,2.1256,2.129,2.1319,2.1327,2.1337,2.1234,2.1274,2.1185,2.1023,2.095,2.1139,2.1086,2.0703,2.0483,2.0415,2.0488,2.0767,2.0598,2.0447,2.1049,2.1535,2.395,2.3968,2.4061,2.4074,2.4001,2.3541,2.3428,2.349,2.3508,2.3692,2.3951,2.4532,2.4714,2.4844,2.5394,2.5557,2.5725,2.5892,2.6045,2.641,2.6899,2.724,2.7537,2.7834,2.8132,2.8323,2.8511,2.8603,2.8699,2.9021,2.9044,2.9052,2.9021,2.9021,2.9044,2.9021,2.8507,2.8195,2.825,2.8099,2.7984,2.7875,2.813,2.8069,2.8033,2.8294,2.8385,2.85,2.8276,2.8312,2.8281,2.8076,2.8037,2.7911,2.7861,2.7666,2.7024,2.6267,2.6615,2.6183,2.5769,2.5631,2.4967,2.4213,2.3791,2.3491,2.3392,2.3302,2.333,2.3441,2.3495,2.3549,2.3607,2.3607,2.3589,2.3432,2.3038,2.2948,2.2625,2.189,2.0999,2.0532,2.0171,1.9597,1.9561,2.0118,2.0604,2.0927,2.1087,2.1053,2.1251,2.161,2.172,2.1926,2.207,2.2141,2.2186,2.2213,2.2186,2.2064,2.1792,2.1722,2.1873,2.2014,2.2159,2.1864,2.1391,2.1259,2.1228,2.1545,2.1781,2.1573,2.1488,2.1888,2.2163,2.4632,2.4613,2.4493,2.4428,2.4393,2.441,2.4284,2.4116,2.4037,2.4164,2.4606,2.5043,2.5466,2.5834,2.6258,2.646,2.6478,2.6848,2.7053,2.7255,2.7864,2.818,2.857,2.8795,2.8924,2.9152,2.9197,2.9064,2.9178,2.9197,2.9156,2.9178,2.9152,2.9156,2.9156,2.9134,2.9067,2.8906,2.8892,2.8923,2.89,2.89,2.8858,2.8815,2.8834,2.8828,2.8828,2.8828,2.8828,2.8804,2.8761,2.8748,2.8717,2.8656,2.8626,2.8359,2.7906,2.7501,2.7622,2.7055,2.6742,2.6435,2.5894,2.5321,2.4608,2.4181,2.3831,2.3576,2.362,2.366,2.3678,2.3674,2.3696,2.3718,2.3718,2.3718,2.3682,2.3682,2.316,2.2473,2.19,2.1414,2.0856,2.0228,2.0065,2.0787,2.1384,2.1799,2.1924,2.1922,2.2229,2.2643,2.2628,2.2668,2.2795,2.2885,2.2935,2.2983,2.3061,2.2844,2.2419,2.2497,2.2815,2.2983,2.3079,2.2641,2.208,2.2116,2.2156,2.2366,2.2327,2.2057,2.187,2.2029,2.222,2.4943,2.4979,2.4883,2.4746,2.4719,2.4712,2.4673,2.4551,2.4523,2.4744,2.5332,2.5627,2.6221,2.6834,2.7206,2.7261,2.7483,2.7853,2.8096,2.8052,2.8602,2.8997,2.9101,2.9243,2.9307,2.9265,2.9283,2.9347,2.9243,2.9222,2.924,2.9218,2.9222,2.9222,2.9222,2.92,2.9197,2.9215,2.9259,2.9306,2.9076,2.9017,2.8994,2.8929,2.8905,2.8858,2.8834,2.8834,2.881,2.8828,2.8804,2.8816,2.8785,2.8798,2.8785,2.8743,2.8439,2.8439,2.8306,2.7864,2.7641,2.7272,2.6765,2.6354,2.5769,2.5009,2.457,2.4342,2.44,2.4216,2.4158,2.3869,2.3743,2.3743,2.3743,2.3743,2.3743,2.3707,2.3455,2.286,2.2463,2.2048,2.198,2.1385,2.1133,2.1695,2.2004,2.244,2.2747,2.2743,2.2958,2.3392,2.3283,2.3213,2.3358,2.3467,2.3596,2.3684,2.3687,2.3635,2.3195,2.3433,2.3852,2.3743,2.3535,2.3218,2.2829,2.2754,2.2542,2.2394,2.2366,2.2338,2.2338,2.2338,2.2276,2.5137,2.5147,2.5005,2.4942,2.4929,2.4942,2.5283,2.5749,2.5726,2.5721,2.5894,2.6953,2.7699,2.7979,2.8503,2.869,2.8877,2.8821,2.9139,2.9119,2.9358,2.9454,2.957,2.9512,2.955,2.9608,2.9608,2.9528,2.9561,2.9463,2.9365,2.9365,2.9402,2.9479,2.9347,2.9323,2.9455,2.9532,2.9972,2.985,2.9492,2.9248,2.9152,2.9167,2.9181,2.9154,2.9113,2.9058,2.8994,2.897,2.8905,2.8852,2.8798,2.8827,2.8827,2.8791,2.8785,2.8785,2.8688,2.8506,2.8355,2.8155,2.7755,2.7391,2.685,2.6056,2.5546,2.535,2.5081,2.4838,2.4585,2.4205,2.3862,2.3862,2.3937,2.3937,2.3937,2.3843,2.3771,2.3392,2.3012,2.2888,2.2854,2.2692,2.2496,2.2443,2.2517,2.2809,2.3355,2.3535,2.3383,2.3671,2.3687,2.3668,2.3813,2.3834,2.3855,2.3855,2.3819,2.3821,2.3881,2.4062,2.4187,2.4039,2.3813,2.3552,2.3259,2.2975,2.2773,2.2644,2.2592,2.2677,2.2592,2.2586,2.2445,2.5343,2.5316,2.5264,2.5437,2.5713,2.5759,2.6186,2.6847,2.7255,2.7323,2.7191,2.8051,2.8674,2.9042,2.9595,2.9782,2.9832,2.9746,2.9708,2.9748,2.9751,2.9734,2.9753,2.9773,2.9701,2.9737,2.9757,2.9758,3.0057,3.0055,3.0034,2.9754,2.9791,2.9902,2.9695,2.9749,3.001,3.0066,3.0788,3.0801,3.0349,3.0305,3.0294,3.0276,2.9976,2.9824,2.9544,2.9411,2.913,2.9104,2.9035,2.8994,2.8947,2.8915,2.8892,2.8887,2.8881,2.8858,2.8815,2.8834,2.8828,2.8609,2.8494,2.8057,2.807,2.7313,2.6617,2.6343,2.5805,2.5524,2.5525,2.5244,2.4849,2.469,2.5038,2.5259,2.5259,2.5241,2.4914,2.4421,2.4094,2.3896,2.3751,2.3422,2.328,2.3282,2.3321,2.3395,2.3888,2.4326,2.4194,2.4117,2.4205,2.4018,2.3907,2.393,2.3915,2.3915,2.4024,2.401,2.4107,2.4363,2.4486,2.4201,2.4032,2.3981,2.3678,2.3493,2.3302,2.3212,2.3127,2.3067,2.2993,2.3055,2.3153,2.5493,2.5518,2.5499,2.5964,2.6657,2.6702,2.7171,2.7939,2.8687,2.9071,2.9041,2.9002,2.9453,2.9832,3.0061,3.0047,3.0047,3.0032,3.0052,3.0056,3.0007,2.9977,3.0007,3.0035,3.0269,3.039,3.0413,3.0697,3.1073,3.0997,3.0752,3.0284,3.0415,3.0716,3.0358,3.0546,3.1054,3.1202,3.1667,3.2094,3.2027,3.1864,3.1566,3.1279,3.1016,3.0572,3.0239,2.9865,2.944,2.9175,2.9126,2.9104,2.9085,2.9067,2.9044,2.9021,2.8998,2.8975,2.8952,2.8905,2.8881,2.8839,2.8834,2.8804,2.8767,2.8408,2.7695,2.7242,2.6698,2.6393,2.6398,2.6164,2.575,2.5536,2.5998,2.6312,2.6312,2.633,2.5874,2.536,2.5181,2.4944,2.4668,2.432,2.4249,2.4271,2.4271,2.4308,2.4492,2.4915,2.5098,2.5022,2.5038,2.4741,2.4335,2.4278,2.4377,2.449,2.4639,2.4421,2.4368,2.4697,2.4686,2.4226,2.4088,2.447,2.448,2.432,2.413,2.3971,2.3884,2.3893,2.3971,2.404,2.4156,2.5599,2.5576,2.5576,2.6075,2.6748,2.6825,2.7653,2.8958,2.9241,2.9695,3.0136,3.0311,3.0423,3.0402,3.0402,3.0372,3.034,3.0294,3.0304,3.0311,3.0356,3.0286,3.0469,3.0911,3.1512,3.1702,3.1775,3.1973,3.2126,3.1977,3.1864,3.1711,3.1786,3.1973,3.2003,3.2101,3.2071,3.2241,3.2633,3.3116,3.2863,3.2493,3.1879,3.1667,3.163,3.1065,3.0635,3.0372,2.9832,2.9422,2.9178,2.9197,2.9175,2.9156,2.9156,2.913,2.9112,2.9112,2.9067,2.9044,2.8998,2.8998,2.8975,2.8887,2.8876,2.8828,2.8372,2.8281,2.7822,2.7405,2.7268,2.6781,2.6385,2.6348,2.6589,2.6626,2.6644,2.6644,2.6461,2.6261,2.6151,2.599,2.5844,2.5661,2.5667,2.5667,2.5667,2.5685,2.5656,2.5839,2.5947,2.5892,2.5837,2.5544,2.5157,2.5053,2.5111,2.521,2.5305,2.5285,2.523,2.5181,2.502,2.4779,2.501,2.5435,2.5337,2.5322,2.5202,2.5067,2.4871,2.4781,2.4889,2.493,2.5028]},{"header":{"parameterUnit":"m.s-1","parameterCategory":1,"la1":31.0,"la2":29.5877,"lo1":-88.7671,"lo2":-86.6584,"dy":0.0162,"dx":0.0185,"nx":115,"ny":88,"refTime":"2024-09-16T18:00:00:Z","depth":0,"parameterNumber":3,"parameterNumberName":"V-component_of_WINDS"},"data":[0.0,0.0,0.0,0.0,0.0,0.0,0.0,0.0,0.0,0.0,0.0,0.0,0.0,0.0,0.0,0.0,0.0,0.0,0.0,0.0,0.0,0.0,0.0,0.0,0.0,0.0,0.0,0.0,0.0,0.0,0.0,0.0,0.0,0.0,0.0,0.0,0.0,0.0,0.0,0.0,0.0,0.0,0.0,0.0,0.0,0.0,0.0,0.0,0.0,0.0,0.0,0.0,0.0,0.0,0.0,0.0,0.0,0.0,0.0,0.0,0.0,0.0,0.0,0.0,0.0,0.0,0.0,0.0,0.0,0.0,0.0,0.0,0.0,0.0,0.0,0.0,0.0,0.0,0.0,0.0,0.0,0.0,0.0,0.0,0.0,0.0,0.0,0.0,0.0,0.0,0.0,0.0,0.0,0.0,0.0,0.0,0.0,0.0,0.0,0.0,0.0,0.0,0.0,0.0,0.0,0.0,0.0,0.0,0.0,0.0,0.0,0.0,0.0,0.0,0.0,0.0,0.0,0.0,0.0,0.0,0.0,0.0,0.0,0.0,0.0,0.0,0.0,0.0,0.0,0.0,0.0,0.0,0.0,0.0,0.0,0.0,0.0,0.0,0.0,0.0,0.0,0.0,0.0,0.0,0.0,0.0,0.0,0.0,0.0,0.0,0.0,0.0,0.0,0.0,0.0,0.0,0.0,0.0,0.0,0.0,0.0,0.0,0.0,0.0,0.0,0.0,0.0,0.0,0.0,0.0,0.0,0.0,0.0,0.0,0.0,0.0,0.0,0.0,0.0,0.0,0.0,0.0,0.0,0.0,0.0,0.0,0.0,0.0,0.0,0.0,0.0,0.0,0.0,0.0,0.0,0.0,0.0,0.0,0.0,0.0,0.0,0.0,0.0,0.0,0.0,0.0,0.0,0.0,0.0,0.0,0.0,0.0,0.0,0.0,0.0,0.0,0.0,0.0,0.0,0.0,0.0,0.0,0.0,0.0,0.0,0.0,0.0,0.0,0.0,0.0,0.0,0.0,0.0,0.0,0.0,0.0,0.0,0.0,0.0,0.0,0.0,0.0,0.0,0.0,0.0,0.0,0.0,0.0,0.0,0.0,0.0,0.0,0.0,0.0,0.0,0.0,0.0,0.0,0.0,0.0,0.0,0.0,0.0,0.0,0.0,0.0,0.0,0.0,0.0,0.0,0.0,0.0,0.0,0.0,0.0,0.0,0.0,0.0,0.0,0.0,0.0,0.0,0.0,0.0,0.0,0.0,0.0,0.0,0.0,0.0,0.0,0.0,0.0,0.0,0.0,0.0,0.0,0.0,0.0,0.0,0.0,0.0,0.0,0.0,0.0,0.0,0.0,0.0,0.0,0.0,0.0,0.0,0.0,0.0,0.0,0.0,0.0,0.0,0.0,0.0,0.0,0.0,0.0,0.0,0.0,0.0,0.0,0.0,0.0,0.0,0.0,0.0,0.0,0.0,0.0,0.0,0.0,0.0,0.0,0.0,0.0,0.0,0.0,0.0,0.0,0.0,0.0,0.0,0.0,0.0,0.0,0.0,0.0,0.0,0.0,0.0,0.0,0.0,0.0,0.0,0.0,0.0,0.0,0.0,0.0,0.0,0.0,0.0,0.0,0.0,0.0,0.0,0.0,0.0,0.0,0.0,0.0,0.0,0.0,0.0,0.0,0.0,0.0,0.0,0.0,0.0,0.0,0.0,0.0,0.0,0.0,0.0,0.0,0.0,0.0,0.0,0.0,0.0,0.0,0.0,0.0,0.0,0.0,0.0,0.0,0.0,0.0,0.0,0.0,0.0,0.0,0.0,0.0,0.0,0.0,0.0,0.0,0.0,0.0,0.0,0.0,0.0,0.0,0.0,0.0,0.0,0.0,0.0,0.0,0.0,0.0,0.0,0.0,0.0,0.0,0.0,0.0,0.0,0.0,0.0,0.0,0.0,0.0,0.0,0.0,0.0,0.0,0.0,0.0,0.0,0.0,0.0,0.0,0.0,0.0,0.0,0.0,0.0,0.0,0.0,0.0,0.0,0.0,0.0,0.0,0.0,0.0,0.0,0.0,0.0,0.0,0.0,0.0,0.0,0.0,0.0,0.0,0.0,0.0,0.0,0.0,0.0,0.0,0.0,0.0,0.0,0.0,0.0,0.0,0.0,0.0,0.0,0.0,0.0,0.0,0.0,0.0,0.0,0.0,0.0,0.0,0.0,0.0,0.0,0.0,0.0,0.0,0.0,0.0,0.0,0.0,0.0,0.0,0.0,0.0,0.0,0.0,0.0,0.0,0.0,0.0,0.0,0.0,0.0,0.0,0.0,0.0,0.0,0.0,0.0,0.0,0.0,0.0,0.0,0.0,0.0,0.0,0.0,0.0,0.0,0.0,0.0,0.0,0.0,0.0,0.0,0.0,0.0,0.0,0.0,0.0,0.0,0.0,0.0,0.0,0.0,0.0,0.0,0.0,0.0,0.0,0.0,0.0,0.0,0.0,0.0,0.0,0.0,0.0,0.0,0.0,0.0,0.0,0.0,0.0,0.0,0.0,0.0,0.0,0.0,0.0,0.0,0.0,0.0,0.0,0.0,0.0,0.0,0.0,0.0,0.0,0.0,0.0,0.0,0.0,0.0,0.0,0.0,0.0,0.0,0.0,0.0,0.0,0.0,0.0,0.0,0.0,0.0,0.0,0.0,0.0,0.0,0.0,0.0,0.0,0.0,0.0,0.0,0.0,0.0,0.0,0.0,0.0,0.0,0.0,0.0,0.0,0.0,0.0,0.0,0.0,0.0,0.0,0.0,0.0,0.0,0.0,0.0,0.0,0.0,0.0,0.0,0.0,0.0,0.0,0.0,0.0,0.0,0.0,0.0,0.0,0.0,0.0,0.0,0.0,0.0,0.0,0.0,0.0,0.0,0.0,0.0,0.0,0.0,0.0,0.0,0.0,0.0,0.0,0.0,0.0,0.0,0.0,0.0,0.0,0.0,0.0,0.0,0.0,0.0,0.0,0.0,0.0,0.0,0.0,0.0,0.0,0.0,0.0,0.0,0.0,0.0,0.0,0.0,0.0,0.0,0.0,0.0,0.0,0.0,0.0,0.0,0.0,0.0,0.0,0.0,0.0,0.0,0.0,0.0,0.0,0.0,0.0,0.0,0.0,0.0,0.0,0.0,0.0,0.0,0.0,0.0,0.0,0.0,0.0,0.0,0.0,0.0,0.0,0.0,0.0,0.0,0.0,0.0,0.0,0.0,0.0,0.0,0.0,0.0,0.0,0.0,0.0,0.0,0.0,0.0,0.0,0.0,0.0,0.0,0.0,0.0,0.0,0.0,0.0,0.0,0.0,0.0,0.0,0.0,0.0,0.0,0.0,0.0,0.0,0.0,0.0,0.0,0.0,0.0,0.0,0.0,0.0,0.0,0.0,0.0,0.0,0.0,0.0,0.0,0.0,0.0,0.0,0.0,0.0,0.0,0.0,0.0,0.0,0.0,0.0,0.0,0.0,0.0,0.0,0.0,0.0,0.0,0.0,0.0,0.0,0.0,0.0,0.0,0.0,0.0,0.0,0.0,0.0,0.0,0.0,0.0,0.0,0.0,0.0,0.0,0.0,0.0,0.0,0.0,0.0,0.0,0.0,0.0,0.0,0.0,0.0,0.0,0.0,0.0,0.0,0.0,0.0,0.0,0.0,0.0,0.0,0.0,0.0,0.0,0.0,0.0,0.0,0.0,0.0,0.0,0.0,0.0,0.0,0.0,0.0,0.0,0.0,0.0,0.0,0.0,0.0,0.0,0.0,0.0,0.0,0.0,0.0,0.0,0.0,0.0,0.0,0.0,0.0,0.0,0.0,0.0,0.0,0.0,0.0,0.0,0.0,0.0,0.0,0.0,0.0,0.0,0.0,0.0,0.0,0.0,0.0,0.0,0.0,0.0,0.0,0.0,0.0,0.0,0.0,0.0,0.0,0.0,0.0,0.0,0.0,0.0,0.0,0.0,0.0,0.0,0.0,0.0,0.0,0.0,0.0,0.0,0.0,0.0,0.0,0.0,0.0,0.0,0.0,0.0,0.0,0.0,0.0,0.0,0.0,0.0,0.0,0.0,0.0,0.0,0.0,0.0,0.0,0.0,0.0,0.0,0.0,0.0,0.0,0.0,0.0,0.0,0.0,0.0,0.0,0.0,0.0,0.0,0.0,0.0,0.0,0.0,0.0,0.0,0.0,0.0,0.0,0.0,0.0,0.0,0.0,0.0,0.0,0.0,0.0,0.0,-0.4728,0.0,0.0,0.0,0.0,0.0,0.0,0.0,0.0,0.0,0.0,0.0,0.0,0.0,0.0,0.0,0.0,0.0,0.0,0.0,0.0,0.0,0.0,0.0,0.0,0.0,0.0,0.0,0.0,0.0,0.0,0.0,0.0,0.0,0.0,0.0,0.0,0.0,0.0,0.0,0.0,0.0,0.0,0.0,0.0,0.0,0.0,0.0,0.0,0.0,0.0,0.0,0.0,0.0,0.0,0.0,0.0,0.0,0.0,0.0,0.0,0.0,0.0,0.0,0.0,0.0,0.0,0.0,0.0,0.0,0.0,0.0,0.0,0.0,0.0,0.0,0.0,0.0,0.0,0.0,0.0,0.0,0.0,0.0,0.0,0.0,0.0,0.0,0.0,0.0,0.0,0.0,0.0,0.0,0.0,0.0,0.0,0.0,0.0,0.0,0.0,0.0,0.0,0.0,0.0,0.0,0.0,0.0,0.0,0.0,0.0,-0.4901,-0.4918,-0.484,-0.4762,-0.4691,0.0,0.0,0.0,0.0,0.0,0.0,0.0,0.0,0.0,0.0,0.0,0.0,0.0,0.0,0.0,0.0,0.0,0.0,0.0,0.0,0.0,0.0,0.0,0.0,0.0,0.0,0.0,0.0,0.0,0.0,0.0,0.0,0.0,0.0,0.0,0.0,0.0,0.0,0.0,0.0,0.0,0.0,0.0,0.0,0.0,0.0,0.0,0.0,0.0,0.0,0.0,0.0,0.0,0.0,0.0,0.0,0.0,0.0,0.0,0.0,0.0,0.0,0.0,0.0,0.0,0.0,0.0,0.0,0.0,0.0,0.0,0.0,0.0,0.0,0.0,0.0,0.0,0.0,0.0,0.0,0.0,0.0,0.0,0.0,0.0,0.0,0.0,0.0,0.0,0.0,0.0,0.0,0.0,0.0,0.0,0.0,0.0,0.0,0.0,0.0,0.0,0.0,0.0,0.0,0.0,0.0,0.0,0.0,0.0,0.0,0.0,0.0,-0.4852,-0.4786,-0.4751,0.0,0.0,0.0,0.0,0.0,0.0,0.0,0.0,0.0,0.0,0.0,0.0,0.0,0.0,0.0,0.0,0.0,0.0,0.0,0.0,0.0,0.0,0.0,0.0,0.0,0.0,0.0,0.0,0.0,0.0,0.0,0.0,0.0,0.0,0.0,0.0,0.0,0.0,0.0,0.0,0.0,0.0,0.0,0.0,0.0,0.0,0.0,0.0,0.0,0.0,0.0,0.0,0.0,0.0,0.0,0.0,0.0,0.0,0.0,0.0,0.0,0.0,0.0,0.0,0.0,0.0,0.0,0.0,0.0,0.0,0.0,0.0,0.0,0.0,0.0,0.0,0.0,0.0,0.0,0.0,0.0,0.0,0.0,0.0,0.0,0.0,0.0,0.0,0.0,0.0,0.0,0.0,0.0,0.0,0.0,0.0,0.0,0.0,0.0,0.0,0.0,0.0,0.0,0.0,0.0,0.0,0.0,0.0,0.0,0.0,-0.5026,-0.4897,-0.5019,0.0,-0.4879,0.0,0.0,0.0,0.0,0.0,0.0,0.0,0.0,0.0,0.0,0.0,0.0,0.0,0.0,0.0,0.0,0.0,0.0,0.0,0.0,0.0,0.0,0.0,0.0,0.0,0.0,0.0,0.0,0.0,0.0,0.0,0.0,0.0,0.0,0.0,0.0,0.0,0.0,0.0,0.0,0.0,0.0,0.0,0.0,0.0,0.0,0.0,0.0,0.0,0.0,0.0,0.0,0.0,0.0,0.0,0.0,0.0,0.0,0.0,0.0,0.0,0.0,0.0,0.0,0.0,0.0,0.0,0.0,0.0,0.0,0.0,0.0,0.0,0.0,0.0,0.0,0.0,0.0,0.0,0.0,0.0,0.0,0.0,0.0,0.0,0.0,0.0,0.0,0.0,0.0,0.0,0.0,0.0,0.0,0.0,0.0,0.0,0.0,0.0,0.0,0.0,0.0,0.0,0.0,0.0,0.0,0.0,0.0,0.0,0.0,-0.4968,-0.4901,-0.4964,-0.4968,0.0,0.0,0.0,0.0,0.0,0.0,0.0,0.0,0.0,0.0,0.0,0.0,0.0,0.0,0.0,0.0,0.0,0.0,0.0,0.0,0.0,0.0,0.0,0.0,0.0,0.0,0.0,0.0,0.0,0.0,0.0,0.0,0.0,0.0,0.0,0.0,0.0,0.0,0.0,0.0,0.0,0.0,0.0,0.0,0.0,0.0,0.0,0.0,0.0,0.0,0.0,0.0,0.0,0.0,0.0,0.0,0.0,0.0,0.0,0.0,0.0,0.0,0.0,0.0,0.0,0.0,0.0,0.0,0.0,0.0,0.0,0.0,0.0,0.0,0.0,0.0,0.0,0.0,0.0,0.0,0.0,0.0,0.0,0.0,0.0,0.0,0.0,0.0,0.0,0.0,0.0,0.0,0.0,0.0,0.0,0.0,0.0,0.0,0.0,0.0,0.0,0.0,0.0,0.0,0.0,0.0,0.0,0.0,0.0,0.0,-0.5066,-0.512,-0.5179,-0.5175,-0.5156,-0.5054,0.0,0.0,0.0,0.0,0.0,0.0,0.0,0.0,0.0,0.0,0.0,0.0,0.0,0.0,0.0,0.0,0.0,0.0,0.0,0.0,0.0,0.0,0.0,0.0,0.0,0.0,0.0,0.0,0.0,0.0,0.0,0.0,0.0,0.0,0.0,0.0,0.0,0.0,0.0,0.0,0.0,0.0,0.0,0.0,0.0,0.0,0.0,0.0,0.0,0.0,0.0,0.0,0.0,0.0,0.0,0.0,0.0,0.0,0.0,0.0,0.0,0.0,0.0,0.0,0.0,0.0,0.0,0.0,0.0,0.0,0.0,0.0,0.0,0.0,0.0,0.0,0.0,0.0,0.0,0.0,0.0,0.0,0.0,0.0,0.0,0.0,0.0,0.0,0.0,0.0,0.0,0.0,0.0,0.0,0.0,0.0,0.0,0.0,0.0,0.0,0.0,0.0,0.0,0.0,0.0,0.0,0.0,0.0,0.0,-0.5462,-0.5622,-0.574,-0.5795,-0.5703,0.0,0.0,0.0,0.0,0.0,0.0,0.0,0.0,0.0,0.0,0.0,0.0,0.0,0.0,0.0,0.0,0.0,0.0,0.0,0.0,0.0,0.0,0.0,0.0,0.0,0.0,0.0,0.0,0.0,0.0,0.0,0.0,0.0,0.0,0.0,0.0,0.0,0.0,0.0,0.0,0.0,0.0,0.0,0.0,0.0,0.0,0.0,0.0,0.0,0.0,0.0,0.0,0.0,0.0,0.0,0.0,0.0,0.0,0.0,0.0,0.0,0.0,0.0,0.0,0.0,0.0,0.0,0.0,0.0,0.0,0.0,0.0,0.0,0.0,0.0,0.0,0.0,0.0,0.0,0.0,0.0,0.0,0.0,0.0,0.0,0.0,0.0,0.0,0.0,0.0,0.0,0.0,0.0,0.0,0.0,0.0,0.0,0.0,0.0,0.0,0.0,0.0,0.0,0.0,0.0,0.0,0.0,0.0,0.0,-0.5631,-0.5791,-0.5946,-0.605,-0.5931,-0.5829,0.0,0.0,0.0,0.0,0.0,0.0,0.0,0.0,0.0,0.0,0.0,0.0,0.0,0.0,0.0,0.0,0.0,0.0,0.0,0.0,0.0,0.0,0.0,0.0,0.0,0.0,0.0,0.0,0.0,0.0,0.0,0.0,0.0,0.0,0.0,0.0,0.0,0.0,0.0,0.0,0.0,0.0,0.0,0.0,0.0,0.0,0.0,0.0,0.0,0.0,0.0,0.0,0.0,0.0,0.0,0.0,0.0,0.0,0.0,0.0,0.0,0.0,0.0,0.0,0.0,0.0,0.0,0.0,0.0,0.0,0.0,0.0,0.0,0.0,0.0,0.0,0.0,0.0,0.0,0.0,0.0,0.0,0.0,0.0,0.0,0.0,0.0,0.0,0.0,0.0,0.0,0.0,0.0,0.0,0.0,0.0,0.0,0.0,0.0,0.0,0.0,0.0,0.0,0.0,0.0,0.0,0.0,0.0,0.0,-0.6119,0.0,-0.6381,0.0,-0.6278,-0.613,0.0,0.0,0.0,0.0,0.0,0.0,0.0,0.0,0.0,0.0,0.0,0.0,0.0,0.0,0.0,0.0,0.0,0.0,0.0,0.0,0.0,0.0,0.0,0.0,0.0,0.0,0.0,0.0,0.0,0.0,0.0,0.0,0.0,0.0,0.0,0.0,0.0,0.0,0.0,0.0,0.0,0.0,0.0,0.0,0.0,0.0,0.0,0.0,0.0,0.0,0.0,0.0,0.0,0.0,0.0,0.0,0.0,0.0,0.0,0.0,0.0,0.0,0.0,0.0,0.0,0.0,0.0,0.0,0.0,0.0,0.0,0.0,0.0,0.0,0.0,0.0,0.0,0.0,0.0,0.0,0.0,0.0,0.0,0.0,0.0,0.0,0.0,0.0,0.0,0.0,0.0,0.0,0.0,0.0,0.0,0.0,0.0,0.0,0.0,0.0,0.0,0.0,0.0,0.0,0.0,0.0,0.0,0.0,-0.6376,-0.6701,-0.682,-0.6982,-0.7079,-0.6848,-0.6616,0.0,0.0,0.0,0.0,0.0,0.0,0.0,0.0,0.0,0.0,0.0,0.0,0.0,0.0,0.0,0.0,0.0,0.0,0.0,0.0,0.0,0.0,0.0,0.0,0.0,0.0,0.0,0.0,0.0,0.0,0.0,0.0,0.0,0.0,0.0,0.0,0.0,0.0,0.0,0.0,0.0,0.0,0.0,0.0,0.0,0.0,0.0,0.0,0.0,0.0,0.0,0.0,0.0,0.0,0.0,0.0,0.0,0.0,0.0,0.0,0.0,0.0,0.0,0.0,0.0,0.0,0.0,0.0,0.0,0.0,0.0,0.0,0.0,0.0,0.0,0.0,0.0,0.0,0.0,0.0,0.0,0.0,0.0,0.0,0.0,0.0,0.0,0.0,0.0,0.0,0.0,0.0,0.0,0.0,0.0,0.0,0.0,0.0,0.0,0.0,0.0,0.0,0.0,0.0,0.0,0.0,0.0,0.0,0.0,-0.7246,-0.7306,-0.7408,-0.7599,-0.7199,-0.6933,0.0,0.0,0.0,0.0,0.0,0.0,0.0,0.0,0.0,0.0,0.0,0.0,0.0,0.0,0.0,0.0,0.0,0.0,0.0,0.0,0.0,0.0,0.0,0.0,0.0,0.0,0.0,0.0,0.0,0.0,0.0,0.0,0.0,0.0,0.0,0.0,0.0,0.0,0.0,0.0,0.0,0.0,0.0,0.0,0.0,0.0,0.0,0.0,0.0,0.0,0.0,0.0,0.0,0.0,0.0,0.0,0.0,0.0,0.0,0.0,0.0,0.0,0.0,0.0,0.0,0.0,0.0,0.0,0.0,0.0,0.0,0.0,0.0,0.0,0.0,0.0,0.0,0.0,0.0,0.0,0.0,0.0,0.0,0.0,0.0,0.0,0.0,0.0,0.0,0.0,0.0,0.0,0.0,0.0,0.0,0.0,0.0,0.0,0.0,0.0,0.0,0.0,0.0,0.0,0.0,0.0,0.0,0.0,0.0,-0.8156,-0.7996,-0.7996,-0.8256,-0.7816,-0.7534,-0.7421,0.0,0.0,0.0,0.0,0.0,0.0,0.0,0.0,0.0,0.0,0.0,0.0,0.0,0.0,0.0,0.0,0.0,0.0,0.0,0.0,0.0,0.0,0.0,0.0,0.0,0.0,0.0,0.0,0.0,0.0,0.0,0.0,0.0,0.0,0.0,0.0,0.0,0.0,0.0,0.0,0.0,0.0,0.0,0.0,0.0,0.0,0.0,0.0,0.0,0.0,0.0,0.0,0.0,0.0,0.0,0.0,0.0,0.0,0.0,0.0,0.0,0.0,0.0,0.0,0.0,0.0,0.0,0.0,0.0,0.0,0.0,0.0,0.0,0.0,0.0,0.0,0.0,0.0,0.0,0.0,0.0,0.0,0.0,0.0,0.0,0.0,0.0,0.0,0.0,0.0,0.0,0.0,0.0,0.0,0.0,0.0,0.0,0.0,0.0,0.0,0.0,0.0,0.0,0.0,0.0,0.0,0.0,0.0,-0.9211,-0.889,-0.8732,-0.8896,-0.8599,-0.8301,0.0,0.0,0.0,0.0,0.0,0.0,0.0,0.0,0.0,0.0,0.0,0.0,0.0,0.0,0.0,0.0,0.0,0.0,0.0,0.0,0.0,0.0,0.0,0.0,0.0,0.0,0.0,0.0,0.0,0.0,0.0,0.0,0.0,0.0,0.0,0.0,0.0,0.0,0.0,0.0,0.0,0.0,0.0,0.0,0.0,0.0,0.0,0.0,0.0,0.0,0.0,0.0,0.0,0.0,0.0,0.0,0.0,0.0,0.0,0.0,0.0,0.0,0.0,0.0,0.0,0.0,0.0,0.0,0.0,0.0,0.0,0.0,0.0,0.0,0.0,0.0,0.0,0.0,0.0,0.0,0.0,0.0,0.0,0.0,0.0,0.0,0.0,0.0,0.0,0.0,0.0,0.0,0.0,0.0,0.0,0.0,0.0,0.0,0.0,0.0,0.0,0.0,0.0,0.0,0.0,0.0,0.0,0.0,0.0,-0.9636,-0.9636,-0.9725,-0.9961,-0.9349,-0.9026,0.0,0.0,0.0,0.0,0.0,0.0,0.0,0.0,0.0,0.0,0.0,0.0,0.0,0.0,0.0,0.0,0.0,0.0,0.0,0.0,0.0,0.0,0.0,0.0,0.0,0.0,0.0,0.0,0.0,0.0,0.0,0.0,0.0,0.0,0.0,0.0,0.0,0.0,0.0,0.0,0.0,0.0,0.0,0.0,0.0,0.0,0.0,0.0,0.0,0.0,0.0,0.0,0.0,0.0,0.0,0.0,0.0,0.0,0.0,0.0,0.0,0.0,0.0,0.0,0.0,0.0,0.0,0.0,0.0,0.0,0.0,0.0,0.0,0.0,0.0,0.0,0.0,0.0,0.0,0.0,0.0,0.0,0.0,0.0,0.0,0.0,0.0,0.0,0.0,0.0,0.0,0.0,0.0,0.0,0.0,0.0,0.0,0.0,0.0,0.0,0.0,0.0,0.0,0.0,0.0,0.0,0.0,0.0,-0.9923,-1.0004,-1.0097,-1.0432,-1.1083,-1.021,-0.976,0.0,0.0,0.0,0.0,0.0,0.0,0.0,0.0,0.0,0.0,0.0,0.0,0.0,0.0,0.0,0.0,0.0,0.0,0.0,0.0,0.0,0.0,0.0,0.0,0.0,0.0,0.0,0.0,0.0,0.0,0.0,0.0,0.0,0.0,0.0,0.0,0.0,0.0,0.0,0.0,0.0,0.0,0.0,0.0,0.0,0.0,0.0,0.0,0.0,0.0,0.0,0.0,0.0,0.0,0.0,0.0,0.0,0.0,0.0,0.0,0.0,0.0,0.0,0.0,0.0,0.0,0.0,0.0,0.0,0.0,0.0,0.0,0.0,0.0,0.0,0.0,0.0,0.0,0.0,0.0,0.0,0.0,0.0,0.0,0.0,0.0,0.0,0.0,0.0,0.0,0.0,0.0,0.0,0.0,0.0,0.0,0.0,0.0,0.0,0.0,0.0,0.0,0.0,0.0,0.0,0.0,0.0,0.0,-1.0256,-1.0343,-1.0301,-1.0785,-1.1843,-1.1017,-1.0442,0.0,0.0,0.0,0.0,0.0,0.0,0.0,0.0,0.0,0.0,0.0,0.0,0.0,0.0,0.0,0.0,0.0,0.0,0.0,0.0,0.0,0.0,0.0,0.0,0.0,0.0,0.0,0.0,0.0,0.0,0.0,0.0,0.0,0.0,0.0,0.0,0.0,0.0,0.0,0.0,0.0,0.0,0.0,0.0,0.0,0.0,0.0,0.0,0.0,0.0,0.0,0.0,0.0,0.0,0.0,0.0,0.0,0.0,0.0,0.0,0.0,0.0,0.0,0.0,0.0,0.0,0.0,0.0,0.0,0.0,0.0,0.0,0.0,0.0,0.0,0.0,0.0,0.0,0.0,0.0,0.0,0.0,0.0,0.0,0.0,0.0,0.0,0.0,0.0,0.0,0.0,0.0,0.0,0.0,0.0,0.0,0.0,0.0,0.0,0.0,0.0,0.0,0.0,0.0,0.0,0.0,0.0,0.0,-1.0368,-1.0624,-1.0335,-1.0568,-1.1395,-1.0794,-1.0713,0.0,0.0,0.0,0.0,0.0,0.0,0.0,0.0,0.0,0.0,0.0,0.0,0.0,0.0,0.0,0.0,0.0,0.0,0.0,0.0,0.0,0.0,0.0,0.0,0.0,0.0,0.0,0.0,0.0,0.0,0.0,0.0,0.0,0.0,0.0,0.0,0.0,0.0,0.0,0.0,0.0,0.0,0.0,0.0,0.0,0.0,0.0,0.0,-1.0697,0.0,0.0,0.0,0.0,0.0,0.0,0.0,0.0,0.0,0.0,0.0,0.0,0.0,0.0,0.0,0.0,0.0,0.0,0.0,0.0,0.0,0.0,0.0,0.0,0.0,0.0,0.0,0.0,0.0,0.0,0.0,0.0,0.0,0.0,0.0,0.0,0.0,0.0,0.0,0.0,0.0,0.0,0.0,0.0,0.0,0.0,0.0,0.0,0.0,0.0,0.0,0.0,0.0,0.0,0.0,0.0,0.0,0.0,0.0,-1.0415,-1.0416,-0.9952,-1.0252,-1.1221,-1.0539,-1.0552,0.0,0.0,0.0,0.0,0.0,0.0,0.0,0.0,0.0,0.0,0.0,0.0,0.0,0.0,0.0,0.0,0.0,0.0,0.0,0.0,0.0,0.0,0.0,0.0,0.0,0.0,0.0,0.0,0.0,0.0,0.0,0.0,0.0,0.0,0.0,0.0,0.0,0.0,0.0,0.0,0.0,0.0,0.0,0.0,0.0,0.0,0.0,0.0,0.0,0.0,0.0,0.0,0.0,0.0,0.0,0.0,0.0,0.0,0.0,0.0,0.0,0.0,0.0,0.0,0.0,0.0,0.0,0.0,0.0,0.0,0.0,0.0,0.0,0.0,0.0,0.0,0.0,0.0,0.0,0.0,0.0,0.0,0.0,0.0,0.0,0.0,0.0,0.0,0.0,0.0,0.0,0.0,0.0,0.0,0.0,0.0,0.0,0.0,0.0,0.0,0.0,0.0,0.0,0.0,0.0,0.0,0.0,-1.004,-1.026,-1.0038,-0.9542,-0.983,-1.0924,-1.0206,-1.0271,-1.1194,0.0,0.0,0.0,0.0,0.0,0.0,0.0,0.0,0.0,0.0,0.0,0.0,0.0,0.0,0.0,0.0,0.0,0.0,0.0,0.0,0.0,0.0,0.0,0.0,0.0,0.0,0.0,0.0,0.0,0.0,0.0,0.0,0.0,0.0,0.0,0.0,0.0,0.0,-0.988,-1.0352,0.0,0.0,0.0,0.0,0.0,0.0,0.0,0.0,-1.2289,0.0,0.0,0.0,0.0,0.0,0.0,0.0,0.0,0.0,0.0,0.0,0.0,0.0,0.0,0.0,0.0,0.0,0.0,0.0,0.0,0.0,0.0,0.0,0.0,0.0,0.0,0.0,0.0,0.0,0.0,0.0,0.0,0.0,0.0,0.0,0.0,0.0,0.0,0.0,0.0,0.0,0.0,0.0,0.0,0.0,0.0,0.0,0.0,0.0,0.0,0.0,0.0,0.0,0.0,0.0,0.0,-0.9288,-0.9666,-0.982,-0.9753,-0.9371,-0.9281,-0.9617,-0.9747,-1.0071,-1.0589,0.0,0.0,0.0,0.0,0.0,0.0,0.0,0.0,0.0,0.0,0.0,0.0,0.0,0.0,0.0,0.0,0.0,0.0,0.0,0.0,0.0,0.0,0.0,0.0,0.0,0.0,0.0,0.0,0.0,0.0,0.0,0.0,0.0,0.0,0.0,0.0,0.0,0.0,0.0,-1.0913,-1.1326,0.0,0.0,0.0,0.0,0.0,0.0,0.0,0.0,-1.4168,0.0,0.0,0.0,0.0,0.0,0.0,0.0,0.0,0.0,0.0,0.0,0.0,0.0,0.0,0.0,0.0,0.0,0.0,0.0,0.0,0.0,0.0,0.0,0.0,0.0,0.0,0.0,0.0,0.0,0.0,0.0,0.0,0.0,0.0,0.0,0.0,0.0,0.0,0.0,0.0,0.0,0.0,0.0,0.0,0.0,0.0,0.0,0.0,0.0,0.0,0.0,0.0,0.0,0.0,0.0,-0.909,-0.983,-1.0002,-0.9448,-0.9059,-0.8999,-0.9275,-0.9265,-0.9535,0.0,0.0,0.0,0.0,0.0,0.0,0.0,0.0,0.0,0.0,0.0,0.0,0.0,0.0,0.0,0.0,0.0,0.0,0.0,0.0,0.0,0.0,0.0,0.0,0.0,0.0,0.0,0.0,0.0,0.0,0.0,0.0,0.0,0.0,0.0,0.0,0.0,0.0,0.0,0.0,-1.166,-1.2138,-1.2491,0.0,0.0,0.0,0.0,0.0,0.0,-1.4182,-1.4764,0.0,0.0,0.0,0.0,0.0,0.0,0.0,0.0,0.0,0.0,0.0,0.0,0.0,0.0,0.0,0.0,0.0,0.0,0.0,0.0,0.0,0.0,0.0,0.0,0.0,0.0,0.0,0.0,0.0,0.0,0.0,0.0,0.0,0.0,0.0,0.0,0.0,0.0,0.0,0.0,0.0,0.0,0.0,0.0,0.0,0.0,0.0,0.0,0.0,0.0,0.0,0.0,0.0,0.0,0.0,-0.8805,-1.0045,-1.0224,-0.9252,-0.8821,-0.8771,-0.9036,-0.8837,-0.9067,0.0,0.0,0.0,0.0,0.0,0.0,0.0,0.0,0.0,0.0,0.0,0.0,0.0,0.0,0.0,0.0,0.0,0.0,0.0,0.0,0.0,0.0,0.0,0.0,0.0,0.0,0.0,0.0,0.0,0.0,0.0,0.0,0.0,0.0,0.0,0.0,0.0,0.0,0.0,0.0,0.0,-1.2871,-1.3304,-1.3627,0.0,0.0,0.0,0.0,-1.4438,-1.4835,0.0,0.0,0.0,0.0,0.0,0.0,0.0,0.0,0.0,0.0,0.0,0.0,0.0,0.0,0.0,0.0,0.0,0.0,0.0,0.0,0.0,0.0,0.0,0.0,0.0,0.0,0.0,0.0,0.0,0.0,0.0,0.0,0.0,0.0,0.0,0.0,0.0,0.0,0.0,0.0,0.0,0.0,0.0,0.0,0.0,0.0,0.0,0.0,0.0,0.0,0.0,0.0,0.0,0.0,0.0,0.0,-0.8634,-0.9745,-0.9974,-0.9228,-0.8872,-0.8548,-0.8265,-0.8602,-0.8953,0.0,0.0,0.0,0.0,0.0,0.0,0.0,0.0,0.0,0.0,0.0,0.0,0.0,0.0,0.0,0.0,0.0,0.0,0.0,0.0,0.0,0.0,0.0,0.0,0.0,0.0,0.0,0.0,0.0,0.0,0.0,0.0,0.0,0.0,0.0,0.0,0.0,0.0,0.0,0.0,0.0,-1.3304,-1.3836,-1.4294,-1.4709,0.0,0.0,-1.5309,-1.5035,-1.5496,0.0,0.0,0.0,0.0,0.0,0.0,0.0,0.0,0.0,0.0,0.0,0.0,0.0,0.0,0.0,0.0,0.0,0.0,0.0,0.0,0.0,0.0,0.0,0.0,0.0,0.0,0.0,0.0,0.0,0.0,0.0,0.0,0.0,0.0,0.0,0.0,0.0,0.0,0.0,0.0,0.0,0.0,0.0,0.0,0.0,0.0,0.0,0.0,0.0,0.0,0.0,0.0,0.0,0.0,0.0,-0.8796,-0.8999,-1.0303,-1.0406,-0.9087,-0.9038,-0.8768,-0.8226,-0.8508,-0.8829,0.0,0.0,0.0,0.0,0.0,0.0,0.0,0.0,0.0,0.0,0.0,0.0,0.0,0.0,0.0,0.0,0.0,0.0,0.0,0.0,0.0,0.0,0.0,0.0,0.0,0.0,0.0,0.0,0.0,0.0,0.0,0.0,0.0,0.0,0.0,0.0,0.0,0.0,0.0,0.0,0.0,0.0,-1.4433,-1.5028,0.0,0.0,0.0,-1.6133,-1.5752,0.0,0.0,0.0,0.0,0.0,0.0,0.0,0.0,0.0,0.0,0.0,0.0,0.0,0.0,0.0,0.0,0.0,0.0,0.0,0.0,0.0,0.0,0.0,0.0,0.0,0.0,0.0,0.0,0.0,0.0,0.0,0.0,0.0,0.0,0.0,0.0,0.0,0.0,0.0,0.0,0.0,0.0,0.0,0.0,0.0,0.0,0.0,0.0,0.0,0.0,0.0,0.0,0.0,0.0,0.0,0.0,0.0,-0.956,-1.09,-1.0775,-0.9062,-0.9298,-0.9161,-0.8453,-0.8606,0.0,0.0,0.0,0.0,0.0,0.0,0.0,0.0,0.0,0.0,0.0,0.0,0.0,0.0,0.0,0.0,0.0,0.0,0.0,0.0,0.0,0.0,0.0,0.0,0.0,0.0,0.0,-1.006,0.0,0.0,0.0,0.0,0.0,0.0,0.0,0.0,0.0,0.0,0.0,0.0,0.0,0.0,-1.4595,-1.504,-1.5668,-1.6219,0.0,0.0,-1.6786,-1.6616,-1.7192,-1.7855,0.0,0.0,0.0,0.0,0.0,0.0,0.0,0.0,0.0,0.0,0.0,0.0,0.0,0.0,0.0,0.0,0.0,0.0,0.0,0.0,0.0,0.0,0.0,0.0,0.0,0.0,0.0,0.0,0.0,0.0,0.0,0.0,0.0,0.0,0.0,0.0,0.0,0.0,0.0,0.0,0.0,0.0,0.0,0.0,0.0,0.0,0.0,0.0,0.0,0.0,0.0,0.0,0.0,0.0,0.0,-1.0419,-1.1277,-1.0871,-0.9265,-0.9689,-0.9578,-0.8795,-0.8953,-0.9101,0.0,0.0,0.0,0.0,0.0,0.0,0.0,0.0,0.0,0.0,0.0,0.0,0.0,0.0,0.0,0.0,0.0,0.0,0.0,0.0,0.0,0.0,0.0,0.0,0.0,0.0,0.0,0.0,0.0,0.0,0.0,0.0,0.0,0.0,0.0,0.0,0.0,0.0,0.0,0.0,0.0,-1.504,-1.5501,-1.6076,-1.6479,0.0,-1.6909,-1.7378,-1.7646,-1.7855,-1.8192,-1.8927,0.0,0.0,0.0,0.0,0.0,0.0,0.0,0.0,0.0,0.0,0.0,0.0,0.0,0.0,0.0,0.0,0.0,0.0,0.0,0.0,0.0,0.0,0.0,0.0,0.0,0.0,0.0,0.0,0.0,0.0,0.0,0.0,0.0,0.0,0.0,0.0,0.0,0.0,0.0,0.0,0.0,0.0,0.0,0.0,0.0,0.0,0.0,0.0,0.0,0.0,0.0,0.0,0.0,-0.9585,-0.9949,-1.0842,-1.0709,-0.9566,-0.9742,-0.9659,-0.9247,-0.9408,-0.954,0.0,0.0,0.0,0.0,0.0,0.0,0.0,0.0,0.0,0.0,0.0,0.0,0.0,0.0,0.0,0.0,0.0,0.0,0.0,0.0,0.0,0.0,0.0,0.0,0.0,0.0,0.0,0.0,-1.1367,-1.1478,-1.1902,0.0,0.0,0.0,0.0,0.0,0.0,0.0,0.0,0.0,0.0,-1.5511,-1.5964,-1.6667,0.0,0.0,-1.7828,-1.8185,-1.8076,-1.8482,-1.8984,-1.9224,-1.9241,0.0,0.0,0.0,0.0,0.0,0.0,0.0,0.0,0.0,0.0,0.0,0.0,0.0,0.0,0.0,0.0,0.0,0.0,0.0,0.0,0.0,0.0,0.0,0.0,0.0,0.0,0.0,0.0,0.0,0.0,0.0,0.0,0.0,0.0,0.0,0.0,0.0,0.0,0.0,0.0,0.0,0.0,0.0,0.0,0.0,0.0,0.0,0.0,0.0,0.0,0.0,0.0,-0.9756,-0.9707,-1.0743,-1.0794,-0.9874,-0.9947,-0.9848,-0.9632,-0.9738,-0.9905,0.0,0.0,0.0,0.0,0.0,0.0,0.0,0.0,0.0,0.0,0.0,0.0,0.0,0.0,0.0,0.0,0.0,0.0,0.0,0.0,0.0,0.0,0.0,0.0,0.0,0.0,0.0,0.0,-1.2029,-1.2155,-1.2781,0.0,0.0,0.0,0.0,0.0,0.0,0.0,0.0,0.0,0.0,-1.5996,-1.6441,-1.7089,-1.7544,-1.772,-1.8358,-1.8646,-1.8238,-1.8927,-1.962,-2.0049,0.0,0.0,0.0,0.0,0.0,0.0,0.0,0.0,0.0,0.0,0.0,0.0,0.0,0.0,0.0,0.0,0.0,0.0,0.0,0.0,0.0,0.0,0.0,0.0,0.0,0.0,0.0,-1.3172,0.0,0.0,-1.1695,0.0,0.0,0.0,0.0,0.0,0.0,0.0,0.0,0.0,0.0,0.0,0.0,0.0,0.0,0.0,0.0,0.0,0.0,0.0,0.0,0.0,0.0,-1.0196,-1.0039,-1.1132,-1.1257,-1.0243,-1.032,-1.0223,-0.9905,-1.0021,-1.011,-1.0223,0.0,0.0,0.0,0.0,0.0,0.0,0.0,0.0,0.0,0.0,0.0,0.0,0.0,0.0,0.0,0.0,0.0,0.0,0.0,0.0,0.0,0.0,0.0,0.0,0.0,0.0,-1.2896,-1.2473,-1.2542,0.0,0.0,0.0,0.0,0.0,0.0,0.0,0.0,0.0,0.0,-1.5964,-1.6441,-1.6909,-1.7297,-1.7598,-1.7787,-1.8383,-1.866,-1.8228,-1.9038,-2.0115,0.0,0.0,0.0,0.0,0.0,0.0,0.0,0.0,0.0,0.0,0.0,0.0,0.0,0.0,0.0,0.0,0.0,0.0,0.0,0.0,0.0,0.0,0.0,0.0,0.0,0.0,0.0,-1.6668,-1.5669,0.0,0.0,0.0,0.0,0.0,0.0,0.0,0.0,0.0,0.0,0.0,-1.4547,-1.4036,0.0,0.0,0.0,0.0,0.0,0.0,0.0,0.0,0.0,0.0,0.0,0.0,-1.0785,-1.0612,-1.1084,-1.099,-1.0359,-1.0111,-1.0054,-1.0173,-1.0173,-1.0468,-1.1107,0.0,0.0,0.0,0.0,0.0,0.0,0.0,0.0,0.0,0.0,0.0,0.0,0.0,0.0,0.0,0.0,0.0,0.0,0.0,0.0,0.0,0.0,0.0,0.0,0.0,-1.3815,0.0,0.0,0.0,0.0,0.0,0.0,0.0,0.0,0.0,0.0,0.0,-1.5582,-1.625,-1.6667,-1.706,-1.7516,-1.8028,-1.8422,0.0,0.0,0.0,0.0,0.0,0.0,0.0,0.0,0.0,0.0,0.0,0.0,0.0,0.0,-2.3056,-2.1645,-2.0789,-2.0596,-2.1791,0.0,0.0,0.0,0.0,0.0,0.0,0.0,0.0,0.0,0.0,0.0,0.0,0.0,0.0,-1.8681,0.0,-1.7593,0.0,0.0,0.0,0.0,0.0,0.0,0.0,0.0,-1.6209,-1.6179,-1.61,-1.5662,-1.5392,0.0,-1.4755,-1.3844,0.0,0.0,0.0,0.0,0.0,0.0,0.0,0.0,-1.1734,-1.1318,-1.1704,-1.1502,-1.0645,-1.0367,-1.025,-1.0363,-1.0422,-1.0971,-1.2058,-1.2243,-1.2742,0.0,0.0,0.0,0.0,0.0,0.0,0.0,0.0,0.0,0.0,0.0,0.0,0.0,0.0,0.0,0.0,0.0,0.0,0.0,0.0,0.0,0.0,0.0,-1.515,0.0,0.0,0.0,0.0,0.0,0.0,0.0,0.0,0.0,-1.6339,-1.6361,-1.6467,-1.7089,-1.7387,-1.7666,-1.8055,0.0,0.0,0.0,0.0,0.0,0.0,0.0,-2.1471,-2.3517,-2.3469,-2.3382,-2.3944,-2.4524,-2.4981,-2.5114,0.0,0.0,-2.3328,-2.2648,-2.2594,-2.3537,-2.3849,-2.4099,-2.4491,-2.4398,-2.4338,0.0,0.0,0.0,0.0,0.0,0.0,0.0,0.0,-2.035,-2.0127,0.0,-1.9434,0.0,0.0,0.0,0.0,0.0,-1.7866,0.0,0.0,-1.8106,-1.8066,-1.7841,-1.7504,-1.7079,-1.6629,-1.6133,-1.5652,-1.505,-1.3602,0.0,0.0,0.0,0.0,0.0,0.0,-1.2926,-1.2095,-1.2896,-1.2637,-1.108,-1.096,-1.0821,-1.0525,-1.0753,-1.1549,-1.2895,-1.2979,-1.3713,-1.5212,-1.4645,0.0,0.0,0.0,0.0,0.0,0.0,0.0,0.0,0.0,0.0,0.0,0.0,0.0,0.0,0.0,0.0,0.0,0.0,0.0,0.0,-1.6779,0.0,0.0,0.0,0.0,0.0,0.0,0.0,0.0,0.0,0.0,-1.7539,-1.7617,-1.7686,-1.8044,0.0,0.0,0.0,0.0,-1.9176,-1.9376,-1.9538,-1.9632,-1.9681,-2.015,-2.1572,-2.4846,0.0,0.0,-2.4859,-2.5253,-2.5406,-2.5605,-2.5828,-2.5864,-2.5297,-2.5096,-2.5128,-2.5221,-2.5772,-2.6168,-2.5675,-2.5477,-2.5458,-2.3283,0.0,0.0,0.0,0.0,-2.2892,-2.2872,-2.2833,-2.2833,-2.2363,-2.1564,-2.1444,0.0,0.0,0.0,0.0,0.0,0.0,-1.9945,-1.996,-1.9802,-1.9561,-1.9185,-1.8792,-1.8246,-1.7653,-1.7066,-1.6574,-1.6238,-1.5369,-1.4474,-1.3538,0.0,0.0,0.0,0.0,-1.3141,-1.2598,-1.2394,-1.1859,-1.1044,-1.0678,-1.0556,-1.0632,-1.0815,-1.1562,-1.295,-1.3221,-1.4003,-1.5345,-1.546,0.0,0.0,0.0,0.0,0.0,0.0,0.0,0.0,0.0,0.0,0.0,0.0,0.0,0.0,0.0,0.0,0.0,0.0,0.0,-1.7113,-1.7562,-1.7782,0.0,0.0,0.0,0.0,0.0,0.0,0.0,0.0,0.0,-1.8092,-1.8647,-1.874,0.0,0.0,-1.8486,-1.8898,-1.9199,-1.942,-1.9581,-1.969,0.0,-1.9732,-2.0538,-2.1584,-2.2725,-2.3248,-2.3895,-2.4808,-2.5075,-2.5363,-2.5892,-2.6134,-2.6154,-2.6013,-2.594,-2.6015,-2.6319,-2.6033,-2.579,-2.5982,-2.5706,-2.5326,-2.4848,-2.4076,-2.4389,-2.4425,-2.4225,-2.4206,-2.4225,-2.4208,-2.4226,-2.3823,-2.3198,-2.3144,-2.2666,-2.1882,-2.158,0.0,0.0,0.0,-2.1549,-2.1346,-2.1052,-2.062,-2.0051,-1.9738,-1.9251,-1.8559,-1.7999,-1.7544,-1.7105,-1.6367,-1.568,-1.5006,0.0,0.0,-1.4035,-1.4094,-1.3851,-1.3238,-1.2734,-1.2103,-1.129,-1.0727,-1.0619,-1.092,-1.0982,-1.1686,-1.3205,-1.342,-1.4207,-1.5709,-1.594,-1.597,0.0,0.0,0.0,0.0,0.0,0.0,0.0,0.0,0.0,0.0,0.0,-1.639,-1.6589,0.0,0.0,0.0,-1.7262,-1.786,-1.8562,-1.9102,0.0,0.0,0.0,0.0,0.0,0.0,0.0,-1.8293,-1.7901,-1.7825,-1.8177,-1.8893,-1.9165,-1.8588,-1.8758,-1.9049,-1.931,0.0,-1.9747,-1.9762,-1.9762,-1.9788,-1.9723,-2.0539,-2.144,-2.2115,-2.3128,-2.3984,-2.443,-2.4629,-2.4829,-2.5261,-2.5446,-2.5497,-2.5548,-2.5992,-2.6382,-2.649,-2.6083,-2.5761,-2.5911,-2.5544,-2.5177,-2.535,-2.537,-2.5004,-2.4797,-2.4723,-2.4741,-2.4746,-2.4734,-2.4734,-2.4654,-2.4538,-2.4489,-2.434,-2.4045,-2.3725,0.0,-2.3365,-2.3081,-2.274,-2.2302,-2.1928,-2.1327,-2.049,-2.0393,-2.0005,-1.9258,-1.8991,-1.8472,-1.7787,-1.6811,-1.6281,-1.6231,-1.5671,-1.5165,-1.4731,-1.4924,-1.4682,-1.3962,-1.359,-1.2878,-1.1746,-1.111,-1.0952,-1.1285,-1.1211,-1.1961,-1.3594,-1.3609,-1.44,-1.6074,-1.6123,-1.6148,-1.6203,0.0,0.0,0.0,0.0,0.0,0.0,0.0,0.0,0.0,0.0,0.0,0.0,0.0,0.0,0.0,-1.8886,0.0,-2.0406,-2.091,0.0,0.0,0.0,-2.1236,-2.0494,-2.0691,-2.0385,-1.9069,0.0,0.0,-1.8055,-1.8641,-1.9155,-1.9288,-1.9549,-1.9726,-1.9726,-1.9925,-2.0045,-1.9833,-1.9797,-1.9778,-1.9741,-2.04,-2.1375,-2.2486,-2.3388,-2.3768,-2.3884,-2.3901,-2.3966,-2.4261,-2.421,-2.4307,-2.4478,-2.5584,-2.6377,-2.5824,-2.5841,-2.579,-2.5401,-2.5209,-2.491,-2.3986,-2.4496,-2.4413,-2.4639,-2.5072,-2.5072,-2.508,-2.5094,-2.5094,-2.4968,-2.4814,-2.4955,-2.491,-2.467,-2.4501,-2.4307,-2.4045,-2.3692,-2.3436,-2.3302,-2.2677,-2.1983,-2.1242,-2.118,-2.0492,-1.9372,-1.9695,-1.9207,-1.7974,-1.7034,-1.6637,-1.6705,-1.6293,-1.5844,-1.5389,-1.4862,-1.452,-1.445,-1.3484,-1.2533,-1.1737,-1.1688,-1.1563,-1.1299,-1.1621,-1.2381,-1.3653,-1.4009,-1.4792,-1.6105,-1.6194,-1.6169,-1.6218,-1.6237,0.0,0.0,0.0,0.0,0.0,0.0,0.0,0.0,0.0,-1.8884,-1.924,0.0,-2.0046,0.0,-2.0492,-2.2063,-2.137,-2.1194,0.0,0.0,-2.1732,-2.1611,-2.1245,-2.1086,-2.0704,-2.0108,-1.9405,-1.8994,-1.9043,-1.9082,-1.9222,-1.956,-1.9634,-1.9762,-1.9919,-2.001,-2.008,-1.9955,-1.9919,-1.9889,-1.9829,-2.078,-2.1682,-2.2019,-2.2228,-2.2493,-2.3056,-2.3219,-2.3416,-2.3996,-2.4258,-2.437,-2.4382,-2.4791,-2.4896,-2.4659,-2.4462,-2.4523,-2.4956,-2.459,-2.4105,-2.333,-2.366,-2.3669,-2.3874,-2.424,-2.4966,-2.5264,-2.5253,-2.5241,-2.5164,-2.5044,-2.5137,-2.5149,-2.5075,-2.4956,-2.4762,-2.447,-2.4315,-2.4062,-2.3702,-2.3008,-2.2254,-2.1487,-2.1122,-2.0345,-1.9262,-1.9812,-1.947,-1.8266,-1.7625,-1.7284,-1.7227,-1.6808,-1.6466,-1.6287,-1.5299,-1.4788,-1.4737,-1.3581,-1.2694,-1.2129,-1.2301,-1.238,-1.224,-1.2416,-1.3058,-1.4109,-1.4357,-1.4983,-1.6093,-1.6166,-1.6202,-1.6215,-1.6709,-1.7289,0.0,0.0,0.0,0.0,0.0,0.0,0.0,0.0,0.0,0.0,0.0,-2.1182,-1.9679,-2.2095,-2.3324,-2.23,-2.2038,-2.2021,-2.2164,-2.2346,-2.2265,-2.1869,-2.1676,-2.1294,-2.0534,-2.0093,-1.9702,-1.9406,-1.95,-1.9525,-1.9301,-1.9431,-1.9641,-2.0035,-2.0166,-2.015,-2.0061,-2.0025,-2.0061,-2.0135,-2.1096,-2.1809,-2.1774,-2.1781,-2.1947,-2.2327,-2.2455,-2.2648,-2.3093,-2.3318,-2.3425,-2.3456,-2.349,-2.3556,-2.3667,-2.3593,-2.3737,-2.4342,-2.4121,-2.3795,-2.2796,-2.2843,-2.2839,-2.2852,-2.3035,-2.4482,-2.5041,-2.4974,-2.4976,-2.5011,-2.505,-2.5145,-2.5236,-2.5271,-2.5236,-2.5051,-2.4783,-2.4851,-2.4482,-2.3721,-2.305,-2.2222,-2.1298,-2.0625,-1.9833,-1.9014,-1.9462,-1.9259,-1.855,-1.8139,-1.7892,-1.7747,-1.724,-1.7086,-1.7229,-1.601,-1.5195,-1.4765,-1.3848,-1.3158,-1.2731,-1.3011,-1.3227,-1.3409,-1.3334,-1.3745,-1.4644,-1.4794,-1.5263,-1.6159,-1.6307,-1.6318,-1.623,-1.7375,-1.8517,0.0,-1.9389,0.0,0.0,0.0,0.0,0.0,0.0,0.0,0.0,-2.1727,-2.2095,-2.241,-2.3509,-2.3871,-2.3119,-2.3052,-2.2927,-2.2649,-2.2937,-2.2895,-2.2282,-2.2203,-2.1827,-2.0698,-2.073,-2.0406,-1.9596,-1.9771,-1.9627,-1.9004,-1.8979,-1.9282,-1.9839,-1.9931,-1.9897,-1.9947,-2.0,-2.0054,-2.0469,-2.1215,-2.1758,-2.1727,-2.1751,-2.1781,-2.1814,-2.1873,-2.1945,-2.2049,-2.2207,-2.2293,-2.2299,-2.2361,-2.2504,-2.3005,-2.311,-2.3298,-2.3732,-2.3789,-2.3774,-2.1344,-2.1998,-2.1917,-2.2287,-2.3012,-2.325,-2.3318,-2.3292,-2.3281,-2.364,-2.4263,-2.4983,-2.5258,-2.5225,-2.5269,-2.5206,-2.5107,-2.4856,-2.4298,-2.3534,-2.2755,-2.1655,-2.0309,-1.9987,-1.9249,-1.8248,-1.8028,-1.8084,-1.8235,-1.7558,-1.7495,-1.8055,-1.757,-1.7461,-1.7693,0.0,0.0,0.0,-1.4092,-1.3919,-1.3448,-1.377,-1.3794,-1.3423,-1.3753,0.0,-1.4703,-1.561,-1.6383,-1.6876,-1.7182,0.0,0.0,0.0,0.0,0.0,0.0,0.0,0.0,0.0,0.0,0.0,-2.2346,-2.2409,-2.2452,-2.2912,-2.3315,-2.3575,-2.3953,-2.3958,-2.3405,-2.3318,-2.3129,-2.2738,-2.2752,-2.2644,-2.2237,-2.2045,-2.1702,-2.123,-2.0939,-2.0686,-2.0258,-1.9318,-1.8776,-1.903,-1.8713,-1.8468,-1.856,-1.8622,-1.8774,-1.9183,-1.9489,-1.9695,-1.965,-2.0846,-2.152,-2.1404,-2.1568,-2.1751,-2.1797,-2.184,-2.1911,-2.1982,-2.2106,-2.2242,-2.2299,-2.2327,-2.2422,-2.2738,-2.2946,-2.3247,-2.3682,-2.3667,-2.3598,-2.034,-2.113,-2.1046,-2.1283,0.0,-2.1642,-2.1585,-2.1608,-2.2442,-2.3227,-2.3954,-2.4405,-2.479,-2.5038,-2.5087,-2.4765,-2.42,-2.4035,-2.3449,-2.249,-2.1643,-2.0686,-1.9653,-1.9121,-1.8403,-1.751,-1.7545,-1.7556,-1.7566,-1.7527,-1.7628,-1.7835,-1.7719,-1.7706,-1.776,-1.6422,-1.5118,-1.3801,-1.4254,-1.4345,-1.4087,-1.4541,-1.4631,-1.4355,-1.4847,0.0,0.0,0.0,0.0,0.0,0.0,0.0,0.0,0.0,0.0,-2.1469,-2.079,-2.071,-2.1535,-2.1746,-2.2024,-2.2453,-2.2605,-2.2799,-2.3042,-2.3336,-2.3652,-2.4014,-2.3901,-2.3681,-2.3437,-2.3294,-2.3091,-2.2764,-2.2712,-2.2561,-2.2237,-2.1969,-2.1661,-2.1356,-2.1021,-2.0724,-2.061,-1.9188,-1.8446,-1.8732,-1.8037,-1.7349,-1.7106,-1.77,-1.8329,-1.8556,-1.8594,-1.8824,-1.9275,-1.9891,-2.0862,-2.1247,-2.139,-2.1466,-2.1763,-2.1757,-2.1764,-2.1969,-2.2118,-2.2254,-2.2299,-2.2327,-2.2377,-2.2623,-2.2691,-2.2885,-2.3307,-2.3394,-2.3307,-1.9396,-2.0042,-1.9962,-2.0041,-2.0167,-2.0133,-2.0167,-2.0397,0.0,0.0,0.0,-2.3613,-2.3964,-2.446,-2.4447,-2.3931,-2.301,-2.2938,-2.2347,-2.1243,-2.0463,-1.977,-1.913,-1.84,-1.7698,-1.7084,-1.729,-1.7223,-1.6879,-1.7355,-1.7569,-1.7479,-1.7632,-1.7625,-1.7317,-1.6266,-1.5095,-1.3887,-1.4273,-1.4501,-1.4501,-1.5013,-1.5284,-1.5298,-1.5893,-1.6323,-1.657,-1.7441,-1.796,-1.8154,-1.8435,-1.8588,-1.8611,-1.9732,-2.0671,-2.1245,-2.1479,-2.1768,-2.2168,-2.2338,-2.246,-2.2542,-2.2632,-2.2902,-2.3318,-2.3382,-2.358,-2.4034,-2.3653,-2.3386,-2.3346,-2.3188,-2.297,-2.2642,-2.2615,-2.2463,-2.2096,-2.1853,-2.1587,-2.1246,-2.0973,-2.0695,-2.0391,-1.9179,-1.8187,-1.7945,-1.7182,-1.6353,-1.6038,-1.6985,-1.7807,-1.77,-1.7729,-1.7958,-1.8639,-1.9184,-1.9797,-2.1023,-2.1022,-2.0974,-2.1294,-2.145,-2.1584,-2.1823,-2.2061,-2.2237,-2.2282,-2.2282,-2.2366,-2.2579,-2.2477,-2.2432,-2.2833,-2.296,-2.2985,-1.8158,-1.8263,-1.8193,-1.8595,-1.9287,-1.9275,-1.9619,-2.0271,-2.1196,-2.1694,-2.1866,-2.2517,-2.2775,-2.2754,-2.2754,-2.2531,-2.2144,-2.1988,-2.1363,-2.0389,-1.9967,-1.9359,-1.8603,-1.8087,-1.7664,-1.7313,-1.6827,-1.6635,-1.6667,-1.6254,-1.6439,-1.7204,-1.7197,-1.6788,-1.6088,-1.5901,-1.5154,-1.3847,-1.3967,-1.4214,-1.4501,-1.4749,-1.5025,-1.5297,-1.5893,-1.6195,-1.6207,-1.7726,-1.8534,-1.8465,-1.9451,-1.9993,-2.0023,-2.0518,-2.0974,-2.1276,-2.1584,-2.1915,-2.2254,-2.2405,-2.2525,-2.2659,-2.2685,-2.2825,-2.3102,-2.3298,-2.3443,-2.3518,-2.3424,-2.3328,-2.3157,-2.3102,-2.2859,-2.2375,-2.2275,-2.2068,-2.154,-2.1433,-2.1246,-2.0925,-2.0827,-2.0426,-1.9665,-1.892,-1.7976,-1.7044,-1.6353,-1.5873,-1.5816,-1.6383,-1.6728,-1.6661,-1.7121,-1.7547,-1.7777,-1.8672,-1.9421,-1.9909,-2.0526,-2.0589,-2.0272,-2.0799,-2.1308,-2.1479,-2.1764,-2.2032,-2.2152,-2.2254,-2.2282,-2.2338,-2.2265,-2.2349,-2.247,-2.2426,-2.2527,-1.7326,-1.7747,-1.769,-1.7862,-1.8267,-1.865,-1.9268,-1.9939,-2.0316,-2.0788,-2.1348,-2.1612,-2.191,-2.2154,-2.2083,-2.1674,-2.1066,-2.0753,-2.0043,-1.9048,-1.8383,-1.7731,-1.713,-1.6442,-1.5991,-1.5719,-1.5448,-1.5377,-1.5433,-1.5499,-1.5778,-1.6261,-1.6335,-1.6016,-1.5345,-1.522,-1.4704,-1.3834,-1.4026,-1.4259,-1.4501,-1.4766,-1.5184,-1.5792,-1.6401,-1.6957,-1.7325,-1.8545,-1.9276,-1.9311,-1.9963,-2.0304,-2.0304,-2.0491,-2.0807,-2.1263,-2.1435,-2.1691,-2.202,-2.2332,-2.2525,-2.2596,-2.2676,-2.2738,-2.2868,-2.2968,-2.3146,-2.3369,-2.3182,-2.3058,-2.306,-2.279,-2.251,-2.2237,-2.2068,-2.1794,-2.1402,-2.1294,-2.1119,-2.0679,-2.0714,-2.0365,-1.9282,-1.7821,-1.697,-1.6577,-1.598,-1.5359,-1.5239,-1.5457,-1.5831,-1.6118,-1.6408,-1.6593,-1.6772,-1.7501,-1.861,-1.9765,-1.9838,-1.9818,-1.9772,-2.0477,-2.0862,-2.1134,-2.1368,-2.1491,-2.1554,-2.2006,-2.2111,-2.1932,-2.2152,-2.2254,-2.2237,-2.1995,-2.1946,-1.6362,-1.7041,-1.6931,-1.7098,-1.7549,-1.8245,-1.896,-1.9626,-1.958,-1.9987,-2.0621,-2.0639,-2.0905,-2.1287,-2.1156,-2.0623,-1.9848,-1.9487,-1.876,-1.7706,-1.6978,-1.6347,-1.5811,-1.5034,-1.4544,-1.435,-1.4217,-1.4206,-1.4356,-1.4791,-1.5092,-1.523,-1.555,-1.5406,-1.4765,-1.4598,-1.4254,-1.3814,-1.3993,-1.4276,-1.4566,-1.5026,-1.5606,-1.6286,-1.705,-1.7684,-1.8206,-1.9173,-1.9726,-1.9812,-2.0131,-2.0304,-2.0304,-2.0357,-2.0624,-2.1051,-2.1215,-2.1462,-2.1811,-2.2175,-2.2415,-2.2515,-2.2632,-2.2712,-2.2694,-2.2712,-2.2845,-2.3117,-2.28,-2.2607,-2.2755,-2.2429,-2.2096,-2.1994,-2.1657,-2.1292,-2.0988,-2.0812,-2.0527,-2.0077,-2.0144,-1.9766,-1.8461,-1.6692,-1.5816,-1.6218,-1.5576,-1.4918,-1.4842,-1.4763,-1.5058,-1.5653,-1.5797,-1.5845,-1.6143,-1.6683,-1.7654,-1.9231,-1.9004,-1.8969,-1.9348,-1.9743,-2.0047,-2.0273,-2.0478,-2.0588,-2.0766,-2.1401,-2.1699,-2.1477,-2.1335,-2.1371,-2.1283,-2.0989,-2.0925,-1.493,-1.512,-1.5055,-1.5923,-1.7404,-1.805,-1.8771,-1.942,-1.9194,-1.9093,-1.9271,-1.9442,-1.9472,-1.9297,-1.9302,-1.8968,-1.8394,-1.8274,-1.7646,-1.6675,-1.6475,-1.6032,-1.5296,-1.4754,-1.4497,-1.4327,-1.3699,-1.3565,-1.3927,-1.3905,-1.411,-1.4594,-1.5173,-1.5011,-1.4338,-1.4226,-1.4005,-1.3641,-1.3648,-1.4031,-1.4785,-1.5638,-1.6249,-1.6536,-1.7526,-1.7935,-1.763,-1.8972,-1.953,-1.9288,-1.9889,-2.0304,-2.0304,-2.0577,-2.0649,-2.0426,-2.0959,-2.1493,-2.1823,-2.1969,-2.2215,-2.2552,-2.2598,-2.2634,-2.2651,-2.2672,-2.2706,-2.2599,-2.218,-2.1942,-2.2214,-2.1943,-2.1602,-2.128,-2.0719,-2.0245,-1.997,-1.9324,-1.8838,-1.8625,-1.8703,-1.8192,-1.7149,-1.6187,-1.5639,-1.5624,-1.5129,-1.4721,-1.4828,-1.4624,-1.4606,-1.5165,-1.5315,-1.5581,-1.6023,-1.6488,-1.6819,-1.6879,-1.7547,-1.8035,-1.8281,-1.8454,-1.8656,-1.9046,-1.9024,-1.9397,-1.989,-2.0584,-2.1063,-2.0829,-2.0191,-1.9299,-1.9296,-1.9353,-1.9608,-1.446,-1.4544,-1.4456,-1.5356,-1.6867,-1.7589,-1.8362,-1.9043,-1.8946,-1.8825,-1.8716,-1.8842,-1.8877,-1.8842,-1.8606,-1.8318,-1.8056,-1.7411,-1.6709,-1.5928,-1.5201,-1.4444,-1.3813,-1.3082,-1.269,-1.2644,-1.2456,-1.253,-1.2733,-1.3097,-1.3419,-1.3749,-1.4162,-1.4101,-1.3696,-1.38,-1.3766,-1.3628,-1.3848,-1.4095,-1.4453,-1.469,-1.5134,-1.5737,-1.6305,-1.6698,-1.6964,-1.8007,-1.8557,-1.8476,-1.9394,-2.0051,-2.0279,-2.0435,-2.0429,-2.0335,-2.0731,-2.1166,-2.1524,-2.1628,-2.1595,-2.1396,-2.1457,-2.1515,-2.1564,-2.2234,-2.2302,-2.1271,-2.0782,-2.0622,-2.0682,-2.0444,-2.0188,-2.001,-1.9608,-1.927,-1.9165,-1.8762,-1.8422,-1.8207,-1.7823,-1.7333,-1.6542,-1.5857,-1.5416,-1.5209,-1.4907,-1.4814,-1.4721,-1.4547,-1.4515,-1.4655,-1.4718,-1.4968,-1.5551,-1.5919,-1.6084,-1.6323,-1.6924,-1.7395,-1.7134,-1.7745,-1.8207,-1.8145,-1.8207,-1.83,-1.8514,-1.9499,-2.0175,-1.9941,-1.9956,-1.9272,-1.8519,-1.8366,-1.8389,-1.4394,-1.4332,-1.4443,-1.5375,-1.6822,-1.731,-1.7968,-1.8625,-1.8585,-1.843,-1.8307,-1.8225,-1.8168,-1.8095,-1.7821,-1.7654,-1.7403,-1.6459,-1.5642,-1.4986,-1.4008,-1.3218,-1.2516,-1.1777,-1.1378,-1.1313,-1.1388,-1.1519,-1.1764,-1.265,-1.307,-1.311,-1.3276,-1.3331,-1.3285,-1.3412,-1.348,-1.3586,-1.3833,-1.3953,-1.3902,-1.3766,-1.4177,-1.5165,-1.5558,-1.5917,-1.631,-1.7319,-1.7877,-1.787,-1.8921,-1.9794,-2.0273,-2.0218,-2.02,-2.0304,-2.0527,-2.0827,-2.1134,-2.1291,-2.1122,-2.0632,-2.0775,-2.0816,-2.0679,-2.1302,-2.0985,-1.9369,-1.8958,-1.8952,-1.9503,-1.9267,-1.9083,-1.9038,-1.8638,-1.8336,-1.8291,-1.8018,-1.7577,-1.7349,-1.6909,-1.6516,-1.6031,-1.5574,-1.5238,-1.5118,-1.5043,-1.4921,-1.4641,-1.4547,-1.4438,-1.4319,-1.4332,-1.4491,-1.4963,-1.5286,-1.5595,-1.6069,-1.6548,-1.6413,-1.6035,-1.6877,-1.7348,-1.694,-1.7272,-1.7483,-1.7544,-1.8346,-1.892,-1.8858,-1.8874,-1.8636,-1.7459,-1.7354,-1.7133,-1.4695,-1.4431,-1.4976,-1.6056,-1.7504,-1.7345,-1.7745,-1.834,-1.7988,-1.7805,-1.7715,-1.7495,-1.7086,-1.6562,-1.6623,-1.6507,-1.604,-1.5298,-1.4415,-1.3555,-1.3308,-1.2768,-1.185,-1.1468,-1.1256,-1.1179,-1.0829,-1.0951,-1.1585,-1.26,-1.3067,-1.2826,-1.2838,-1.2978,-1.316,-1.3151,-1.3267,-1.3472,-1.3467,-1.3386,-1.3295,-1.3201,-1.3851,-1.5147,-1.5951,-1.6102,-1.6136,-1.7211,-1.779,-1.7608,-1.8539,-1.945,-2.0119,-1.9918,-1.9955,-2.0235,-2.0304,-2.0475,-2.0778,-2.0958,-2.0796,-2.0593,-2.1039,-2.1114,-1.9864,-1.9771,-1.9002,-1.7061,-1.6988,-1.7527,-1.8744,-1.8699,-1.8577,-1.8532,-1.7856,-1.743,-1.7339,-1.6719,-1.6063,-1.589,-1.5847,-1.5713,-1.543,-1.5327,-1.5268,-1.5224,-1.5118,-1.4935,-1.4794,-1.4624,-1.4433,-1.4351,-1.4332,-1.4342,-1.4394,-1.4774,-1.5309,-1.5653,-1.5639,-1.5447,-1.5433,-1.5492,-1.5639,-1.5743,-1.5995,-1.6233,-1.6501,-1.6787,-1.706,-1.7196,-1.7317,-1.6939,-1.6552,-1.615,-1.6057,-1.404,-1.4281,-1.4965,-1.5833,-1.6734,-1.674,-1.6893,-1.708,-1.6475,-1.6189,-1.6189,-1.6104,-1.5846,-1.5414,-1.496,-1.494,-1.5059,-1.4052,-1.3298,-1.2794,-1.2298,-1.1732,-1.1276,-1.1094,-1.1118,-1.1158,-1.1018,-1.1197,-1.1726,-1.2185,-1.2438,-1.2543,-1.2556,-1.265,-1.2814,-1.2931,-1.3012,-1.3104,-1.322,-1.3232,-1.3129,-1.3107,-1.3341,-1.3724,-1.4315,-1.457,-1.4467,-1.5946,-1.6711,-1.6638,-1.7965,-1.8717,-1.8864,-1.9612,-2.002,-1.9955,-2.015,-2.0357,-2.0475,-2.0561,-2.0192,-1.9384,-1.9967,-2.0078,-1.911,-1.8251,-1.7365,-1.6748,-1.634,-1.6663,-1.7094,-1.7338,-1.7326,-1.7139,-1.6884,-1.6604,-1.643,-1.6019,-1.5697,-1.561,-1.5507,-1.5403,-1.5328,-1.5268,-1.5298,-1.5283,-1.4966,-1.4766,-1.4732,-1.4497,-1.4287,-1.4287,-1.4314,-1.4322,-1.4319,-1.4598,-1.4932,-1.5002,-1.4976,-1.4871,-1.4813,-1.5061,-1.5281,-1.525,-1.5239,-1.5432,-1.5855,-1.6289,-1.632,-1.6159,-1.6263,-1.6203,-1.5918,-1.5713,-1.5741,-1.4519,-1.525,-1.5491,-1.5868,-1.6315,-1.6392,-1.6265,-1.5977,-1.5416,-1.5159,-1.5159,-1.5091,-1.4811,-1.4363,-1.3684,-1.3449,-1.3662,-1.2833,-1.2402,-1.2203,-1.1603,-1.1164,-1.0962,-1.1104,-1.1168,-1.1227,-1.1381,-1.1541,-1.1685,-1.181,-1.2013,-1.2282,-1.2294,-1.2401,-1.2579,-1.2791,-1.2896,-1.2896,-1.3094,-1.3176,-1.3094,-1.306,-1.2955,-1.2873,-1.322,-1.3459,-1.3472,-1.5065,-1.5958,-1.618,-1.7449,-1.8263,-1.8215,-1.8999,-1.9523,-1.953,-1.9762,-1.9904,-1.9909,-1.9917,-1.9421,-1.8439,-1.8874,-1.9083,-1.8659,-1.7797,-1.7176,-1.6667,-1.6239,-1.6071,-1.6243,-1.6398,-1.6355,-1.6219,-1.6136,-1.6024,-1.5898,-1.5639,-1.5536,-1.5477,-1.5388,-1.5298,-1.5268,-1.5178,-1.5147,-1.5131,-1.4749,-1.4547,-1.4465,-1.4547,-1.4346,-1.4353,-1.4593,-1.4562,-1.445,-1.4546,-1.4634,-1.4664,-1.4637,-1.4463,-1.4387,-1.4696,-1.4814,-1.4766,-1.4842,-1.5011,-1.5307,-1.5766,-1.574,-1.5521,-1.5549,-1.5589,-1.5461,-1.5448,-1.5433,-1.6172,-1.704,-1.6619,-1.6188,-1.6276,-1.6166,-1.5894,-1.5213,-1.4896,-1.4638,-1.4524,-1.4495,-1.3917,-1.3383,-1.2841,-1.2358,-1.197,-1.1918,-1.1778,-1.1547,-1.1324,-1.1155,-1.1007,-1.1465,-1.1561,-1.1354,-1.1697,-1.1676,-1.1434,-1.1672,-1.1923,-1.2066,-1.2077,-1.2186,-1.2473,-1.2638,-1.2791,-1.2791,-1.2978,-1.3129,-1.3107,-1.2978,-1.2873,-1.2838,-1.3027,-1.3169,-1.3169,-1.4777,-1.571,-1.588,-1.7114,-1.8082,-1.8288,-1.8281,-1.8309,-1.8991,-1.9139,-1.9139,-1.9155,-1.9031,-1.8714,-1.8132,-1.8362,-1.8651,-1.8378,-1.841,-1.789,-1.6694,-1.621,-1.6067,-1.6191,-1.6065,-1.6011,-1.5953,-1.5797,-1.5668,-1.558,-1.5418,-1.5298,-1.5298,-1.5268,-1.5283,-1.5222,-1.4994,-1.4808,-1.4732,-1.4479,-1.4176,-1.4092,-1.44,-1.4711,-1.4615,-1.467,-1.4784,-1.4627,-1.4492,-1.4454,-1.4397,-1.4353,-1.4232,-1.4163,-1.4308,-1.4415,-1.4415,-1.4592,-1.4732,-1.4704,-1.5102,-1.5063,-1.4892,-1.4944,-1.5077,-1.5082,-1.5072,-1.498,-1.5431,-1.6064,-1.5429,-1.5429,-1.567,-1.4825,-1.4224,-1.394,-1.342,-1.3073,-1.2904,-1.2818,-1.2565,-1.2185,-1.1836,-1.1649,-1.1444,-1.1656,-1.1541,-1.1155,-1.0982,-1.1121,-1.1378,-1.1597,-1.1774,-1.1926,-1.2015,-1.1907,-1.1705,-1.1732,-1.1859,-1.192,-1.1723,-1.176,-1.1993,-1.2029,-1.2043,-1.2224,-1.2555,-1.2803,-1.3015,-1.2908,-1.2803,-1.2781,-1.3155,-1.3362,-1.3435,-1.4663,-1.541,-1.57,-1.6903,-1.7747,-1.7974,-1.7951,-1.8156,-1.8626,-1.8936,-1.9116,-1.9087,-1.9009,-1.8714,-1.8283,-1.8459,-1.8064,-1.7288,-1.777,-1.7564,-1.6292,-1.5972,-1.5961,-1.5799,-1.5639,-1.561,-1.5711,-1.5668,-1.5522,-1.5418,-1.5343,-1.5298,-1.5283,-1.51,-1.4978,-1.4902,-1.4683,-1.4447,-1.4415,-1.4072,-1.3788,-1.3901,-1.396,-1.4011,-1.4226,-1.4567,-1.5004,-1.4955,-1.4614,-1.425,-1.4111,-1.3976,-1.39,-1.3838,-1.3887,-1.4,-1.4138,-1.4319,-1.4401,-1.4374,-1.4392,-1.4442,-1.4523,-1.4686,-1.4746,-1.4777,-1.4746,-1.4651,-1.5082,-1.5081,-1.4617,-1.4483,-1.4553,-1.3649,-1.31,-1.2771,-1.2349,-1.2039,-1.1884,-1.1841,-1.174,-1.1593,-1.1554,-1.1575,-1.1599,-1.1889,-1.1855,-1.1501,-1.1422,-1.1614,-1.1912,-1.1864,-1.2036,-1.2237,-1.213,-1.192,-1.1811,-1.1712,-1.1686,-1.1686,-1.1448,-1.1485,-1.17,-1.1653,-1.1693,-1.1972,-1.2187,-1.252,-1.2914,-1.2758,-1.271,-1.3011,-1.3324,-1.3372,-1.3313,-1.4261,-1.5184,-1.5905,-1.6957,-1.7679,-1.7922,-1.7906,-1.8037,-1.8252,-1.8489,-1.8644,-1.8669,-1.8475,-1.8372,-1.805,-1.8091,-1.7722,-1.6781,-1.713,-1.6847,-1.6683,-1.6038,-1.5799,-1.5905,-1.552,-1.5387,-1.5463,-1.5463,-1.5418,-1.5313,-1.5192,-1.5117,-1.5039,-1.4808,-1.4651,-1.4556,-1.4319,-1.4092,-1.404,-1.3843,-1.3626,-1.3842,-1.4008,-1.4274,-1.4513,-1.484,-1.5153,-1.5299,-1.4819,-1.4121,-1.3816,-1.3604,-1.3476,-1.3401,-1.3514,-1.3615,-1.3874,-1.4072,-1.4092,-1.4078,-1.4176,-1.4241,-1.4324,-1.436,-1.4292,-1.43,-1.4319,-1.4268,-1.5023,-1.4287,-1.4105,-1.3665,-1.3145,-1.294,-1.2508,-1.1901,-1.1805,-1.1725,-1.1579,-1.1607,-1.1562,-1.1595,-1.1837,-1.2004,-1.2078,-1.2389,-1.2436,-1.2381,-1.2392,-1.2472,-1.2316,-1.2234,-1.2295,-1.2318,-1.1982,-1.1774,-1.1712,-1.1549,-1.1394,-1.1373,-1.1309,-1.1276,-1.1479,-1.1542,-1.1616,-1.1813,-1.1861,-1.2258,-1.3156,-1.2716,-1.2802,-1.3576,-1.3746,-1.3602,-1.336,-1.4165,-1.5067,-1.6057,-1.7183,-1.7869,-1.7936,-1.7922,-1.7909,-1.7949,-1.7922,-1.8003,-1.788,-1.7866,-1.7684,-1.7637,-1.7441,-1.7035,-1.6872,-1.663,-1.6761,-1.728,-1.6397,-1.587,-1.6281,-1.5901,-1.5472,-1.531,-1.5296,-1.5222,-1.5208,-1.4932,-1.4822,-1.476,-1.4538,-1.43,-1.4295,-1.4013,-1.3879,-1.3809,-1.3864,-1.3801,-1.3952,-1.4336,-1.5011,-1.5085,-1.4854,-1.4878,-1.49,-1.4642,-1.385,-1.2995,-1.2947,-1.3071,-1.3046,-1.3179,-1.3365,-1.3594,-1.3775,-1.3808,-1.3841,-1.3974,-1.4007,-1.3993,-1.396,-1.3808,-1.3841,-1.3974,-1.404,-1.436,-1.412,-1.3534,-1.3129,-1.278,-1.2336,-1.194,-1.1593,-1.1593,-1.1495,-1.137,-1.1684,-1.177,-1.1654,-1.2128,-1.2334,-1.2428,-1.2844,-1.2873,-1.2662,-1.3039,-1.275,-1.2296,-1.2225,-1.2236,-1.2198,-1.1833,-1.1586,-1.1549,-1.1459,-1.1346,-1.1271,-1.1158,-1.112,-1.1099,-1.1088,-1.1014,-1.11,-1.1201,-1.2108,-1.347,-1.3481,-1.3724,-1.4545,-1.4929,-1.4833,-1.4514,-1.5281,-1.5811,-1.6121,-1.7262,-1.7896,-1.7909,-1.7882,-1.7882,-1.7922,-1.7922,-1.7922,-1.7895,-1.7839,-1.7783,-1.7781,-1.752,-1.7295,-1.7112,-1.7001,-1.6957,-1.7076,-1.673,-1.6775,-1.6733,-1.6293,-1.5866,-1.5509,-1.5237,-1.4907,-1.4735,-1.4479,-1.4488,-1.4575,-1.4278,-1.4093,-1.4059,-1.4037,-1.4034,-1.3966,-1.3912,-1.3914,-1.4074,-1.3888,-1.4216,-1.4371,-1.4274,-1.4335,-1.4332,-1.4161,-1.3497,-1.2291,-1.2215,-1.264,-1.2722,-1.2871,-1.3101,-1.3344,-1.3594,-1.3695,-1.3775,-1.3841,-1.3808,-1.3775,-1.3775,-1.3775,-1.3775,-1.3874,-1.3874,-1.3355,-1.2974,-1.2492,-1.2199,-1.2033,-1.1651,-1.1551,-1.1613,-1.1632,-1.1668,-1.1762,-1.2029,-1.2115,-1.2062,-1.2589,-1.2772,-1.2751,-1.336,-1.3348,-1.2847,-1.2849,-1.256,-1.2198,-1.2177,-1.2077,-1.1833,-1.1586,-1.1459,-1.1373,-1.1309,-1.1233,-1.1158,-1.1044,-1.1138,-1.1383,-1.0981,-1.0922,-1.112,-1.1157,-1.1925,-1.3457,-1.3704,-1.4327,-1.5096,-1.5614,-1.554,-1.5121,-1.5405,-1.5733,-1.6245,-1.7037,-1.7703,-1.7855,-1.7706,-1.7679,-1.7882,-1.7922,-1.7922,-1.7922,-1.7922,-1.7922,-1.7882,-1.7724,-1.7614,-1.7545,-1.7539,-1.7395,-1.7381,-1.7143,-1.6962,-1.693,-1.6473,-1.593,-1.5564,-1.5223,-1.5019,-1.4951,-1.4674,-1.4593,-1.4584,-1.4371,-1.4062,-1.4072,-1.3972,-1.3937,-1.395,-1.3864,-1.3914,-1.3973,-1.3556,-1.3397,-1.3795,-1.3905,-1.3944,-1.3782,-1.3581,-1.3081,-1.1921,-1.1714,-1.2163,-1.2371,-1.2555,-1.2812,-1.3091,-1.3378,-1.3594,-1.3628,-1.3708,-1.3775,-1.3775,-1.3775,-1.3775,-1.3741,-1.3708,-1.3741,-1.2213,-1.1482,-1.1339,-1.1221,-1.1249,-1.1174,-1.1503,-1.1822,-1.1879,-1.2074,-1.2374,-1.2493,-1.2547,-1.2588,-1.3125,-1.3316,-1.3053,-1.361,-1.3432,-1.2857,-1.2378,-1.1984,-1.1972,-1.1984,-1.1796,-1.1496,-1.1384,-1.1309,-1.1223,-1.1158,-1.112,-1.1075,-1.102,-1.1277,-1.1483,-1.1139,-1.124,-1.152,-1.1216,-1.1877,-1.3242,-1.3824,-1.4606,-1.5654,-1.5809,-1.5703,-1.5298,-1.5124,-1.5246,-1.6126,-1.6701,-1.719,-1.7538,-1.7337,-1.7312,-1.7611,-1.7679,-1.772,-1.776,-1.772,-1.776,-1.7693,-1.7733,-1.7788,-1.7666,-1.7625,-1.7638,-1.7678,-1.6996,-1.6805,-1.6845,-1.6376,-1.5938,-1.5575,-1.5423,-1.5509,-1.566,-1.5154,-1.4728,-1.4915,-1.4588,-1.4422,-1.416,-1.384,-1.3533,-1.3865,-1.3828,-1.3889,-1.3862,-1.3592,-1.3577,-1.3891,-1.3821,-1.3568,-1.3311,-1.3007,-1.2364,-1.1623,-1.1577,-1.1797,-1.1971,-1.2198,-1.252,-1.2779,-1.2988,-1.3207,-1.3378,-1.3527,-1.3607,-1.3586,-1.3416,-1.3506,-1.3607,-1.356,-1.356,-1.1603,-1.1316,-1.1127,-1.129,-1.161,-1.1665,-1.1921,-1.2347,-1.2291,-1.2343,-1.2517,-1.282,-1.2934,-1.2974,-1.3507,-1.3638,-1.319,-1.3323,-1.2998,-1.2151,-1.1649,-1.1437,-1.1437,-1.1549,-1.1485,-1.1271,-1.1223,-1.1223,-1.1185,-1.112,-1.1044,-1.0999,-1.1182,-1.1328,-1.1348,-1.1308,-1.1244,-1.1554,-1.1249,-1.2013,-1.3566,-1.4361,-1.5121,-1.6192,-1.619,-1.6056,-1.5948,-1.5605,-1.5363,-1.5421,-1.5668,-1.6231,-1.6769,-1.66,-1.6579,-1.6938,-1.7115,-1.7128,-1.7128,-1.717,-1.7128,-1.7183,-1.7212,-1.7128,-1.7141,-1.7183,-1.7183,-1.7199,-1.7055,-1.6822,-1.6639,-1.6478,-1.6166,-1.5787,-1.5427,-1.5438,-1.5809,-1.5371,-1.4967,-1.4904,-1.4879,-1.4688,-1.4563,-1.43,-1.4001,-1.389,-1.3791,-1.3825,-1.3703,-1.3482,-1.3517,-1.365,-1.3395,-1.3107,-1.2985,-1.2623,-1.2068,-1.1616,-1.1538,-1.1522,-1.1697,-1.187,-1.2186,-1.2389,-1.2532,-1.2779,-1.3057,-1.3107,-1.3201,-1.3097,-1.3037,-1.3035,-1.3091,-1.3229,-1.331,-1.1561,-1.1621,-1.1596,-1.1759,-1.2048,-1.2089,-1.2332,-1.2703,-1.2753,-1.2914,-1.312,-1.3282,-1.3278,-1.3304,-1.3413,-1.3259,-1.2894,-1.2614,-1.2294,-1.1811,-1.1437,-1.1195,-1.1158,-1.1195,-1.1233,-1.1158,-1.1158,-1.1109,-1.1033,-1.1027,-1.0984,-1.1042,-1.1237,-1.1518,-1.1674,-1.1499,-1.1561,-1.1768,-1.1601,-1.2187,-1.3521,-1.4409,-1.5245,-1.6083,-1.616,-1.5973,-1.5654,-1.5303,-1.5051,-1.4971,-1.4937,-1.5276,-1.5888,-1.5928,-1.5954,-1.6009,-1.6557,-1.668,-1.6735,-1.6833,-1.6931,-1.6876,-1.6888,-1.6888,-1.6888,-1.6888,-1.6956,-1.6956,-1.685,-1.6587,-1.6332,-1.636,-1.6195,-1.6074,-1.5765,-1.5753,-1.5978,-1.5575,-1.5107,-1.5132,-1.5318,-1.4952,-1.4662,-1.415,-1.3952,-1.3569,-1.3264,-1.3277,-1.318,-1.3023,-1.3011,-1.3011,-1.2794,-1.2615,-1.2614,-1.2325,-1.1838,-1.1575,-1.1511,-1.1522,-1.1586,-1.1734,-1.187,-1.2077,-1.2246,-1.2461,-1.2673,-1.2733,-1.2745,-1.2733,-1.2649,-1.2531,-1.2579,-1.2814,-1.2883,-1.1762,-1.2,-1.2184,-1.2327,-1.2486,-1.2457,-1.2777,-1.3183,-1.316,-1.3322,-1.3743,-1.3501,-1.3221,-1.3251,-1.2985,-1.2696,-1.2318,-1.1884,-1.159,-1.1575,-1.125,-1.1071,-1.1033,-1.0995,-1.0995,-1.1044,-1.1131,-1.1043,-1.0884,-1.0899,-1.1145,-1.1236,-1.1406,-1.1721,-1.2118,-1.1959,-1.185,-1.2061,-1.1947,-1.232,-1.3231,-1.4146,-1.5014,-1.5923,-1.6029,-1.5862,-1.5527,-1.5196,-1.4853,-1.4773,-1.4521,-1.4652,-1.4959,-1.5241,-1.5339,-1.5049,-1.5768,-1.6107,-1.6219,-1.6423,-1.6582,-1.6629,-1.6693,-1.6629,-1.6579,-1.66,-1.6688,-1.6595,-1.6391,-1.6034,-1.5952,-1.5899,-1.5967,-1.5948,-1.5985,-1.5985,-1.5838,-1.5494,-1.5122,-1.5212,-1.5159,-1.4838,-1.4034,-1.3346,-1.3311,-1.3252,-1.295,-1.2768,-1.2709,-1.2651,-1.2698,-1.2639,-1.2472,-1.2269,-1.2255,-1.2107,-1.1645,-1.1522,-1.1485,-1.1485,-1.1485,-1.156,-1.1697,-1.1833,-1.2041,-1.2174,-1.221,-1.222,-1.2269,-1.2307,-1.2199,-1.2043,-1.2198,-1.2473,-1.2473,-1.2102,-1.1963,-1.2363,-1.2654,-1.2786,-1.2825,-1.3132,-1.3689,-1.3329,-1.3305,-1.3327,-1.2941,-1.2708,-1.2638,-1.2615,-1.2318,-1.1859,-1.1415,-1.1223,-1.1185,-1.0985,-1.0871,-1.086,-1.0856,-1.0758,-1.0819,-1.1123,-1.1165,-1.0973,-1.1287,-1.1436,-1.1352,-1.1776,-1.2201,-1.2086,-1.1984,-1.2118,-1.2253,-1.213,-1.2497,-1.328,-1.4048,-1.4835,-1.5889,-1.5953,-1.5914,-1.594,-1.5582,-1.5263,-1.4989,-1.4639,-1.4499,-1.4571,-1.4777,-1.4744,-1.4744,-1.5083,-1.5468,-1.5513,-1.5635,-1.5485,-1.5348,-1.5622,-1.5721,-1.5599,-1.5733,-1.6022,-1.5874,-1.5569,-1.5253,-1.5776,-1.5447,-1.5242,-1.5229,-1.5205,-1.5127,-1.4817,-1.4623,-1.4647,-1.4805,-1.4767,-1.4512,-1.3592,-1.296,-1.2986,-1.2999,-1.2842,-1.2697,-1.2627,-1.2556,-1.2472,-1.2389,-1.2258,-1.2077,-1.1906,-1.1756,-1.1533,-1.1485,-1.1448,-1.1485,-1.1485,-1.1421,-1.1522,-1.1623,-1.166,-1.1686,-1.1734,-1.1782,-1.1771,-1.1822,-1.1675,-1.1564,-1.1748,-1.1968,-1.1943,-1.2113,-1.2083,-1.238,-1.2639,-1.2793,-1.2739,-1.291,-1.3157,-1.2928,-1.2789,-1.2649,-1.2378,-1.2174,-1.2102,-1.1895,-1.1638,-1.1341,-1.104,-1.0871,-1.0822,-1.0746,-1.0708,-1.0769,-1.0794,-1.0865,-1.1055,-1.1432,-1.1432,-1.0965,-1.1494,-1.1683,-1.1719,-1.2025,-1.2184,-1.2282,-1.2282,-1.2272,-1.2374,-1.241,-1.2647,-1.3395,-1.4025,-1.4792,-1.5166,-1.5425,-1.5471,-1.5644,-1.5477,-1.5246,-1.5067,-1.4886,-1.4635,-1.4518,-1.4499,-1.4501,-1.4492,-1.4709,-1.488,-1.4937,-1.5142,-1.5101,-1.4681,-1.492,-1.505,-1.4974,-1.5155,-1.5358,-1.527,-1.495,-1.4636,-1.4929,-1.479,-1.467,-1.4634,-1.4634,-1.4542,-1.4289,-1.4036,-1.4045,-1.4241,-1.4332,-1.3964,-1.3156,-1.2747,-1.2722,-1.2709,-1.2674,-1.2591,-1.2508,-1.233,-1.2186,-1.2089,-1.1895,-1.1686,-1.1527,-1.1426,-1.1373,-1.1325,-1.141,-1.1448,-1.1421,-1.1346,-1.1309,-1.1373,-1.1335,-1.1335,-1.1421,-1.1544,-1.1432,-1.1346,-1.1362,-1.1351,-1.1389,-1.1437,-1.1511,-1.2013,-1.2201,-1.236,-1.2542,-1.2638,-1.2567,-1.2484,-1.2425,-1.227,-1.2223,-1.2162,-1.1847,-1.1664,-1.1516,-1.1266,-1.0975,-1.085,-1.0725,-1.0687,-1.0651,-1.0723,-1.0743,-1.0765,-1.0984,-1.1128,-1.1172,-1.162,-1.1762,-1.1351,-1.1714,-1.1901,-1.1926,-1.1967,-1.2206,-1.2385,-1.2404,-1.2372,-1.2395,-1.2573,-1.2883,-1.3424,-1.4045,-1.4515,-1.4506,-1.4591,-1.4885,-1.5091,-1.5283,-1.5195,-1.5116,-1.5031,-1.4855,-1.451,-1.454,-1.4555,-1.4457,-1.4567,-1.4616,-1.4708,-1.488,-1.48,-1.4364,-1.4497,-1.4595,-1.4724,-1.4947,-1.5093,-1.4886,-1.428,-1.4117,-1.4325,-1.4217,-1.4144,-1.4132,-1.4132,-1.406,-1.3768,-1.3452,-1.3136,-1.3356,-1.3753,-1.3521,-1.2782,-1.2698,-1.2686,-1.2484,-1.2437,-1.2258,-1.2138,-1.192,-1.1737,-1.1686,-1.1511,-1.126,-1.1136,-1.1105,-1.1078,-1.1078,-1.125,-1.1421,-1.1346,-1.1271,-1.1233,-1.1195,-1.1158,-1.1158,-1.1206,-1.1303,-1.1292,-1.1271,-1.1185,-1.1174,-1.125,-1.1287,-1.1335,-1.1871,-1.2129,-1.2378,-1.2413,-1.2282,-1.2198,-1.227,-1.2234,-1.1957,-1.1847,-1.1799,-1.1404,-1.1153,-1.1002,-1.0812,-1.0659,-1.0621,-1.0633,-1.0614,-1.0635,-1.0875,-1.0931,-1.0928,-1.1013,-1.1194,-1.1274,-1.1591,-1.1598,-1.1528,-1.2025,-1.2139,-1.2007,-1.2205,-1.2374,-1.2255,-1.2274,-1.2274,-1.2149,-1.2223,-1.2681,-1.3348,-1.4083,-1.435,-1.4547,-1.4709,-1.4877,-1.4811,-1.5051,-1.5257,-1.508,-1.5007,-1.4811,-1.4593,-1.4932,-1.48,-1.4569,-1.4439,-1.4419,-1.4512,-1.4517,-1.4407,-1.4147,-1.4404,-1.4639,-1.4621,-1.5037,-1.5251,-1.4693,-1.37,-1.3334,-1.3765,-1.3768,-1.3662,-1.3552,-1.3464,-1.3237,-1.2949,-1.2684,-1.2364,-1.245,-1.2773,-1.2852,-1.252,-1.2603,-1.2639,-1.2401,-1.2174,-1.1945,-1.1726,-1.1505,-1.1207,-1.1115,-1.1109,-1.0863,-1.0457,-1.0504,-1.0619,-1.0695,-1.1012,-1.1271,-1.1233,-1.1158,-1.112,-1.1082,-1.1006,-1.0995,-1.112,-1.1168,-1.1206,-1.1158,-1.1061,-1.1099,-1.1174,-1.1185,-1.1147,-1.1534,-1.1686,-1.1796,-1.1796,-1.1649,-1.1586,-1.1575,-1.1575,-1.1389,-1.1276,-1.1228,-1.105,-1.085,-1.0697,-1.0534,-1.0505,-1.0517,-1.0627,-1.0665,-1.0723,-1.0971,-1.1118,-1.1147,-1.1344,-1.148,-1.1398,-1.1563,-1.1686,-1.1776,-1.2052,-1.2347,-1.2127,-1.222,-1.2206,-1.2026,-1.1977,-1.1828,-1.1846,-1.2053,-1.2572,-1.3159,-1.3602,-1.3941,-1.395,-1.4163,-1.4273,-1.4464,-1.4615,-1.4961,-1.4952,-1.4962,-1.4913,-1.4953,-1.5139,-1.5098,-1.5244,-1.4595,-1.4337,-1.4365,-1.3982,-1.3729,-1.352,-1.3727,-1.3734,-1.3916,-1.4638,-1.4846,-1.3744,-1.2896,-1.2726,-1.298,-1.2847,-1.2765,-1.2681,-1.2691,-1.2464,-1.2157,-1.1819,-1.1608,-1.1715,-1.1786,-1.1864,-1.1892,-1.1833,-1.1847,-1.1811,-1.1616,-1.1431,-1.1207,-1.1029,-1.0725,-1.0428,-1.0497,-1.0488,-0.9972,-0.972,-0.9944,-1.0118,-1.0572,-1.0822,-1.1082,-1.1082,-1.0968,-1.093,-1.093,-1.0957,-1.0995,-1.1033,-1.1044,-1.0995,-1.0947,-1.1023,-1.1071,-1.1033,-1.0995,-1.1185,-1.1223,-1.1298,-1.126,-1.1099,-1.1033,-1.0995,-1.0957,-1.0833,-1.0746,-1.0738,-1.0732,-1.0674,-1.0527,-1.0469,-1.0478,-1.0469,-1.0608,-1.0759,-1.0885,-1.1092,-1.1183,-1.1287,-1.1547,-1.1627,-1.1379,-1.1447,-1.1531,-1.1625,-1.1877,-1.2076,-1.2076,-1.1959,-1.1877,-1.1678,-1.1595,-1.1547,-1.166,-1.2107,-1.256,-1.2879,-1.3091,-1.3304,-1.3382,-1.3442,-1.3536,-1.3846,-1.4145,-1.4473,-1.4487,-1.517,-1.5416,-1.5605,-1.4879,-1.4687,-1.4715,-1.4296,-1.4185,-1.41,-1.3881,-1.3368,-1.3292,-1.3259,-1.363,-1.3537,-1.4247,-1.4232,-1.2997,-1.2341,-1.2068,-1.2059,-1.2159,-1.2146,-1.2073,-1.1856,-1.1664,-1.1457,-1.1169,-1.1019,-1.1099,-1.1092,-1.0891,-1.0899,-1.085,-1.0916,-1.1105,-1.1029,-1.0878,-1.0687,-1.0467,-1.0225,-0.9922,-1.0029,-1.0009,-0.9549,-0.9257,-0.9358,-0.9584,-1.004,-1.038,-1.0621,-1.0708,-1.0603,-1.0641,-1.0718,-1.0669,-1.0621,-1.0746,-1.0881,-1.0919,-1.0909,-1.0919,-1.0919,-1.0881,-1.0881,-1.0964,-1.0764,-1.1002,-1.105,-1.0888,-1.0764,-1.0687,-1.0621,-1.0505,-1.0487,-1.0547,-1.0614,-1.0512,-1.0278,-1.0447,-1.0548,-1.059,-1.0577,-1.0785,-1.1062,-1.1306,-1.1257,-1.1363,-1.1483,-1.1607,-1.1282,-1.1242,-1.1242,-1.1267,-1.1276,-1.1377,-1.1368,-1.1504,-1.1385,-1.1326,-1.1234,-1.1395,-1.1519,-1.1961,-1.2187,-1.2387,-1.252,-1.2683,-1.2939,-1.3007,-1.305,-1.3139,-1.3537,-1.3888,-1.385,-1.4808,-1.5728,-1.5487,-1.4194,-1.3622,-1.3594,-1.3741,-1.3665,-1.3758,-1.3895,-1.4187,-1.4209,-1.4111,-1.3805,-1.352,-1.315,-1.2871,-1.2642,-1.2151,-1.2004,-1.205,-1.2089,-1.2008,-1.1764,-1.154,-1.1234,-1.1019,-1.0639,-1.0495,-1.0505,-1.0438,-1.0293,-1.0118,-1.0137,-1.0341,-1.0534,-1.0408,-1.0254,-1.004,-0.9853,-0.9686,-0.9536,-0.9603,-0.9524,-0.9128,-0.9004,-0.8953,-0.9239,-0.9679,-0.9923,-1.0167,-1.0176,-1.0235,-1.0196,-1.0235,-1.0225,-1.0302,-1.0631,-1.0843,-1.0881,-1.0881,-1.0881,-1.0881,-1.0881,-1.0881,-1.0544,-1.0467,-1.0505,-1.0544,-1.0572,-1.0495,-1.0428,-1.04,-1.0361,-1.0439,-1.0562,-1.0672,-1.0684,-1.0524,-1.0388,-1.0461,-1.0498,-1.0687,-1.0794,-1.098,-1.1178,-1.1265,-1.1338,-1.1314,-1.1326,-1.1023,-1.0905,-1.0694,-1.0514,-1.074,-1.0757,-1.0825,-1.1079,-1.104,-1.0972,-1.091,-1.0874,-1.1019,-1.1315,-1.1509,-1.1439,-1.176,-1.2012,-1.2222,-1.238,-1.2517,-1.2708,-1.2734,-1.304,-1.3468,-1.396,-1.4503,-1.4877,-1.3194,-1.2408,-1.2441,-1.2664,-1.2938,-1.3148,-1.338,-1.3542,-1.3925,-1.3914,-1.3749,-1.3271,-1.2979,-1.2688,-1.2458,-1.2311,-1.2313,-1.2465,-1.2318,-1.2053,-1.1696,-1.133,-1.0974,-1.0594,-1.0204,-1.001,-1.0019,-0.9941,-0.9872,-0.9686,-0.9509,-0.9755,-0.9961,-0.9834,-0.9667,-0.9536,-0.9386,-0.9257,-0.9168,-0.9266,-0.9203,-0.8895,-0.8674,-0.8544,-0.8922,-0.9323,-0.9473,-0.964,-0.9806,-0.9815,-0.9785,-0.9834,-1.004,-1.0283,-1.0641,-1.0805,-1.0881,-1.0881,-1.0881,-1.0881,-1.0933,-1.1074,-1.0191,-1.017,-1.0112,-1.021,-1.0293,-1.0166,-1.0098,-1.0117,-1.0122,-1.0255,-1.0529,-1.0678,-1.0696,-1.0561,-1.0521,-1.0464,-1.0516,-1.0643,-1.0776,-1.0925,-1.1064,-1.1108,-1.1015,-1.0913,-1.0718,-1.0581,-1.0641,-1.0525,-1.0302,-1.0416,-1.0609,-1.0802,-1.0854,-1.0889,-1.0844,-1.0715,-1.057,-1.0537,-1.0786,-1.0888,-1.0747,-1.0864,-1.1311,-1.1472,-1.1603,-1.1901,-1.2153,-1.2282,-1.2281,-1.2568,-1.2856,-1.3063,-1.2979,-1.2525,-1.1497,-1.143,-1.1722,-1.2118,-1.2329,-1.2579,-1.2858,-1.3207,-1.3273,-1.3003,-1.2707,-1.269,-1.2637,-1.1944,-1.2262,-1.2677,-1.2489,-1.1902,-1.1541,-1.117,-1.0967,-1.0603,-1.0149,-0.9776,-0.9632,-0.9502,-0.9542,-0.964,-0.9377,-0.9199,-0.9319,-0.9487,-0.9448,-0.9359,-0.9288,-0.9145,-0.9056,-0.8967,-0.8926,-0.8854,-0.8692,-0.8594,-0.8496,-0.8601,-0.8907,-0.8947,-0.9107,-0.9244,-0.9213,-0.9022,-0.9239,-0.9813,-1.0234,-1.0546,-1.0758,-1.0891,-1.0964,-1.1098,-1.1281,-1.1375,-1.1478,-0.9989,-0.9958,-1.01,-1.013,-1.0084,-0.9851,-0.9729,-0.9817,-0.9825,-0.9978,-1.0245,-1.0531,-1.0531,-1.0322,-1.037,-1.0462,-1.0471,-1.0521,-1.0614,-1.0806,-1.0802,-1.0656,-1.0534,-1.0402,-1.0422,-1.0173,-1.0356,-1.0492,-1.0391,-1.0627,-1.0823,-1.0887,-1.0914,-1.091,-1.1001,-1.1325,-1.1134,-1.0724,-1.0931,-1.0846,-1.0631,-1.0455,-1.0777,-1.1084,-1.1148,-1.1457,-1.1919,-1.1842,-1.1929,-1.2119,-1.1972,-1.2199,-1.2468,-1.1849,-1.1052,-1.0674,-1.1369,-1.1886,-1.2175,-1.2288,-1.2368,-1.259,-1.2742,-1.2471,-1.2095,-1.2228,-1.2433,-1.1674,-1.1842,-1.1873,-1.149,-1.1113,-1.106,-1.0872,-1.071,-1.0371,-0.9959,-0.9734,-0.9621,-0.9429,-0.9456,-0.9533,-0.922,-0.9007,-0.8975,-0.9056,-0.9016,-0.9016,-0.9024,-0.8895,-0.8822,-0.8773,-0.87,-0.8659,-0.8551,-0.8519,-0.8479,-0.8537,-0.8578,-0.8667,-0.8626,-0.8674,-0.8529,-0.8308,-0.8854,-0.9603,-1.0086,-1.0499,-1.0835,-1.1175,-1.1295,-1.1448,-1.1633,-1.1758,-1.1789,-0.9717,-0.9726,-0.9752,-0.9796,-0.9796,-0.9935,-0.9978,-1.0013,-1.0163,-1.0216,-1.0289,-1.0475,-1.0498,-1.0384,-1.0218,-1.0213,-1.0221,-1.0187,-1.0312,-1.0368,-1.0483,-1.0523,-1.0478,-1.0446,-1.0449,-1.0405,-1.0468,-1.0384,-1.0208,-1.0566,-1.0704,-1.0814,-1.1033,-1.1019,-1.0942,-1.1,-1.085,-1.0801,-1.0869,-1.0869,-1.0651,-1.0609,-1.0786,-1.115,-1.1138,-1.144,-1.1966,-1.1714,-1.1638,-1.1797,-1.1653,-1.1514,-1.1779,-1.1337,-1.0906,-1.0559,-1.0997,-1.1388,-1.1356,-1.1336,-1.1592,-1.199,-1.2239,-1.2031,-1.1855,-1.2253,-1.2034,-1.1544,-1.1249,-1.1406,-1.1799,-1.1602,-1.1426,-1.1067,-1.0813,-1.0427,-1.0091,-0.9985,-0.9855,-0.9495,-0.9418,-0.9096,-0.8766,-0.8732,-0.8732,-0.8733,-0.8741,-0.8823,-0.8872,-0.8676,-0.8545,-0.8537,-0.8479,-0.8474,-0.8419,-0.8539,-0.868,-0.8808,-0.8685,-0.8545,-0.8432,-0.8393,-0.8279,-0.8231,-0.8791,-0.9439,-1.009,-1.0746,-1.1199,-1.1548,-1.1612,-1.1624,-1.1654,-1.1755,-1.1908,-0.9188,-0.9149,-0.9461,-0.9604,-0.962,-0.9741,-0.9839,-0.9933,-1.0083,-1.014,-1.0194,-1.0265,-1.0293,-1.0138,-0.9999,-0.9895,-0.9903,-1.0023,-1.0023,-1.0068,-1.0406,-1.0409,-1.0423,-1.0492,-1.0378,-1.0451,-1.0494,-1.042,-1.0369,-1.0526,-1.0689,-1.0955,-1.1071,-1.1038,-1.0996,-1.093,-1.0828,-1.0726,-1.0725,-1.0719,-1.0552,-1.0587,-1.0834,-1.1027,-1.116,-1.1383,-1.1639,-1.1699,-1.1458,-1.1571,-1.1428,-1.1093,-1.1248,-1.1128,-1.0897,-1.0872,-1.0811,-1.116,-1.0997,-1.0745,-1.1058,-1.1516,-1.1731,-1.1567,-1.1366,-1.1504,-1.1483,-1.1116,-1.0738,-1.1015,-1.1496,-1.1388,-1.1226,-1.0859,-1.075,-1.0326,-1.0102,-0.9993,-0.9868,-0.9514,-0.9066,-0.8704,-0.8445,-0.8422,-0.8447,-0.8462,-0.8468,-0.8625,-0.8749,-0.8631,-0.8511,-0.8601,-0.8563,-0.8545,-0.8608,-0.8714,-0.8894,-0.9096,-0.8936,-0.8666,-0.8526,-0.8518,-0.8325,-0.8257,-0.8877,-0.9598,-1.0428,-1.1056,-1.1538,-1.1834,-1.1897,-1.185,-1.1677,-1.194,-1.2222,-0.8357,-0.8327,-0.9167,-0.9533,-0.9548,-0.9379,-0.9391,-0.9498,-0.9513,-0.9695,-0.9984,-0.9947,-0.9971,-0.9844,-0.968,-0.9738,-0.985,-1.0024,-1.0042,-1.0118,-1.035,-1.0322,-1.0221,-1.0226,-1.0272,-1.0293,-1.0324,-1.0437,-1.0579,-1.0643,-1.0871,-1.094,-1.0905,-1.0906,-1.0864,-1.0794,-1.0721,-1.0671,-1.073,-1.0737,-1.0637,-1.053,-1.0694,-1.0869,-1.0914,-1.1158,-1.1319,-1.1326,-1.1255,-1.1285,-1.1301,-1.1174,-1.1141,-1.1005,-1.1256,-1.1394,-1.1222,-1.1043,-1.1035,-1.0808,-1.0662,-1.0947,-1.0745,-1.0601,-1.0586,-1.0772,-1.083,-1.0739,-1.0475,-1.0473,-1.0612,-1.0629,-1.0586,-1.0519,-1.0468,-1.025,-0.9994,-0.9874,-0.9739,-0.9361,-0.8855,-0.8512,-0.8466,-0.838,-0.8359,-0.8497,-0.8606,-0.8774,-0.8849,-0.8834,-0.8764,-0.8911,-0.8875,-0.8776,-0.8805,-0.8928,-0.9159,-0.9384,-0.9167,-0.8959,-0.8812,-0.8721,-0.8601,-0.8678,-0.9082,-0.9777,-1.0777,-1.1471,-1.1906,-1.2128,-1.2232,-1.2133,-1.2044,-1.2523,-1.2812,-0.8072,-0.8078,-0.8758,-0.9061,-0.9033,-0.8978,-0.911,-0.9431,-0.9438,-0.9452,-0.9435,-0.9664,-0.9735,-0.9724,-0.9875,-0.9939,-0.9939,-0.9939,-0.9868,-1.0006,-1.0258,-1.0185,-1.0227,-1.0269,-1.0309,-1.0239,-1.0236,-1.0269,-1.0233,-1.0491,-1.0428,-1.0288,-1.0491,-1.0491,-1.0428,-1.0491,-1.0588,-1.0753,-1.0773,-1.0786,-1.0812,-1.077,-1.0868,-1.0916,-1.0901,-1.1145,-1.1181,-1.1155,-1.1138,-1.1152,-1.1283,-1.1272,-1.147,-1.1419,-1.154,-1.1601,-1.1263,-1.0947,-1.1229,-1.1047,-1.0872,-1.0748,-1.0662,-1.034,-1.0283,-1.0336,-1.0415,-1.0375,-1.0265,-1.0254,-1.0277,-1.03,-1.0265,-1.0265,-1.0257,-1.0128,-0.9957,-0.9919,-0.9779,-0.9461,-0.8914,-0.8715,-0.8614,-0.8318,-0.8303,-0.854,-0.8693,-0.8883,-0.9005,-0.8936,-0.902,-0.9173,-0.9164,-0.9026,-0.9085,-0.9171,-0.9417,-0.9601,-0.9417,-0.9252,-0.9194,-0.9109,-0.8949,-0.9119,-0.9578,-1.037,-1.1314,-1.1845,-1.2256,-1.2565,-1.2703,-1.2518,-1.2469,-1.2829,-1.3055,-0.7063,-0.7058,-0.7664,-0.7996,-0.8103,-0.8049,-0.8302,-0.8778,-0.9047,-0.9155,-0.92,-0.9425,-0.9521,-0.9595,-0.9687,-0.9762,-0.9768,-0.9838,-0.9846,-0.992,-1.0073,-1.0118,-1.0187,-1.0197,-1.0242,-1.018,-1.0053,-1.0078,-1.0047,-1.0053,-1.011,-1.0047,-1.018,-1.011,-1.011,-1.0174,-1.0364,-1.0521,-1.073,-1.0814,-1.0877,-1.0877,-1.0933,-1.0989,-1.0996,-1.1066,-1.1066,-1.1066,-1.1066,-1.1129,-1.1185,-1.1324,-1.1457,-1.1505,-1.1421,-1.1458,-1.1275,-1.1181,-1.13,-1.1137,-1.1077,-1.095,-1.0726,-1.0424,-1.0256,-1.0264,-1.0239,-1.019,-1.0087,-1.0043,-1.0051,-1.011,-1.0058,-1.0007,-1.0007,-1.0007,-0.9991,-0.9991,-0.9771,-0.9539,-0.924,-0.9035,-0.8799,-0.843,-0.8311,-0.861,-0.8803,-0.8974,-0.9081,-0.9137,-0.9264,-0.9437,-0.9373,-0.9274,-0.9326,-0.9363,-0.95,-0.9638,-0.9552,-0.9462,-0.9516,-0.9434,-0.9276,-0.9638,-1.0155,-1.0739,-1.1129,-1.207,-1.2599,-1.2783,-1.2891,-1.2734,-1.2627,-1.2782,-1.2958,-0.5701,-0.5538,-0.6204,-0.6804,-0.6972,-0.6853,-0.7133,-0.7741,-0.8205,-0.8762,-0.9033,-0.9138,-0.9157,-0.9174,-0.9235,-0.9254,-0.9329,-0.9455,-0.9469,-0.9659,-0.9918,-0.9914,-0.9666,-0.9856,-0.9664,-0.9792,-0.9798,-0.9606,-0.9856,-0.9919,-0.9926,-0.9989,-0.9919,-0.9919,-0.9919,-0.9983,-1.0053,-1.006,-1.0289,-1.045,-1.0511,-1.0561,-1.0624,-1.0744,-1.0807,-1.0933,-1.0996,-1.0996,-1.1059,-1.1066,-1.1129,-1.1206,-1.1339,-1.1199,-1.1122,-1.1178,-1.1203,-1.1203,-1.1221,-1.1117,-1.1097,-1.1019,-1.0814,-1.0581,-1.0411,-1.0104,-0.9989,-1.0083,-1.0045,-1.003,-1.0068,-0.9948,-0.9895,-0.9895,-0.9895,-0.9895,-0.9895,-0.988,-0.9775,-0.9527,-0.9362,-0.9189,-0.9048,-0.8749,-0.8538,-0.8765,-0.8834,-0.8953,-0.9133,-0.9247,-0.9392,-0.957,-0.9525,-0.9438,-0.9497,-0.9541,-0.9533,-0.9629,-0.957,-0.9489,-0.943,-0.9468,-0.9577,-0.9895,-1.0233,-1.0277,-1.0706,-1.1657,-1.2431,-1.2735,-1.2783,-1.2832,-1.2832,-1.2832,-1.2861,-0.4772,-0.4718,-0.5601,-0.6046,-0.61,-0.6046,-0.6128,-0.636,-0.6534,-0.7375,-0.8351,-0.8628,-0.8535,-0.8354,-0.8578,-0.8566,-0.8485,-0.8674,-0.877,-0.8833,-0.9186,-0.9075,-0.8759,-0.8952,-0.8894,-0.87,-0.87,-0.9098,-0.9321,-0.9502,-0.9612,-0.9612,-0.9624,-0.9578,-0.9606,-0.974,-0.9713,-0.9667,-0.9956,-1.0133,-1.0155,-1.0142,-1.018,-1.0257,-1.0334,-1.0467,-1.0524,-1.0504,-1.0624,-1.0688,-1.0807,-1.1003,-1.1199,-1.085,-1.085,-1.1052,-1.1122,-1.1122,-1.1156,-1.1085,-1.1098,-1.102,-1.0863,-1.0721,-1.0441,-1.0002,-0.9806,-0.9986,-1.0133,-1.0161,-1.0058,-0.9903,-0.9762,-0.9762,-0.9732,-0.9732,-0.9732,-0.9755,-0.9725,-0.957,-0.9414,-0.9305,-0.9233,-0.9111,-0.8918,-0.884,-0.8757,-0.887,-0.9082,-0.9211,-0.9329,-0.9504,-0.957,-0.9563,-0.9621,-0.9569,-0.9517,-0.9517,-0.9503,-0.9444,-0.9347,-0.9418,-0.9528,-0.9896,-1.0231,-1.0486,-1.0846,-1.1392,-1.2045,-1.2487,-1.2782,-1.283,-1.2782,-1.2713,-1.2763,-0.3788,-0.384,-0.4284,-0.4657,-0.4882,-0.4949,-0.5209,-0.5584,-0.5731,-0.6245,-0.7032,-0.7451,-0.7616,-0.7443,-0.7723,-0.7702,-0.7507,-0.7762,-0.7752,-0.7832,-0.7972,-0.8037,-0.8042,-0.8117,-0.8376,-0.8247,-0.8392,-0.8674,-0.8903,-0.9046,-0.9182,-0.9097,-0.9108,-0.9213,-0.9221,-0.9309,-0.939,-0.9408,-0.9781,-0.9934,-0.9934,-1.0067,-1.0284,-1.0277,-1.0248,-1.0269,-1.0245,-1.0271,-1.0244,-1.0378,-1.0568,-1.0624,-1.0751,-1.0667,-1.073,-1.08,-1.087,-1.0933,-1.0989,-1.0996,-1.1066,-1.0982,-1.1009,-1.084,-1.1128,-1.0759,-1.0552,-1.071,-1.0887,-1.09,-1.0442,-1.0199,-0.9977,-0.985,-0.9926,-0.995,-0.995,-0.9943,-0.9814,-0.9681,-0.9552,-0.9413,-0.9356,-0.9285,-0.9112,-0.9054,-0.8952,-0.8922,-0.911,-0.9277,-0.9348,-0.9439,-0.9535,-0.9582,-0.9598,-0.9487,-0.942,-0.942,-0.9463,-0.9337,-0.9194,-0.9291,-0.9461,-0.9963,-1.0512,-1.1055,-1.1421,-1.197,-1.2001,-1.2342,-1.2622,-1.2852,-1.2745,-1.2714,-1.29,-0.2961,-0.2907,-0.2905,-0.3131,-0.3569,-0.3812,-0.4243,-0.4864,-0.5123,-0.5191,-0.5251,-0.5769,-0.6193,-0.6477,-0.6527,-0.6593,-0.6593,-0.6658,-0.6662,-0.6732,-0.6859,-0.699,-0.7204,-0.7419,-0.7687,-0.8001,-0.822,-0.8513,-0.8763,-0.8888,-0.8891,-0.8612,-0.8578,-0.8735,-0.8777,-0.8831,-0.8831,-0.9094,-0.938,-0.9659,-0.9945,-1.02,-1.0485,-1.0542,-1.0528,-1.0378,-1.0265,-1.0211,-1.0065,-1.0117,-1.0314,-1.0378,-1.0371,-1.0364,-1.0428,-1.0491,-1.0555,-1.0618,-1.0681,-1.0807,-1.087,-1.0926,-1.0996,-1.1129,-1.1331,-1.1334,-1.1119,-1.1145,-1.1333,-1.1203,-1.0732,-1.0372,-1.0143,-0.9994,-1.0045,-1.01,-1.01,-1.0107,-0.9932,-0.9798,-0.9666,-0.9575,-0.9531,-0.9457,-0.9369,-0.9256,-0.9256,-0.927,-0.9279,-0.9377,-0.9446,-0.948,-0.9549,-0.9559,-0.9525,-0.9563,-0.9418,-0.934,-0.9335,-0.9192,-0.9111,-0.9234,-0.9538,-1.0159,-1.0724,-1.1346,-1.2139,-1.2795,-1.2695,-1.228,-1.27,-1.2973,-1.2745,-1.2782,-1.3184,-0.2521,-0.2745,-0.2745,-0.2856,-0.2988,-0.2997,-0.3151,-0.3427,-0.3526,-0.3515,-0.3767,-0.3789,-0.414,-0.4815,-0.4815,-0.4878,-0.5077,-0.5342,-0.5617,-0.5686,-0.5969,-0.6024,-0.6199,-0.657,-0.6842,-0.7246,-0.7702,-0.812,-0.8234,-0.8643,-0.8687,-0.8201,-0.822,-0.812,-0.7757,-0.7929,-0.8369,-0.8639,-0.9204,-0.9574,-0.9813,-1.0089,-1.0281,-1.0366,-1.0353,-1.0319,-1.025,-1.0236,-1.0127,-1.0059,-1.0047,-1.0053,-1.0117,-1.011,-1.011,-1.0244,-1.0238,-1.0238,-1.0364,-1.0428,-1.0555,-1.0555,-1.0618,-1.08,-1.094,-1.1066,-1.0891,-1.0856,-1.0959,-1.1003,-1.0604,-1.0348,-1.0128,-1.0114,-1.014,-1.0154,-1.0161,-1.0161,-1.0091,-1.0015,-0.9973,-0.9847,-0.9791,-0.9722,-0.9596,-0.9596,-0.9596,-0.9603,-0.9401,-0.9469,-0.9572,-0.9552,-0.9532,-0.9424,-0.9343,-0.9617,-0.9576,-0.9425,-0.9336,-0.9391,-0.937,-0.9165,-0.9542,-1.0201,-1.1005,-1.1726,-1.2564,-1.3112,-1.2703,-1.2362,-1.2878,-1.3176,-1.2887,-1.2978,-1.3378]}]]